[[{"header":{"parameterUnit":"m.s-1","parameterCategory":1,"la1":31.0,"la2":29.5877,"lo1":-88.7671,"lo2":-86.6584,"dy":0.0162,"dx":0.0185,"nx":115,"ny":88,"refTime":"2023-08-14T06:00:00:Z","depth":0,"parameterNumber":2,"parameterNumberName":"U-component_of_WINDS"},"data":[0.0,0.0,0.0,0.0,0.0,0.0,0.0,0.0,0.0,0.0,0.0,0.0,0.0,0.0,0.0,0.0,0.0,0.0,0.0,0.0,0.0,0.0,0.0,0.0,0.0,0.0,0.0,0.0,0.0,0.0,0.0,0.0,0.0,0.0,0.0,0.0,0.0,0.0,0.0,0.0,0.0,0.0,0.0,0.0,0.0,0.0,0.0,0.0,0.0,0.0,0.0,0.0,0.0,0.0,0.0,0.0,0.0,0.0,0.0,0.0,0.0,0.0,0.0,0.0,0.0,0.0,0.0,0.0,0.0,0.0,0.0,0.0,0.0,0.0,0.0,0.0,0.0,0.0,0.0,0.0,0.0,0.0,0.0,0.0,0.0,0.0,0.0,0.0,0.0,0.0,0.0,0.0,0.0,0.0,0.0,0.0,0.0,0.0,0.0,0.0,0.0,0.0,0.0,0.0,0.0,0.0,0.0,0.0,0.0,0.0,0.0,0.0,0.0,0.0,0.0,0.0,0.0,0.0,0.0,0.0,0.0,0.0,0.0,0.0,0.0,0.0,0.0,0.0,0.0,0.0,0.0,0.0,0.0,0.0,0.0,0.0,0.0,0.0,0.0,0.0,0.0,0.0,0.0,0.0,0.0,0.0,0.0,0.0,0.0,0.0,0.0,0.0,0.0,0.0,0.0,0.0,0.0,0.0,0.0,0.0,0.0,0.0,0.0,0.0,0.0,0.0,0.0,0.0,0.0,0.0,0.0,0.0,0.0,0.0,0.0,0.0,0.0,0.0,0.0,0.0,0.0,0.0,0.0,0.0,0.0,0.0,0.0,0.0,0.0,0.0,0.0,0.0,0.0,0.0,0.0,0.0,0.0,0.0,0.0,0.0,0.0,0.0,0.0,0.0,0.0,0.0,0.0,0.0,0.0,0.0,0.0,0.0,0.0,0.0,0.0,0.0,0.0,0.0,0.0,0.0,0.0,0.0,0.0,0.0,0.0,0.0,0.0,0.0,0.0,0.0,0.0,0.0,0.0,0.0,0.0,0.0,0.0,0.0,0.0,0.0,0.0,0.0,0.0,0.0,0.0,0.0,0.0,0.0,0.0,0.0,0.0,0.0,0.0,0.0,0.0,0.0,0.0,0.0,0.0,0.0,0.0,0.0,0.0,0.0,0.0,0.0,0.0,0.0,0.0,0.0,0.0,0.0,0.0,0.0,0.0,0.0,0.0,0.0,0.0,0.0,0.0,0.0,0.0,0.0,0.0,0.0,0.0,0.0,0.0,0.0,0.0,0.0,0.0,0.0,0.0,0.0,0.0,0.0,0.0,0.0,0.0,0.0,0.0,0.0,0.0,0.0,0.0,0.0,0.0,0.0,0.0,0.0,0.0,0.0,0.0,0.0,0.0,0.0,0.0,0.0,0.0,0.0,0.0,0.0,0.0,0.0,0.0,0.0,0.0,0.0,0.0,0.0,0.0,0.0,0.0,0.0,0.0,0.0,0.0,0.0,0.0,0.0,0.0,0.0,0.0,0.0,0.0,0.0,0.0,0.0,0.0,0.0,0.0,0.0,0.0,0.0,0.0,0.0,0.0,0.0,0.0,0.0,0.0,0.0,0.0,0.0,0.0,0.0,0.0,0.0,0.0,0.0,0.0,0.0,0.0,0.0,0.0,0.0,0.0,0.0,0.0,0.0,0.0,0.0,0.0,0.0,0.0,0.0,0.0,0.0,0.0,0.0,0.0,0.0,0.0,0.0,0.0,0.0,0.0,0.0,0.0,0.0,0.0,0.0,0.0,0.0,0.0,0.0,0.0,0.0,0.0,0.0,0.0,0.0,0.0,0.0,0.0,0.0,0.0,0.0,0.0,0.0,0.0,0.0,0.0,0.0,0.0,0.0,0.0,0.0,0.0,0.0,0.0,0.0,0.0,0.0,0.0,0.0,0.0,0.0,0.0,0.0,0.0,0.0,0.0,0.0,0.0,0.0,0.0,0.0,0.0,0.0,0.0,0.0,0.0,0.0,0.0,0.0,0.0,0.0,0.0,0.0,0.0,0.0,0.0,0.0,0.0,0.0,0.0,0.0,0.0,0.0,0.0,0.0,0.0,0.0,0.0,0.0,0.0,0.0,0.0,0.0,0.0,0.0,0.0,0.0,0.0,0.0,0.0,0.0,0.0,0.0,0.0,0.0,0.0,0.0,0.0,0.0,0.0,0.0,0.0,0.0,0.0,0.0,0.0,0.0,0.0,0.0,0.0,0.0,0.0,0.0,0.0,0.0,0.0,0.0,0.0,0.0,0.0,0.0,0.0,0.0,0.0,0.0,0.0,0.0,0.0,0.0,0.0,0.0,0.0,0.0,0.0,0.0,0.0,0.0,0.0,0.0,0.0,0.0,0.0,0.0,0.0,0.0,0.0,0.0,0.0,0.0,0.0,0.0,0.0,0.0,0.0,0.0,0.0,0.0,0.0,0.0,0.0,0.0,0.0,0.0,0.0,0.0,0.0,0.0,0.0,0.0,0.0,0.0,0.0,0.0,0.0,0.0,0.0,0.0,0.0,0.0,0.0,0.0,0.0,0.0,0.0,0.0,0.0,0.0,0.0,0.0,0.0,0.0,0.0,0.0,0.0,0.0,0.0,0.0,0.0,0.0,0.0,0.0,0.0,0.0,0.0,0.0,0.0,0.0,0.0,0.0,0.0,0.0,0.0,0.0,0.0,0.0,0.0,0.0,0.0,0.0,0.0,0.0,0.0,0.0,0.0,0.0,0.0,0.0,0.0,0.0,0.0,0.0,0.0,0.0,0.0,0.0,0.0,0.0,0.0,0.0,0.0,0.0,0.0,0.0,0.0,0.0,0.0,0.0,0.0,0.0,0.0,0.0,0.0,0.0,0.0,0.0,0.0,0.0,0.0,0.0,0.0,0.0,0.0,0.0,0.0,0.0,0.0,0.0,0.0,0.0,0.0,0.0,0.0,0.0,0.0,0.0,0.0,0.0,0.0,0.0,0.0,0.0,0.0,0.0,0.0,0.0,0.0,0.0,0.0,0.0,0.0,0.0,0.0,0.0,0.0,0.0,0.0,0.0,0.0,0.0,0.0,0.0,0.0,0.0,0.0,0.0,0.0,0.0,0.0,0.0,0.0,0.0,0.0,0.0,0.0,0.0,0.0,0.0,0.0,0.0,0.0,0.0,0.0,0.0,0.0,0.0,0.0,0.0,0.0,0.0,0.0,0.0,0.0,0.0,0.0,0.0,0.0,0.0,0.0,0.0,0.0,0.0,0.0,0.0,0.0,0.0,0.0,0.0,0.0,0.0,0.0,0.0,0.0,0.0,0.0,0.0,0.0,0.0,0.0,0.0,0.0,0.0,0.0,0.0,0.0,0.0,0.0,0.0,0.0,0.0,0.0,0.0,0.0,0.0,0.0,0.0,0.0,0.0,0.0,0.0,0.0,0.0,0.0,0.0,0.0,0.0,0.0,0.0,0.0,0.0,0.0,0.0,0.0,0.0,0.0,0.0,0.0,0.0,0.0,0.0,0.0,0.0,0.0,0.0,0.0,0.0,0.0,0.0,0.0,0.0,0.0,0.0,0.0,0.0,0.0,0.0,0.0,0.0,0.0,0.0,0.0,0.0,0.0,0.0,0.0,0.0,0.0,0.0,0.0,0.0,0.0,0.0,0.0,0.0,0.0,0.0,0.0,0.0,0.0,0.0,0.0,0.0,0.0,0.0,0.0,0.0,0.0,0.0,0.0,0.0,0.0,0.0,0.0,0.0,0.0,0.0,0.0,0.0,0.0,0.0,0.0,0.0,0.0,0.0,0.0,0.0,0.0,0.0,0.0,0.0,0.0,0.0,0.0,0.0,0.0,0.0,0.0,0.0,0.0,0.0,0.0,0.0,0.0,0.0,0.0,0.0,0.0,0.0,0.0,0.0,0.0,0.0,0.0,0.0,0.0,0.0,0.0,0.0,0.0,0.0,0.0,0.0,0.0,0.0,0.0,0.0,0.0,0.0,0.0,0.0,0.0,0.0,0.0,0.0,0.0,0.0,0.0,0.0,0.0,0.0,0.0,0.0,0.0,0.0,0.0,0.0,0.0,0.0,0.0,0.0,0.0,0.0,0.0,0.0,0.0,0.0,0.0,0.0,0.0,0.0,0.0,0.0,0.0,0.0,0.0,0.0,0.0,0.0,0.0,0.0,0.0,0.0,0.0,0.0,0.0,0.0,0.0,0.0,0.0,0.0,0.0,0.0,0.0,0.0,0.0,0.0,0.0,0.0,-1.0029,0.0,0.0,0.0,0.0,0.0,0.0,0.0,0.0,0.0,0.0,0.0,0.0,0.0,0.0,0.0,0.0,0.0,0.0,0.0,0.0,0.0,0.0,0.0,0.0,0.0,0.0,0.0,0.0,0.0,0.0,0.0,0.0,0.0,0.0,0.0,0.0,0.0,0.0,0.0,0.0,0.0,0.0,0.0,0.0,0.0,0.0,0.0,0.0,0.0,0.0,0.0,0.0,0.0,0.0,0.0,0.0,0.0,0.0,0.0,0.0,0.0,0.0,0.0,0.0,0.0,0.0,0.0,0.0,0.0,0.0,0.0,0.0,0.0,0.0,0.0,0.0,0.0,0.0,0.0,0.0,0.0,0.0,0.0,0.0,0.0,0.0,0.0,0.0,0.0,0.0,0.0,0.0,0.0,0.0,0.0,0.0,0.0,0.0,0.0,0.0,0.0,0.0,0.0,0.0,0.0,0.0,0.0,0.0,0.0,0.0,-1.2636,-1.1465,-1.0932,-1.0695,-1.0638,0.0,0.0,0.0,0.0,0.0,0.0,0.0,0.0,0.0,0.0,0.0,0.0,0.0,0.0,0.0,0.0,0.0,0.0,0.0,0.0,0.0,0.0,0.0,0.0,0.0,0.0,0.0,0.0,0.0,0.0,0.0,0.0,0.0,0.0,0.0,0.0,0.0,0.0,0.0,0.0,0.0,0.0,0.0,0.0,0.0,0.0,0.0,0.0,0.0,0.0,0.0,0.0,0.0,0.0,0.0,0.0,0.0,0.0,0.0,0.0,0.0,0.0,0.0,0.0,0.0,0.0,0.0,0.0,0.0,0.0,0.0,0.0,0.0,0.0,0.0,0.0,0.0,0.0,0.0,0.0,0.0,0.0,0.0,0.0,0.0,0.0,0.0,0.0,0.0,0.0,0.0,0.0,0.0,0.0,0.0,0.0,0.0,0.0,0.0,0.0,0.0,0.0,0.0,0.0,0.0,0.0,0.0,0.0,0.0,0.0,0.0,0.0,-1.1782,-1.1347,-1.1139,0.0,0.0,0.0,0.0,0.0,0.0,0.0,0.0,0.0,0.0,0.0,0.0,0.0,0.0,0.0,0.0,0.0,0.0,0.0,0.0,0.0,0.0,0.0,0.0,0.0,0.0,0.0,0.0,0.0,0.0,0.0,0.0,0.0,0.0,0.0,0.0,0.0,0.0,0.0,0.0,0.0,0.0,0.0,0.0,0.0,0.0,0.0,0.0,0.0,0.0,0.0,0.0,0.0,0.0,0.0,0.0,0.0,0.0,0.0,0.0,0.0,0.0,0.0,0.0,0.0,0.0,0.0,0.0,0.0,0.0,0.0,0.0,0.0,0.0,0.0,0.0,0.0,0.0,0.0,0.0,0.0,0.0,0.0,0.0,0.0,0.0,0.0,0.0,0.0,0.0,0.0,0.0,0.0,0.0,0.0,0.0,0.0,0.0,0.0,0.0,0.0,0.0,0.0,0.0,0.0,0.0,0.0,0.0,0.0,0.0,-1.3209,-1.2336,-1.2166,0.0,-1.0953,0.0,0.0,0.0,0.0,0.0,0.0,0.0,0.0,0.0,0.0,0.0,0.0,0.0,0.0,0.0,0.0,0.0,0.0,0.0,0.0,0.0,0.0,0.0,0.0,0.0,0.0,0.0,0.0,0.0,0.0,0.0,0.0,0.0,0.0,0.0,0.0,0.0,0.0,0.0,0.0,0.0,0.0,0.0,0.0,0.0,0.0,0.0,0.0,0.0,0.0,0.0,0.0,0.0,0.0,0.0,0.0,0.0,0.0,0.0,0.0,0.0,0.0,0.0,0.0,0.0,0.0,0.0,0.0,0.0,0.0,0.0,0.0,0.0,0.0,0.0,0.0,0.0,0.0,0.0,0.0,0.0,0.0,0.0,0.0,0.0,0.0,0.0,0.0,0.0,0.0,0.0,0.0,0.0,0.0,0.0,0.0,0.0,0.0,0.0,0.0,0.0,0.0,0.0,0.0,0.0,0.0,0.0,0.0,0.0,0.0,-1.403,-1.3671,-1.2641,-1.1682,0.0,0.0,0.0,0.0,0.0,0.0,0.0,0.0,0.0,0.0,0.0,0.0,0.0,0.0,0.0,0.0,0.0,0.0,0.0,0.0,0.0,0.0,0.0,0.0,0.0,0.0,0.0,0.0,0.0,0.0,0.0,0.0,0.0,0.0,0.0,0.0,0.0,0.0,0.0,0.0,0.0,0.0,0.0,0.0,0.0,0.0,0.0,0.0,0.0,0.0,0.0,0.0,0.0,0.0,0.0,0.0,0.0,0.0,0.0,0.0,0.0,0.0,0.0,0.0,0.0,0.0,0.0,0.0,0.0,0.0,0.0,0.0,0.0,0.0,0.0,0.0,0.0,0.0,0.0,0.0,0.0,0.0,0.0,0.0,0.0,0.0,0.0,0.0,0.0,0.0,0.0,0.0,0.0,0.0,0.0,0.0,0.0,0.0,0.0,0.0,0.0,0.0,0.0,0.0,0.0,0.0,0.0,0.0,0.0,0.0,-1.4547,-1.4525,-1.4423,-1.2822,-1.1626,-1.0998,0.0,0.0,0.0,0.0,0.0,0.0,0.0,0.0,0.0,0.0,0.0,0.0,0.0,0.0,0.0,0.0,0.0,0.0,0.0,0.0,0.0,0.0,0.0,0.0,0.0,0.0,0.0,0.0,0.0,0.0,0.0,0.0,0.0,0.0,0.0,0.0,0.0,0.0,0.0,0.0,0.0,0.0,0.0,0.0,0.0,0.0,0.0,0.0,0.0,0.0,0.0,0.0,0.0,0.0,0.0,0.0,0.0,0.0,0.0,0.0,0.0,0.0,0.0,0.0,0.0,0.0,0.0,0.0,0.0,0.0,0.0,0.0,0.0,0.0,0.0,0.0,0.0,0.0,0.0,0.0,0.0,0.0,0.0,0.0,0.0,0.0,0.0,0.0,0.0,0.0,0.0,0.0,0.0,0.0,0.0,0.0,0.0,0.0,0.0,0.0,0.0,0.0,0.0,0.0,0.0,0.0,0.0,0.0,-1.4493,-1.4433,-1.4356,-1.4202,-1.2597,-1.1699,0.0,0.0,0.0,0.0,0.0,0.0,0.0,0.0,0.0,0.0,0.0,0.0,0.0,0.0,0.0,0.0,0.0,0.0,0.0,0.0,0.0,0.0,0.0,0.0,0.0,0.0,0.0,0.0,0.0,0.0,0.0,0.0,0.0,0.0,0.0,0.0,0.0,0.0,0.0,0.0,0.0,0.0,0.0,0.0,0.0,0.0,0.0,0.0,0.0,0.0,0.0,0.0,0.0,0.0,0.0,0.0,0.0,0.0,0.0,0.0,0.0,0.0,0.0,0.0,0.0,0.0,0.0,0.0,0.0,0.0,0.0,0.0,0.0,0.0,0.0,0.0,0.0,0.0,0.0,0.0,0.0,0.0,0.0,0.0,0.0,0.0,0.0,0.0,0.0,0.0,0.0,0.0,0.0,0.0,0.0,0.0,0.0,0.0,0.0,0.0,0.0,0.0,0.0,0.0,0.0,0.0,0.0,0.0,0.0,-1.4295,-1.4262,-1.4157,-1.3977,-1.2436,-1.1569,0.0,0.0,0.0,0.0,0.0,0.0,0.0,0.0,0.0,0.0,0.0,0.0,0.0,0.0,0.0,0.0,0.0,0.0,0.0,0.0,0.0,0.0,0.0,0.0,0.0,0.0,0.0,0.0,0.0,0.0,0.0,0.0,0.0,0.0,0.0,0.0,0.0,0.0,0.0,0.0,0.0,0.0,0.0,0.0,0.0,0.0,0.0,0.0,0.0,0.0,0.0,0.0,0.0,0.0,0.0,0.0,0.0,0.0,0.0,0.0,0.0,0.0,0.0,0.0,0.0,0.0,0.0,0.0,0.0,0.0,0.0,0.0,0.0,0.0,0.0,0.0,0.0,0.0,0.0,0.0,0.0,0.0,0.0,0.0,0.0,0.0,0.0,0.0,0.0,0.0,0.0,0.0,0.0,0.0,0.0,0.0,0.0,0.0,0.0,0.0,0.0,0.0,0.0,0.0,0.0,0.0,0.0,0.0,0.0,-1.4094,0.0,-1.3919,-1.3759,-1.2474,-1.1629,0.0,0.0,0.0,0.0,0.0,0.0,0.0,0.0,0.0,0.0,0.0,0.0,0.0,0.0,0.0,0.0,0.0,0.0,0.0,0.0,0.0,0.0,0.0,0.0,0.0,0.0,0.0,0.0,0.0,0.0,0.0,0.0,0.0,0.0,0.0,0.0,0.0,0.0,0.0,0.0,0.0,0.0,0.0,0.0,0.0,0.0,0.0,0.0,0.0,0.0,0.0,0.0,0.0,0.0,0.0,0.0,0.0,0.0,0.0,0.0,0.0,0.0,0.0,0.0,0.0,0.0,0.0,0.0,0.0,0.0,0.0,0.0,0.0,0.0,0.0,0.0,0.0,0.0,0.0,0.0,0.0,0.0,0.0,0.0,0.0,0.0,0.0,0.0,0.0,0.0,0.0,0.0,0.0,0.0,0.0,0.0,0.0,0.0,0.0,0.0,0.0,0.0,0.0,0.0,0.0,0.0,0.0,0.0,-1.3968,-1.3959,-1.3883,-1.3833,-1.3624,-1.2838,-1.1994,0.0,0.0,0.0,0.0,0.0,0.0,0.0,0.0,0.0,0.0,0.0,0.0,0.0,0.0,0.0,0.0,0.0,0.0,0.0,0.0,0.0,0.0,0.0,0.0,0.0,0.0,0.0,0.0,0.0,0.0,0.0,0.0,0.0,0.0,0.0,0.0,0.0,0.0,0.0,0.0,0.0,0.0,0.0,0.0,0.0,0.0,0.0,0.0,0.0,0.0,0.0,0.0,0.0,0.0,0.0,0.0,0.0,0.0,0.0,0.0,0.0,0.0,0.0,0.0,0.0,0.0,0.0,0.0,0.0,0.0,0.0,0.0,0.0,0.0,0.0,0.0,0.0,0.0,0.0,0.0,0.0,0.0,0.0,0.0,0.0,0.0,0.0,0.0,0.0,0.0,0.0,0.0,0.0,0.0,0.0,0.0,0.0,0.0,0.0,0.0,0.0,0.0,0.0,0.0,0.0,0.0,0.0,0.0,0.0,-1.5746,-1.5717,-1.5619,-1.5422,-1.4269,-1.324,0.0,0.0,0.0,0.0,0.0,0.0,0.0,0.0,0.0,0.0,0.0,0.0,0.0,0.0,0.0,0.0,0.0,0.0,0.0,0.0,0.0,0.0,0.0,0.0,0.0,0.0,0.0,0.0,0.0,0.0,0.0,0.0,0.0,0.0,0.0,0.0,0.0,0.0,0.0,0.0,0.0,0.0,0.0,0.0,0.0,0.0,0.0,0.0,0.0,0.0,0.0,0.0,0.0,0.0,0.0,0.0,0.0,0.0,0.0,0.0,0.0,0.0,0.0,0.0,0.0,0.0,0.0,0.0,0.0,0.0,0.0,0.0,0.0,0.0,0.0,0.0,0.0,0.0,0.0,0.0,0.0,0.0,0.0,0.0,0.0,0.0,0.0,0.0,0.0,0.0,0.0,0.0,0.0,0.0,0.0,0.0,0.0,0.0,0.0,0.0,0.0,0.0,0.0,0.0,0.0,0.0,0.0,0.0,0.0,-1.8857,-1.8239,-1.7654,-1.7269,-1.6157,-1.4864,-1.3432,0.0,0.0,0.0,0.0,0.0,0.0,0.0,0.0,0.0,0.0,0.0,0.0,0.0,0.0,0.0,0.0,0.0,0.0,0.0,0.0,0.0,0.0,0.0,0.0,0.0,0.0,0.0,0.0,0.0,0.0,0.0,0.0,0.0,0.0,0.0,0.0,0.0,0.0,0.0,0.0,0.0,0.0,0.0,0.0,0.0,0.0,0.0,0.0,0.0,0.0,0.0,0.0,0.0,0.0,0.0,0.0,0.0,0.0,0.0,0.0,0.0,0.0,0.0,0.0,0.0,0.0,0.0,0.0,0.0,0.0,0.0,0.0,0.0,0.0,0.0,0.0,0.0,0.0,0.0,0.0,0.0,0.0,0.0,0.0,0.0,0.0,0.0,0.0,0.0,0.0,0.0,0.0,0.0,0.0,0.0,0.0,0.0,0.0,0.0,0.0,0.0,0.0,0.0,0.0,0.0,0.0,0.0,0.0,-2.2946,-2.1417,-2.0176,-1.9253,-1.8445,-1.676,0.0,0.0,0.0,0.0,0.0,0.0,0.0,0.0,0.0,0.0,0.0,0.0,0.0,0.0,0.0,0.0,0.0,0.0,0.0,0.0,0.0,0.0,0.0,0.0,0.0,0.0,0.0,0.0,0.0,0.0,0.0,0.0,0.0,0.0,0.0,0.0,0.0,0.0,0.0,0.0,0.0,0.0,0.0,0.0,0.0,0.0,0.0,0.0,0.0,0.0,0.0,0.0,0.0,0.0,0.0,0.0,0.0,0.0,0.0,0.0,0.0,0.0,0.0,0.0,0.0,0.0,0.0,0.0,0.0,0.0,0.0,0.0,0.0,0.0,0.0,0.0,0.0,0.0,0.0,0.0,0.0,0.0,0.0,0.0,0.0,0.0,0.0,0.0,0.0,0.0,0.0,0.0,0.0,0.0,0.0,0.0,0.0,0.0,0.0,0.0,0.0,0.0,0.0,0.0,0.0,0.0,0.0,0.0,0.0,-2.5308,-2.6733,-2.6081,-2.3192,-2.144,-1.9342,0.0,0.0,0.0,0.0,0.0,0.0,0.0,0.0,0.0,0.0,0.0,0.0,0.0,0.0,0.0,0.0,0.0,0.0,0.0,0.0,0.0,0.0,0.0,0.0,0.0,0.0,0.0,0.0,0.0,0.0,0.0,0.0,0.0,0.0,0.0,0.0,0.0,0.0,0.0,0.0,0.0,0.0,0.0,0.0,0.0,0.0,0.0,0.0,0.0,0.0,0.0,0.0,0.0,0.0,0.0,0.0,0.0,0.0,0.0,0.0,0.0,0.0,0.0,0.0,0.0,0.0,0.0,0.0,0.0,0.0,0.0,0.0,0.0,0.0,0.0,0.0,0.0,0.0,0.0,0.0,0.0,0.0,0.0,0.0,0.0,0.0,0.0,0.0,0.0,0.0,0.0,0.0,0.0,0.0,0.0,0.0,0.0,0.0,0.0,0.0,0.0,0.0,0.0,0.0,0.0,0.0,0.0,0.0,-2.451,-2.7313,-2.9594,-2.9742,-2.7646,-2.486,-2.1793,0.0,0.0,0.0,0.0,0.0,0.0,0.0,0.0,0.0,0.0,0.0,0.0,0.0,0.0,0.0,0.0,0.0,0.0,0.0,0.0,0.0,0.0,0.0,0.0,0.0,0.0,0.0,0.0,0.0,0.0,0.0,0.0,0.0,0.0,0.0,0.0,0.0,0.0,0.0,0.0,0.0,0.0,0.0,0.0,0.0,0.0,0.0,0.0,0.0,0.0,0.0,0.0,0.0,0.0,0.0,0.0,0.0,0.0,0.0,0.0,0.0,0.0,0.0,0.0,0.0,0.0,0.0,0.0,0.0,0.0,0.0,0.0,0.0,0.0,0.0,0.0,0.0,0.0,0.0,0.0,0.0,0.0,0.0,0.0,0.0,0.0,0.0,0.0,0.0,0.0,0.0,0.0,0.0,0.0,0.0,0.0,0.0,0.0,0.0,0.0,0.0,0.0,0.0,0.0,0.0,0.0,0.0,0.0,-2.572,-2.8902,-3.0812,-3.1746,-3.1625,-2.8107,-2.4128,0.0,0.0,0.0,0.0,0.0,0.0,0.0,0.0,0.0,0.0,0.0,0.0,0.0,0.0,0.0,0.0,0.0,0.0,0.0,0.0,0.0,0.0,0.0,0.0,0.0,0.0,0.0,0.0,0.0,0.0,0.0,0.0,0.0,0.0,0.0,0.0,0.0,0.0,0.0,0.0,0.0,0.0,0.0,0.0,0.0,0.0,0.0,0.0,0.0,0.0,0.0,0.0,0.0,0.0,0.0,0.0,0.0,0.0,0.0,0.0,0.0,0.0,0.0,0.0,0.0,0.0,0.0,0.0,0.0,0.0,0.0,0.0,0.0,0.0,0.0,0.0,0.0,0.0,0.0,0.0,0.0,0.0,0.0,0.0,0.0,0.0,0.0,0.0,0.0,0.0,0.0,0.0,0.0,0.0,0.0,0.0,0.0,0.0,0.0,0.0,0.0,0.0,0.0,0.0,0.0,0.0,0.0,0.0,-2.6243,-2.9956,-3.1634,-3.2279,-3.178,-2.8913,-2.575,0.0,0.0,0.0,0.0,0.0,0.0,0.0,0.0,0.0,0.0,0.0,0.0,0.0,0.0,0.0,0.0,0.0,0.0,0.0,0.0,0.0,0.0,0.0,0.0,0.0,0.0,0.0,0.0,0.0,0.0,0.0,0.0,0.0,0.0,0.0,0.0,0.0,0.0,0.0,0.0,0.0,0.0,0.0,0.0,0.0,0.0,0.0,0.0,-1.3022,0.0,0.0,0.0,0.0,0.0,0.0,0.0,0.0,0.0,0.0,0.0,0.0,0.0,0.0,0.0,0.0,0.0,0.0,0.0,0.0,0.0,0.0,0.0,0.0,0.0,0.0,0.0,0.0,0.0,0.0,0.0,0.0,0.0,0.0,0.0,0.0,0.0,0.0,0.0,0.0,0.0,0.0,0.0,0.0,0.0,0.0,0.0,0.0,0.0,0.0,0.0,0.0,0.0,0.0,0.0,0.0,0.0,0.0,0.0,-2.7237,-3.0366,-3.2057,-3.2535,-3.1809,-2.958,-2.6659,0.0,0.0,0.0,0.0,0.0,0.0,0.0,0.0,0.0,0.0,0.0,0.0,0.0,0.0,0.0,0.0,0.0,0.0,0.0,0.0,0.0,0.0,0.0,0.0,0.0,0.0,0.0,0.0,0.0,0.0,0.0,0.0,0.0,0.0,0.0,0.0,0.0,0.0,0.0,0.0,0.0,0.0,0.0,0.0,0.0,0.0,0.0,0.0,0.0,0.0,0.0,0.0,0.0,0.0,0.0,0.0,0.0,0.0,0.0,0.0,0.0,0.0,0.0,0.0,0.0,0.0,0.0,0.0,0.0,0.0,0.0,0.0,0.0,0.0,0.0,0.0,0.0,0.0,0.0,0.0,0.0,0.0,0.0,0.0,0.0,0.0,0.0,0.0,0.0,0.0,0.0,0.0,0.0,0.0,0.0,0.0,0.0,0.0,0.0,0.0,0.0,0.0,0.0,0.0,0.0,0.0,0.0,-2.511,-2.8065,-3.0359,-3.2008,-3.2468,-3.165,-2.9919,-2.7087,-2.3068,0.0,0.0,0.0,0.0,0.0,0.0,0.0,0.0,0.0,0.0,0.0,0.0,0.0,0.0,0.0,0.0,0.0,0.0,0.0,0.0,0.0,0.0,0.0,0.0,0.0,0.0,0.0,0.0,0.0,0.0,0.0,0.0,0.0,0.0,0.0,0.0,0.0,0.0,-1.2175,-1.2245,0.0,0.0,0.0,0.0,0.0,0.0,0.0,0.0,-1.4203,0.0,0.0,0.0,0.0,0.0,0.0,0.0,0.0,0.0,0.0,0.0,0.0,0.0,0.0,0.0,0.0,0.0,0.0,0.0,0.0,0.0,0.0,0.0,0.0,0.0,0.0,0.0,0.0,0.0,0.0,0.0,0.0,0.0,0.0,0.0,0.0,0.0,0.0,0.0,0.0,0.0,0.0,0.0,0.0,0.0,0.0,0.0,0.0,0.0,0.0,0.0,0.0,0.0,0.0,0.0,0.0,-2.2161,-2.5077,-2.7679,-2.9964,-3.1154,-3.1413,-3.0644,-2.9214,-2.6761,-2.3192,0.0,0.0,0.0,0.0,0.0,0.0,0.0,0.0,0.0,0.0,0.0,0.0,0.0,0.0,0.0,0.0,0.0,0.0,0.0,0.0,0.0,0.0,0.0,0.0,0.0,0.0,0.0,0.0,0.0,0.0,0.0,0.0,0.0,0.0,0.0,0.0,0.0,0.0,0.0,-1.3118,-1.3545,0.0,0.0,0.0,0.0,0.0,0.0,0.0,0.0,-1.4139,0.0,0.0,0.0,0.0,0.0,0.0,0.0,0.0,0.0,0.0,0.0,0.0,0.0,0.0,0.0,0.0,0.0,0.0,0.0,0.0,0.0,0.0,0.0,0.0,0.0,0.0,0.0,0.0,0.0,0.0,0.0,0.0,0.0,0.0,0.0,0.0,0.0,0.0,0.0,0.0,0.0,0.0,0.0,0.0,0.0,0.0,0.0,0.0,0.0,0.0,0.0,0.0,0.0,0.0,0.0,-2.2141,-2.5392,-2.7793,-2.9219,-3.0746,-3.0976,-2.9811,-2.8339,-2.6138,0.0,0.0,0.0,0.0,0.0,0.0,0.0,0.0,0.0,0.0,0.0,0.0,0.0,0.0,0.0,0.0,0.0,0.0,0.0,0.0,0.0,0.0,0.0,0.0,0.0,0.0,0.0,0.0,0.0,0.0,0.0,0.0,0.0,0.0,0.0,0.0,0.0,0.0,0.0,0.0,-1.3215,-1.3706,-1.3719,0.0,0.0,0.0,0.0,0.0,0.0,-1.5365,-1.5589,0.0,0.0,0.0,0.0,0.0,0.0,0.0,0.0,0.0,0.0,0.0,0.0,0.0,0.0,0.0,0.0,0.0,0.0,0.0,0.0,0.0,0.0,0.0,0.0,0.0,0.0,0.0,0.0,0.0,0.0,0.0,0.0,0.0,0.0,0.0,0.0,0.0,0.0,0.0,0.0,0.0,0.0,0.0,0.0,0.0,0.0,0.0,0.0,0.0,0.0,0.0,0.0,0.0,0.0,0.0,-2.2039,-2.5565,-2.7765,-2.8541,-3.0281,-3.055,-2.9071,-2.7542,-2.5481,0.0,0.0,0.0,0.0,0.0,0.0,0.0,0.0,0.0,0.0,0.0,0.0,0.0,0.0,0.0,0.0,0.0,0.0,0.0,0.0,0.0,0.0,0.0,0.0,0.0,0.0,0.0,0.0,0.0,0.0,0.0,0.0,0.0,0.0,0.0,0.0,0.0,0.0,0.0,0.0,0.0,-1.4113,-1.4126,-1.4228,0.0,0.0,0.0,0.0,-1.5883,-1.6699,0.0,0.0,0.0,0.0,0.0,0.0,0.0,0.0,0.0,0.0,0.0,0.0,0.0,0.0,0.0,0.0,0.0,0.0,0.0,0.0,0.0,0.0,0.0,0.0,0.0,0.0,0.0,0.0,0.0,0.0,0.0,0.0,0.0,0.0,0.0,0.0,0.0,0.0,0.0,0.0,0.0,0.0,0.0,0.0,0.0,0.0,0.0,0.0,0.0,0.0,0.0,0.0,0.0,0.0,0.0,0.0,-2.2271,-2.5074,-2.7051,-2.813,-2.9354,-2.9538,-2.8533,-2.6994,-2.4921,0.0,0.0,0.0,0.0,0.0,0.0,0.0,0.0,0.0,0.0,0.0,0.0,0.0,0.0,0.0,0.0,0.0,0.0,0.0,0.0,0.0,0.0,0.0,0.0,0.0,0.0,0.0,0.0,0.0,0.0,0.0,0.0,0.0,0.0,0.0,0.0,0.0,0.0,0.0,0.0,0.0,-1.5858,-1.5877,-1.6304,-1.6601,0.0,0.0,-1.6781,-1.7195,-1.7029,0.0,0.0,0.0,0.0,0.0,0.0,0.0,0.0,0.0,0.0,0.0,0.0,0.0,0.0,0.0,0.0,0.0,0.0,0.0,0.0,0.0,0.0,0.0,0.0,0.0,0.0,0.0,0.0,0.0,0.0,0.0,0.0,0.0,0.0,0.0,0.0,0.0,0.0,0.0,0.0,0.0,0.0,0.0,0.0,0.0,0.0,0.0,0.0,0.0,0.0,0.0,0.0,0.0,0.0,0.0,-2.002,-2.1963,-2.4477,-2.626,-2.7255,-2.8411,-2.8456,-2.7344,-2.5826,-2.3917,0.0,0.0,0.0,0.0,0.0,0.0,0.0,0.0,0.0,0.0,0.0,0.0,0.0,0.0,0.0,0.0,0.0,0.0,0.0,0.0,0.0,0.0,0.0,0.0,0.0,0.0,0.0,0.0,0.0,0.0,0.0,0.0,0.0,0.0,0.0,0.0,0.0,0.0,0.0,0.0,0.0,0.0,-1.579,-1.6258,0.0,0.0,0.0,-1.7408,-1.7597,0.0,0.0,0.0,0.0,0.0,0.0,0.0,0.0,0.0,0.0,0.0,0.0,0.0,0.0,0.0,0.0,0.0,0.0,0.0,0.0,0.0,0.0,0.0,0.0,0.0,0.0,0.0,0.0,0.0,0.0,0.0,0.0,0.0,0.0,0.0,0.0,0.0,0.0,0.0,0.0,0.0,0.0,0.0,0.0,0.0,0.0,0.0,0.0,0.0,0.0,0.0,0.0,0.0,0.0,0.0,0.0,0.0,-2.1533,-2.3763,-2.5446,-2.6466,-2.7582,-2.7657,-2.6533,-2.5019,0.0,0.0,0.0,0.0,0.0,0.0,0.0,0.0,0.0,0.0,0.0,0.0,0.0,0.0,0.0,0.0,0.0,0.0,0.0,0.0,0.0,0.0,0.0,0.0,0.0,0.0,0.0,-1.3459,0.0,0.0,0.0,0.0,0.0,0.0,0.0,0.0,0.0,0.0,0.0,0.0,0.0,0.0,-1.5751,-1.5813,-1.6245,-1.6572,0.0,0.0,-1.7784,-1.7737,-1.811,-1.8221,0.0,0.0,0.0,0.0,0.0,0.0,0.0,0.0,0.0,0.0,0.0,0.0,0.0,0.0,0.0,0.0,0.0,0.0,0.0,0.0,0.0,0.0,0.0,0.0,0.0,0.0,0.0,0.0,0.0,0.0,0.0,0.0,0.0,0.0,0.0,0.0,0.0,0.0,0.0,0.0,0.0,0.0,0.0,0.0,0.0,0.0,0.0,0.0,0.0,0.0,0.0,0.0,0.0,0.0,0.0,-2.1046,-2.306,-2.478,-2.6089,-2.7121,-2.7278,-2.6499,-2.4994,-2.3132,0.0,0.0,0.0,0.0,0.0,0.0,0.0,0.0,0.0,0.0,0.0,0.0,0.0,0.0,0.0,0.0,0.0,0.0,0.0,0.0,0.0,0.0,0.0,0.0,0.0,0.0,0.0,0.0,0.0,0.0,0.0,0.0,0.0,0.0,0.0,0.0,0.0,0.0,0.0,0.0,0.0,-1.6163,-1.6655,-1.7063,-1.7315,0.0,0.0,-1.7961,-1.7874,-1.8074,-1.7861,-1.6851,0.0,0.0,0.0,0.0,0.0,0.0,0.0,0.0,0.0,0.0,0.0,0.0,0.0,0.0,0.0,0.0,0.0,0.0,0.0,0.0,0.0,0.0,0.0,0.0,0.0,0.0,0.0,0.0,0.0,0.0,0.0,0.0,0.0,0.0,0.0,0.0,0.0,0.0,0.0,0.0,0.0,0.0,0.0,0.0,0.0,0.0,0.0,0.0,0.0,0.0,0.0,0.0,0.0,-1.9403,-2.0749,-2.2672,-2.4208,-2.5408,-2.6418,-2.6442,-2.546,-2.4186,-2.251,0.0,0.0,0.0,0.0,0.0,0.0,0.0,0.0,0.0,0.0,0.0,0.0,0.0,0.0,0.0,0.0,0.0,0.0,0.0,0.0,0.0,0.0,0.0,0.0,0.0,0.0,0.0,0.0,-1.4328,-1.4594,-1.4669,0.0,0.0,0.0,0.0,0.0,0.0,0.0,0.0,0.0,0.0,-1.5928,-1.6434,-1.6833,0.0,0.0,-1.7545,-1.7841,-1.7886,-1.7974,-1.7904,-1.7523,-1.667,0.0,0.0,0.0,0.0,0.0,0.0,0.0,0.0,0.0,0.0,0.0,0.0,0.0,0.0,0.0,0.0,0.0,0.0,0.0,0.0,0.0,0.0,0.0,0.0,0.0,0.0,0.0,0.0,0.0,0.0,0.0,0.0,0.0,0.0,0.0,0.0,0.0,0.0,0.0,0.0,0.0,0.0,0.0,0.0,0.0,0.0,0.0,0.0,0.0,0.0,0.0,0.0,-1.9413,-2.0656,-2.2407,-2.3856,-2.4936,-2.5954,-2.5937,-2.4825,-2.3697,-2.2171,0.0,0.0,0.0,0.0,0.0,0.0,0.0,0.0,0.0,0.0,0.0,0.0,0.0,0.0,0.0,0.0,0.0,0.0,0.0,0.0,0.0,0.0,0.0,0.0,0.0,0.0,0.0,0.0,-1.471,-1.4966,-1.5088,0.0,0.0,0.0,0.0,0.0,0.0,0.0,0.0,0.0,0.0,-1.5963,-1.6439,-1.6736,-1.6905,-1.6973,-1.7371,-1.7679,-1.7631,-1.7804,-1.787,-1.7591,0.0,0.0,0.0,0.0,0.0,0.0,0.0,0.0,0.0,0.0,0.0,0.0,0.0,0.0,0.0,0.0,0.0,0.0,0.0,0.0,0.0,0.0,0.0,0.0,0.0,0.0,0.0,0.0,0.0,0.0,-1.699,0.0,0.0,0.0,0.0,0.0,0.0,0.0,0.0,0.0,0.0,0.0,0.0,0.0,0.0,0.0,0.0,0.0,0.0,0.0,0.0,0.0,0.0,-1.9278,-2.08,-2.2355,-2.3703,-2.4808,-2.5921,-2.5971,-2.4825,-2.3697,-2.2347,-2.0691,0.0,0.0,0.0,0.0,0.0,0.0,0.0,0.0,0.0,0.0,0.0,0.0,0.0,0.0,0.0,0.0,0.0,0.0,0.0,0.0,0.0,0.0,0.0,0.0,0.0,0.0,-1.4904,-1.4966,-1.5059,0.0,0.0,0.0,0.0,0.0,0.0,0.0,0.0,0.0,0.0,-1.6124,-1.6465,-1.6907,-1.6926,-1.691,-1.691,-1.7371,-1.7551,-1.7118,-1.7566,-1.7669,0.0,0.0,0.0,0.0,0.0,0.0,0.0,0.0,0.0,0.0,0.0,0.0,0.0,0.0,0.0,0.0,0.0,0.0,0.0,0.0,0.0,0.0,0.0,0.0,0.0,0.0,0.0,-2.23,-2.1692,0.0,0.0,0.0,0.0,0.0,0.0,0.0,0.0,0.0,0.0,0.0,-2.4637,-2.4575,0.0,0.0,0.0,0.0,0.0,0.0,0.0,0.0,0.0,0.0,0.0,0.0,-2.0118,-2.1407,-2.2934,-2.4199,-2.531,-2.6122,-2.5937,-2.4825,-2.4104,-2.2397,-1.966,0.0,0.0,0.0,0.0,0.0,0.0,0.0,0.0,0.0,0.0,0.0,0.0,0.0,0.0,0.0,0.0,0.0,0.0,0.0,0.0,0.0,0.0,0.0,0.0,0.0,-1.5611,0.0,0.0,0.0,0.0,0.0,0.0,0.0,0.0,0.0,0.0,0.0,-1.5837,-1.6239,-1.6271,-1.643,-1.6938,-1.6926,-1.6905,0.0,0.0,0.0,0.0,0.0,0.0,0.0,0.0,0.0,0.0,0.0,0.0,0.0,0.0,-1.6091,-1.5425,-1.5309,-1.531,-1.5306,0.0,0.0,0.0,0.0,0.0,0.0,0.0,0.0,0.0,0.0,0.0,0.0,0.0,0.0,0.0,0.0,-2.4041,0.0,0.0,0.0,0.0,0.0,0.0,0.0,0.0,-2.6228,-2.7232,-2.7592,-2.7511,-2.7173,0.0,-2.5619,-2.3921,0.0,0.0,0.0,0.0,0.0,0.0,0.0,0.0,-2.09,-2.2157,-2.3382,-2.4531,-2.5561,-2.6197,-2.5971,-2.4825,-2.3703,-2.192,-1.9384,-1.8055,-1.6948,0.0,0.0,0.0,0.0,0.0,0.0,0.0,0.0,0.0,0.0,0.0,0.0,0.0,0.0,0.0,0.0,0.0,0.0,0.0,0.0,0.0,0.0,0.0,-1.6123,0.0,0.0,0.0,0.0,0.0,0.0,0.0,0.0,0.0,-1.5799,-1.5992,-1.6281,-1.6461,-1.6539,-1.6705,-1.7021,0.0,0.0,0.0,0.0,0.0,0.0,0.0,-1.7792,-1.807,-1.7904,-1.7822,-1.8118,-1.7863,-1.7583,-1.7583,0.0,0.0,-1.6304,-1.6133,-1.6127,-1.6203,-1.6628,-1.7067,-1.7273,-1.779,-1.818,0.0,0.0,0.0,0.0,0.0,0.0,0.0,0.0,-2.9859,-2.9706,0.0,-2.7591,0.0,0.0,0.0,0.0,0.0,-2.4784,0.0,0.0,-2.9302,-3.0298,-3.0683,-3.0658,-3.0382,-2.9779,-2.8209,-2.6801,-2.5511,-2.2975,0.0,0.0,0.0,0.0,0.0,0.0,-2.1652,-2.312,-2.3778,-2.4556,-2.5611,-2.6197,-2.5937,-2.4775,-2.2673,-2.0991,-1.9886,-1.9259,-1.823,-1.6651,-1.6572,0.0,0.0,0.0,0.0,0.0,0.0,0.0,0.0,0.0,0.0,0.0,0.0,0.0,0.0,0.0,0.0,0.0,0.0,0.0,0.0,-1.6469,0.0,0.0,0.0,0.0,0.0,0.0,0.0,0.0,0.0,0.0,-1.6491,-1.6642,-1.6743,-1.6566,0.0,0.0,0.0,0.0,-1.7225,-1.7225,-1.7251,-1.7319,-1.7429,-1.7898,-1.8175,-1.807,0.0,0.0,-1.8608,-1.8535,-1.8535,-1.8535,-1.8535,-1.8201,-1.7213,-1.7003,-1.7111,-1.7609,-1.8124,-1.8714,-1.93,-1.9735,-2.0118,-3.5835,0.0,0.0,0.0,0.0,-3.1786,-3.2316,-3.2625,-3.3479,-3.3131,-3.1873,-3.1388,0.0,0.0,0.0,0.0,0.0,0.0,-2.8608,-2.9767,-3.1442,-3.2483,-3.2943,-3.2566,-3.2064,-3.1486,-3.0256,-2.8875,-2.7394,-2.659,-2.4757,-2.2049,0.0,0.0,0.0,0.0,-2.3507,-2.4274,-2.4858,-2.5485,-2.6223,-2.6399,-2.5971,-2.48,-2.2648,-2.1169,-2.0465,-1.951,-1.8607,-1.7754,-1.7704,0.0,0.0,0.0,0.0,0.0,0.0,0.0,0.0,0.0,0.0,0.0,0.0,0.0,0.0,0.0,0.0,0.0,0.0,0.0,-1.6682,-1.6894,-1.7098,0.0,0.0,0.0,0.0,0.0,0.0,0.0,0.0,0.0,-1.7943,-1.7545,-1.7229,0.0,0.0,-1.7199,-1.7199,-1.7565,-1.7804,-1.7718,0.0,0.0,0.0,-1.8445,-1.8682,-1.9074,-1.9448,-1.9634,-1.9459,-1.9409,-1.9434,-1.9434,-1.9434,-1.9283,-1.903,-1.8416,-1.8185,-1.8575,-1.9081,-1.9611,-2.0191,-2.0747,-2.1125,-4.0553,-3.6546,-3.5223,-3.461,-3.4584,-3.539,-3.5831,-3.6117,-3.6763,-3.6337,-3.5138,-3.4717,-3.3292,-3.1139,-3.01,0.0,0.0,0.0,-3.114,-3.1989,-3.3395,-3.4223,-3.45,-3.3972,-3.3545,-3.3144,-3.1863,-3.0507,-2.9101,-2.8875,-2.7544,-2.5126,0.0,0.0,-2.3797,-2.4356,-2.4782,-2.5134,-2.5661,-2.6147,-2.6474,-2.6072,-2.5511,-2.4775,-2.2648,-2.137,-2.1018,-1.9911,-1.9058,-1.8555,-1.8506,-1.8105,0.0,0.0,0.0,0.0,0.0,0.0,0.0,0.0,0.0,0.0,0.0,-1.593,0.0,0.0,0.0,0.0,-1.6889,-1.7072,-1.701,-1.7679,0.0,0.0,0.0,0.0,0.0,0.0,0.0,-1.8317,-1.846,-1.859,-1.8658,-1.8262,-1.7943,-1.7813,-1.7791,-1.777,-1.7726,0.0,-1.8225,-1.818,-1.8487,-1.8742,-1.8624,-1.8827,-1.9138,-1.9681,-1.9864,-1.9888,-1.9837,-1.9811,-1.9811,-1.9811,-1.9811,-1.9811,-1.9811,-1.9333,-1.9005,-1.9284,-1.9936,-2.0589,-2.0968,-2.1594,-2.2146,-4.4217,-4.2961,-4.0427,-3.8693,-3.7688,-3.8693,-3.9145,-3.912,-3.9597,-3.9195,-3.8115,-3.7613,-3.6182,-3.4073,-3.2516,0.0,-3.2491,-3.3093,-3.3614,-3.4073,-3.5082,-3.5533,-3.5458,-3.4931,-3.47,-3.458,-3.3043,-3.1763,-3.0758,-3.0181,-2.9377,-2.8273,-2.6666,-2.5611,-2.5134,-2.5561,-2.5787,-2.5812,-2.6298,-2.6549,-2.6474,-2.5385,-2.48,-2.4775,-2.2648,-2.1493,-2.1443,-2.0413,-1.9585,-1.9108,-1.9058,-1.8807,-1.8279,0.0,0.0,0.0,0.0,0.0,0.0,0.0,0.0,0.0,0.0,0.0,0.0,0.0,0.0,0.0,-1.7723,0.0,-1.7382,-1.867,0.0,0.0,0.0,-1.9197,-1.9176,-1.9072,-1.9102,-1.9427,0.0,0.0,-1.8907,0.0,-1.8823,-1.8799,-1.8745,-1.8647,-1.8508,-1.8533,-1.8561,-1.8561,-1.8612,-1.8637,-1.8716,-1.9071,-1.9531,-1.9889,-1.9862,-1.9811,-1.9811,-1.9811,-1.9811,-1.9811,-1.9811,-1.9811,-1.9811,-1.9761,-1.9811,-1.9761,-2.0641,-2.1393,-2.1568,-2.2272,-2.2895,-4.625,-4.4819,-4.3714,-4.2384,-4.1056,-4.1307,-4.1128,-4.0777,-4.0849,-4.0325,-3.927,-3.9145,-3.809,-3.6358,-3.56,-3.5027,-3.4756,-3.5328,-3.5429,-3.5157,-3.5855,-3.5956,-3.5483,-3.4931,-3.45,-3.4048,-3.3269,-3.2516,-3.1838,-3.1286,-3.0683,-2.998,-2.8712,-2.7871,-2.7344,-2.7444,-2.7519,-2.7519,-2.7218,-2.6927,-2.6474,-2.5385,-2.48,-2.4775,-2.2673,-2.1493,-2.1468,-2.0413,-1.9736,-1.9635,-1.961,-1.9384,-1.8832,-1.8059,0.0,0.0,0.0,0.0,0.0,0.0,0.0,0.0,0.0,-1.6427,-1.7297,0.0,-1.7631,0.0,-1.8287,-1.8435,-1.849,-1.879,0.0,0.0,-1.9105,-1.9164,-1.9048,-1.9026,-1.9012,-1.9012,-1.9316,-1.9532,-1.9437,-1.9677,-1.9811,-1.9711,-1.902,-1.8531,-1.8508,-1.8915,-1.9147,-1.9075,-1.9357,-1.9611,-1.9485,-1.9586,-1.9712,-1.9837,-1.9811,-1.9811,-1.9811,-1.9811,-1.9811,-1.9811,-1.9811,-1.9811,-1.9811,-1.9811,-1.9811,-1.9836,-2.0415,-2.1169,-2.192,-2.2293,-2.2594,-4.6954,-4.5472,-4.5146,-4.4192,-4.2861,-4.269,-4.2359,-4.2057,-4.1806,-4.1229,-4.0375,-3.9647,-3.8818,-3.7889,-3.7134,-3.6558,-3.6282,-3.638,-3.6229,-3.5931,-3.6254,-3.6207,-3.5881,-3.5102,-3.455,-3.4248,-3.3445,-3.2767,-3.2215,-3.1913,-3.1361,-3.0568,-2.998,-2.9364,-2.885,-2.8348,-2.7971,-2.7745,-2.7228,-2.6801,-2.6474,-2.5385,-2.4707,-2.4406,-2.2523,-2.1395,-2.1144,-2.0263,-1.9811,-1.9811,-1.9811,-1.9635,-1.9283,-1.8635,-1.8141,0.0,0.0,0.0,0.0,0.0,0.0,0.0,0.0,0.0,0.0,0.0,-1.7943,0.0,-1.8896,-1.922,-1.9059,-1.9776,-2.0212,-2.0098,-2.0334,-2.0361,-2.0051,-1.9976,-1.9775,-1.9421,-1.9629,-1.9759,-1.971,-1.9864,-1.9991,-1.9914,-1.9434,-1.9078,-1.9104,-1.9407,-1.956,-1.951,-1.9737,-1.9888,-1.9811,-1.9811,-1.9811,-1.9811,-1.9811,-1.9811,-1.9811,-1.9811,-1.9811,-1.9811,-1.9811,-1.9811,-1.9811,-1.9811,-1.9811,-1.9836,-2.0062,-2.0589,-2.1393,-2.1769,-2.2067,-4.6903,-4.5472,-4.5321,-4.4694,-4.374,-4.3137,-4.2886,-4.2836,-4.2414,-4.1806,-4.11,-3.9647,-3.8969,-3.8944,-3.7864,-3.7362,-3.7262,-3.6757,-3.648,-3.6405,-3.6405,-3.638,-3.6254,-3.5278,-3.4751,-3.4575,-3.3646,-3.2867,-3.234,-3.224,-3.1738,-3.0834,-3.0683,-3.0382,-2.988,-2.8775,-2.7946,-2.7394,-2.6952,-2.665,-2.6474,-2.5385,-2.4556,-2.3979,-2.2372,-2.1245,-2.0717,-2.0138,-1.9811,-1.9811,-1.9811,-1.9734,-1.9604,-1.8955,-1.8458,0.0,-1.7452,0.0,0.0,0.0,0.0,0.0,0.0,0.0,0.0,-1.7556,-1.8043,-1.8384,-1.9535,-2.0042,-1.956,-2.1039,-2.1814,-2.1325,-2.1711,-2.1814,-2.1274,-2.1117,-2.0781,-2.0041,-1.999,-1.9914,-1.9811,-1.9811,-1.9811,-1.9837,-1.9786,-1.9711,-1.9761,-1.9786,-1.9786,-1.9811,-1.9811,-1.9811,-1.9811,-1.9811,-1.9811,-1.9811,-1.9811,-1.9811,-1.9811,-1.9811,-1.9811,-1.9811,-1.9811,-1.9811,-1.9811,-1.9811,-1.9811,-1.9811,-1.9836,-2.0037,-2.0641,-2.1119,-2.1543,-4.6577,-4.5422,-4.4493,-4.3991,-4.3714,-4.2791,-4.2363,-4.2338,-4.2263,-4.1605,-4.0626,-3.9873,-3.9546,-3.9496,-3.8843,-3.8291,-3.7839,-3.7287,-3.6832,-3.6405,-3.6405,-3.6132,-3.5658,-3.5433,-3.4881,-3.4073,-3.3847,-3.347,-3.2918,-3.2441,-3.2072,-3.1888,-3.106,-3.0557,-3.0407,0.0,0.0,0.0,-2.7846,-2.7404,-2.6499,-2.5385,-2.4525,-2.3979,-2.2372,0.0,-2.0717,-2.0112,-1.9811,-1.9811,-1.9811,0.0,0.0,0.0,0.0,0.0,0.0,0.0,0.0,0.0,0.0,0.0,-1.6184,-1.6751,-1.7363,-1.8322,-1.9221,-1.9978,-2.0388,-2.0773,-2.1208,-2.143,-2.161,-2.1619,-2.1612,-2.1378,-2.0901,-2.0799,-2.0518,-1.9912,-1.9837,-1.9837,-1.9811,-1.9811,-1.9811,-1.9811,-1.9811,-1.9811,-1.9811,-1.9811,-1.9811,-1.9811,-1.9811,-1.9811,-1.9811,-1.9786,-1.9736,-1.9811,-1.9811,-1.9761,-1.971,-1.9761,-1.9786,-1.9786,-1.9811,-1.9786,-1.9811,-1.9811,-1.9786,-1.9786,-1.9786,-1.9987,-2.0566,-2.0767,-2.0991,-4.6326,0.0,-4.4141,-4.3489,0.0,-4.2439,-4.1886,-4.1354,-4.1354,-4.0877,-4.0099,-3.9823,-3.9697,-3.9647,-3.8818,-3.8291,-3.7965,-3.7161,-3.6681,-3.6405,-3.6405,-3.6232,-3.5931,-3.5633,-3.5056,-3.4299,-3.4022,-3.3621,-3.3093,-3.2767,-3.2491,-3.2215,-3.1662,-3.1135,-3.0608,-2.9779,-2.895,-2.8122,-2.7846,-2.7419,-2.6876,-2.5511,-2.4525,-2.3979,0.0,0.0,0.0,0.0,0.0,0.0,0.0,0.0,0.0,0.0,0.0,-1.8551,-1.789,-1.7436,-1.7191,-1.6857,-1.6617,-1.6418,-1.7076,-1.7566,-1.7798,-1.8857,-1.9724,-2.0289,-2.1004,-2.1622,-2.1983,-2.2175,-2.2326,-2.2383,-2.2326,-2.2096,-2.1568,-2.127,-2.0893,-2.0339,-1.9987,-1.9811,-1.9811,-1.9811,-1.9811,-1.9811,-1.9811,-1.9811,-1.9811,-1.9811,-1.9811,-1.9811,-1.9811,-1.966,-1.9383,-1.9308,-1.9158,-1.8908,-1.8784,-1.8809,-1.8759,-1.8859,-1.9008,-1.9208,-1.9359,-1.9459,-1.9736,-1.9811,-1.971,-1.9535,-1.961,-1.9761,-1.9911,-2.0088,-2.0387,-4.599,-4.4593,-4.4016,-4.3162,-4.2213,-4.2087,-4.1379,-4.0375,0.0,0.0,0.0,-3.9697,-3.9697,-3.9622,-3.8617,-3.8165,-3.809,-3.701,-3.6556,-3.6556,-3.6455,-3.6405,-3.638,-3.5881,-3.5357,-3.4806,-3.4324,-3.3771,-3.3244,-3.3119,-3.2842,-3.239,-3.2265,-3.1662,-3.0658,-3.0156,-2.9428,-2.8423,-2.7871,-2.7469,-2.7268,-2.5862,-2.4757,-2.4029,-2.2573,-2.1468,-2.0867,-2.0363,-2.0087,-2.0087,-2.0087,-2.0007,-1.9768,-1.9611,-1.9483,-1.9333,-1.8983,-1.8702,-1.8555,-1.8037,-1.7704,-1.7696,-1.8371,-1.8657,-1.8354,-1.9325,-2.0128,-2.0502,-2.1624,-2.2347,-2.2418,-2.2819,-2.3095,-2.3095,-2.3095,-2.2869,-2.2343,-2.192,-2.1393,-2.0792,-2.0263,-1.9911,-1.9811,-1.9811,-1.9811,-1.9811,-1.9811,-1.9811,-1.9811,-1.9811,-1.9811,-1.9811,-1.9785,-1.9533,-1.8983,-1.8759,-1.8437,-1.7849,-1.7727,-1.7654,-1.7654,-1.7774,-1.8091,-1.8536,-1.8734,-1.8958,-1.9359,-1.9409,-1.9359,-1.8933,-1.9183,-1.9359,-1.9008,-1.9258,-1.9759,-4.5723,-4.4568,-4.4016,-4.3162,-4.2187,-4.1656,-4.0827,-3.9823,-3.9823,-3.9772,-3.9697,-3.9697,-3.9697,-3.9647,-3.9044,-3.8793,-3.8668,-3.7588,-3.7061,0.0,-3.6631,-3.6405,-3.6405,-3.6329,-3.5956,-3.5382,-3.4851,-3.4324,-3.3796,-3.3319,-3.3043,-3.2918,-3.2466,-3.1687,-3.0668,-3.0532,-3.0181,-2.9553,-2.9001,-2.8222,-2.7293,-2.6625,-2.5544,-2.4054,-2.3271,-2.2393,-2.1446,-2.132,-2.127,-2.1242,-2.1267,-2.1184,-2.1045,-2.0884,-2.0653,-2.0237,-1.9802,-1.9297,-1.8745,-1.8663,-1.8769,-1.9163,-1.9569,-1.965,-1.93,-2.0125,-2.0978,-2.1733,-2.2131,-2.2498,-2.292,-2.3045,-2.3095,-2.3095,-2.3095,-2.2869,-2.2368,-2.2246,-2.1794,-2.0867,-2.0641,-2.0339,-1.9886,-1.9811,-1.9811,-1.9811,-1.9811,-1.9811,-1.9811,-1.9811,-1.9811,-1.9811,-1.9708,-1.938,-1.8758,-1.8509,-1.8017,-1.7483,-1.717,-1.7074,-1.7122,-1.7291,-1.7484,-1.78,-1.7993,-1.8163,-1.8311,-1.8358,-1.8407,-1.8307,-1.8407,-1.8407,-1.8236,-1.8635,-1.9107,-4.5924,-4.4618,-4.4041,-4.2986,-4.1656,-4.0802,-4.0149,-3.9697,-3.9697,-3.9697,-3.9697,-3.9697,-3.9697,-3.9647,-3.912,-3.8919,-3.8894,-3.8015,-3.7462,-3.7209,-3.6935,-3.6707,-3.643,-3.6405,-3.6081,-3.5508,-3.5257,-3.4831,-3.4349,-3.3796,-3.352,-3.347,-3.2641,-3.1813,-3.1085,-3.0758,-3.0331,-2.9804,-2.9227,-2.8487,-2.7745,-2.6927,-2.5996,-2.4883,-2.3753,-2.2869,-2.2368,-2.182,-2.1493,-2.1493,-2.1493,-2.1437,-2.1297,-2.1241,-2.1166,-2.1054,-2.0671,-2.037,-2.0166,-1.9786,-1.9659,-1.986,-2.0352,-2.0718,-2.0884,-2.1169,-2.1588,-2.2089,-2.2455,-2.2844,-2.307,-2.3095,-2.3095,-2.3095,-2.3095,-2.2995,-2.2744,-2.2472,-2.1995,-2.127,-2.0867,-2.0465,-1.9861,-1.9811,-1.9811,-1.9811,-1.9811,-1.9811,-1.9811,-1.9734,-1.9708,-1.9682,-1.9603,-1.9027,-1.8165,-1.7723,-1.7093,-1.6053,-1.5844,-1.5774,-1.5773,-1.5962,-1.6362,-1.6741,-1.705,-1.736,-1.77,-1.7918,-1.7842,-1.7523,-1.7793,-1.7868,-1.7896,-1.8412,-1.9049,-4.599,-4.4593,-4.4166,-4.2961,-4.12,-4.0149,-3.9697,-3.9697,-3.9697,-3.9697,-3.9697,-3.9697,-3.9697,-3.9647,-3.9245,-3.9069,-3.8969,-3.8467,-3.7889,-3.7387,-3.7236,-3.6933,-3.6455,-3.6405,-3.6132,-3.5708,-3.5583,-3.5282,-3.4831,-3.4349,-3.4022,-3.3822,-3.2893,-3.2064,-3.1386,-3.0984,-3.0457,-2.9804,-2.9352,-2.885,-2.8298,-2.7318,-2.6524,-2.5737,-2.4299,-2.3421,-2.3271,-2.2397,-2.1845,-2.187,-2.187,-2.1813,-2.1699,-2.1699,-2.1753,-2.1858,-2.1638,-2.1504,-2.1549,-2.0997,-2.0663,-2.0765,-2.1248,-2.1788,-2.2233,-2.2233,-2.2233,-2.2371,-2.2785,-2.3095,-2.3095,-2.3095,-2.3095,-2.3095,-2.3095,-2.3095,-2.3045,-2.2719,-2.2192,-2.1594,-2.1119,-2.0614,-2.0012,-1.9811,-1.9811,-1.9811,-1.9811,-1.9811,-1.9759,-1.963,-1.9526,-1.9396,-1.9316,-1.8766,-1.7548,-1.6942,-1.6179,-1.4821,-1.4554,-1.453,-1.4462,-1.4672,-1.5039,-1.5613,-1.6009,-1.6407,-1.7002,-1.7193,-1.7022,-1.666,-1.69,-1.7216,-1.7291,-1.7774,-1.8668,-4.5698,-4.4694,-4.4518,-4.3256,-4.1225,-4.0149,-3.9697,-3.9697,-3.9697,-3.9697,-3.9697,-3.9697,-3.9697,-3.9697,-3.9622,-3.9597,-3.9546,-3.9044,-3.8467,-3.7914,-3.7412,-3.6933,-3.648,-3.6405,-3.638,-3.6207,-3.5805,-3.5508,-3.5408,-3.4856,-3.4374,-3.3897,-3.3294,-3.2441,-3.1512,-3.1336,-3.0809,-2.9829,-2.9754,-2.9428,-2.8813,-2.8273,-2.7444,-2.6424,-2.5285,-2.4399,-2.3954,-2.3271,-2.2945,-2.2945,-2.292,-2.2945,-2.289,-2.2915,-2.288,-2.2749,-2.2622,-2.2457,-2.2142,-2.2056,-2.2084,-2.2421,-2.2578,-2.2749,-2.2935,-2.299,-2.299,-2.299,-2.304,-2.3095,-2.3095,-2.3095,-2.3095,-2.3095,-2.3095,-2.3095,-2.3095,-2.307,-2.2619,-2.1594,-2.1418,-2.1016,-2.0087,-1.9836,-1.9811,-1.9811,-1.9811,-1.9759,-1.9656,-1.95,-1.9263,-1.8972,-1.8839,-1.8416,-1.7488,-1.6567,-1.5697,-1.4803,-1.411,-1.3852,-1.3881,-1.4069,-1.4393,-1.4668,-1.497,-1.5383,-1.5566,-1.5654,-1.5837,-1.5863,-1.5911,-1.6028,-1.6291,-1.6644,-1.7306,-4.5648,-4.451,-4.3915,-4.2585,-4.0852,-4.0023,-3.9697,-3.9697,-3.9697,-3.9697,-3.9697,-3.9697,-3.9697,-3.9697,-3.9697,-3.9697,-3.9672,-3.9446,-3.9044,-3.8492,-3.7939,-3.7387,-3.6908,-3.6556,-3.6405,-3.6405,-3.6132,-3.6006,-3.5881,-3.5152,-3.4449,-3.3897,-3.3345,-3.2667,-3.1888,-3.1562,-3.1009,-3.0306,-2.9955,-2.9679,-2.9402,-2.8875,-2.8072,-2.7052,-2.6223,-2.536,-2.4531,-2.3929,-2.3446,-2.3145,-2.3095,-2.3095,-2.3095,-2.3095,-2.3065,-2.3005,-2.2909,-2.2726,-2.2506,-2.2506,-2.2598,-2.2787,-2.2878,-2.2969,-2.3065,-2.3095,-2.3095,-2.3095,-2.3095,-2.3095,-2.3095,-2.3095,-2.3095,-2.3095,-2.3095,-2.3095,-2.3095,-2.3095,-2.2769,-2.2071,-2.1694,-2.1245,-2.0464,-2.0012,-1.9836,-1.9811,-1.9811,-1.9734,-1.9604,-1.9396,-1.9054,-1.8575,-1.8247,-1.772,-1.6975,-1.6094,-1.5228,-1.4412,-1.374,-1.3406,-1.3426,-1.3573,-1.3766,-1.3905,-1.4303,-1.4628,-1.4902,-1.504,-1.5198,-1.5177,-1.5588,-1.5884,-1.596,-1.6677,-1.7545,-4.5522,-4.4468,-4.3137,-4.1756,-4.0501,-3.9923,-3.9697,-3.9697,-3.9697,-3.9697,-3.9697,-3.9697,-3.9697,-3.9697,-3.9697,-3.9697,-3.9697,-3.9697,-3.9396,-3.8868,-3.8442,-3.7864,-3.7186,-3.6784,-3.6556,-3.643,-3.6405,-3.6405,-3.6279,-3.5253,-3.45,-3.4073,-3.342,-3.2792,-3.2215,-3.1662,-3.1135,-3.0608,-3.008,-2.9779,-2.9729,-2.9377,-2.8699,-2.777,-2.6927,-2.6122,-2.531,-2.4607,-2.3954,-2.3371,-2.3346,-2.3271,-2.312,-2.3095,-2.3095,-2.3095,-2.303,-2.2909,-2.2842,-2.2787,-2.2848,-2.2939,-2.2969,-2.3,-2.309,-2.3095,-2.3095,-2.3095,-2.3095,-2.3095,-2.3095,-2.3095,-2.3095,-2.3095,-2.3095,-2.3095,-2.3095,-2.3095,-2.2895,-2.2372,-2.197,-2.1471,-2.0792,-2.0189,-1.9811,-1.9811,-1.9811,-1.9734,-1.9526,-1.9265,-1.8869,-1.8278,-1.77,-1.7153,-1.6564,-1.5685,-1.4805,-1.418,-1.3606,-1.3138,-1.3041,-1.3214,-1.3334,-1.3546,-1.381,-1.4069,-1.4303,-1.4512,-1.4674,-1.4668,-1.4991,-1.5477,-1.5383,-1.6449,-1.7058,-4.5171,-4.4317,-4.2308,-4.105,-4.0475,-3.9923,-3.9697,-3.9697,-3.9697,-3.9697,-3.9697,-3.9697,-3.9697,-3.9697,-3.9697,-3.9697,-3.9697,-3.9697,-3.9421,-3.8944,-3.8818,-3.8241,-3.7236,-3.7184,-3.6908,-3.6505,-3.643,-3.6405,-3.6355,-3.5278,-3.4726,-3.458,-3.3646,-3.2817,-3.2265,-3.1687,-3.1135,-3.0658,-3.0105,-2.9779,-2.9779,-2.9754,-2.9428,-2.875,-2.7344,-2.6549,-2.6273,-2.536,-2.4556,-2.3979,-2.3954,-2.3697,-2.3221,-2.3145,-2.317,-2.3145,-2.3115,-2.312,-2.309,-2.306,-2.3065,-2.3065,-2.309,-2.3095,-2.3095,-2.3095,-2.3095,-2.3095,-2.3095,-2.3095,-2.3095,-2.3095,-2.3095,-2.3095,-2.3095,-2.3095,-2.3095,-2.3095,-2.2844,-2.2443,-2.2221,-2.1694,-2.0817,-2.0189,-1.9861,-1.9811,-1.9811,-1.9708,-1.9447,-1.9078,-1.8625,-1.8007,-1.7396,-1.6779,-1.6511,-1.5622,-1.4787,-1.4214,-1.3609,-1.2964,-1.2944,-1.2992,-1.3085,-1.3182,-1.3382,-1.3597,-1.3808,-1.3949,-1.4067,-1.4129,-1.4185,-1.4446,-1.4803,-1.4821,-1.5513,-4.4192,-4.2961,-4.1831,-4.0974,-4.0475,-3.9923,-3.9697,-3.9697,-3.9697,-3.9697,-3.9697,-3.9697,-3.9697,-3.9697,-3.9697,-3.9697,-3.9697,-3.9697,-3.9572,-3.9371,-3.9095,-3.8642,-3.8241,-3.7563,-3.7111,-3.6908,-3.6581,-3.6405,-3.6329,-3.5604,-3.5006,-3.4605,-3.3972,-3.3319,-3.2717,-3.1838,-3.1286,-3.1035,-3.0256,-2.9779,-2.9779,-2.9779,-2.9679,-2.9453,-2.8549,-2.7519,-2.6524,-2.6097,-2.546,-2.4525,-2.4499,-2.4431,-2.4224,-2.4173,-2.4023,-2.3697,-2.3703,-2.3496,-2.317,-2.3095,-2.3095,-2.3095,-2.3095,-2.3095,-2.3095,-2.3095,-2.3095,-2.3095,-2.3095,-2.3095,-2.3095,-2.3095,-2.3095,-2.3095,-2.3095,-2.3095,-2.3095,-2.3095,-2.302,-2.2769,-2.2272,-2.1468,-2.0867,-2.0162,-1.9811,-1.9811,-1.9811,-1.9682,-1.942,-1.9052,-1.8545,-1.787,-1.7151,-1.6552,-1.6173,-1.5487,-1.4765,-1.4235,-1.3678,-1.3248,-1.3077,-1.2959,-1.3012,-1.3096,-1.3197,-1.3286,-1.3525,-1.3763,-1.3831,-1.3802,-1.3831,-1.4113,-1.4324,-1.4769,-1.5432,-4.3664,-4.2238,-4.158,-4.0974,-4.0475,-3.9923,-3.9697,-3.9697,-3.9697,-3.9697,-3.9697,-3.9697,-3.9697,-3.9697,-3.9697,-3.9697,-3.9697,-3.9697,-3.9697,-3.9672,-3.9295,-3.9095,-3.8793,-3.7889,-3.7362,-3.7111,-3.6681,-3.6405,-3.6355,-3.5805,-3.5232,-3.468,-3.4173,-3.3621,-3.2993,-3.1964,-3.1386,-3.1185,-3.0331,-2.9779,-2.9779,-2.9779,-2.9779,-2.9729,-2.9402,-2.8624,-2.7329,-2.6952,-2.6348,-2.5485,-2.5184,-2.5008,-2.4858,-2.48,-2.4657,-2.4305,-2.4079,-2.3828,-2.3421,-2.3195,-2.3095,-2.3095,-2.3095,-2.3095,-2.3095,-2.3095,-2.3095,-2.3095,-2.3095,-2.3095,-2.3095,-2.3095,-2.3095,-2.3095,-2.3095,-2.3095,-2.3095,-2.3095,-2.3095,-2.297,-2.2347,-2.1619,-2.1043,-2.0465,-2.0062,-1.9861,-1.9811,-1.9682,-1.9368,-1.8972,-1.8437,-1.7678,-1.6955,-1.6381,-1.598,-1.5442,-1.4992,-1.4508,-1.3913,-1.3482,-1.3228,-1.3071,-1.3013,-1.3052,-1.3111,-1.3158,-1.331,-1.3549,-1.3617,-1.3587,-1.3842,-1.4139,-1.4541,-1.5063,-1.5581,-4.3664,-4.2208,-4.158,-4.1078,-4.0551,-3.9998,-3.9722,-3.9697,-3.9749,-3.9749,-3.9749,-3.9749,-3.98,-3.9749,-3.9749,-3.9749,-3.9697,-3.9697,-3.9697,-3.9672,-3.9647,-3.9371,-3.8969,-3.8316,-3.7688,-3.7186,-3.6681,-3.643,-3.638,-3.5855,-3.5307,-3.4731,-3.4248,-3.3746,-3.3093,-3.2089,-3.1411,-3.1185,-3.0382,-2.9829,-2.9779,-2.9779,-2.9779,-2.9779,-2.9729,-2.9428,-2.8813,-2.7846,-2.7052,-2.6474,-2.5887,-2.536,-2.5001,-2.4983,-2.485,-2.475,-2.4356,-2.4079,-2.3904,-2.3446,-2.3195,-2.312,-2.312,-2.3221,-2.3221,-2.3246,-2.3246,-2.3221,-2.3195,-2.3145,-2.312,-2.3095,-2.3095,-2.3095,-2.3095,-2.3095,-2.3095,-2.3095,-2.3095,-2.302,-2.2573,-2.2096,-2.1543,-2.1043,-2.0541,-2.0062,-1.9911,-1.9706,-1.9289,-1.8869,-1.8224,-1.7423,-1.6779,-1.6239,-1.5865,-1.5507,-1.5194,-1.4824,-1.418,-1.3672,-1.3535,-1.3398,-1.3398,-1.3398,-1.3308,-1.3377,-1.3459,-1.3679,-1.3662,-1.3671,-1.3937,-1.4238,-1.4627,-1.5059,-1.5443,-4.3865,-4.271,-4.2133,-4.158,-4.0974,-4.0501,-4.0049,-3.9697,-3.9878,-3.9981,-3.9981,-4.0134,-4.0134,-3.9981,-3.9981,-3.9878,-3.9697,-3.9697,-3.9697,-3.9697,-3.9697,-3.9597,-3.9346,-3.8868,-3.809,-3.7236,-3.6634,-3.6405,-3.638,-3.6182,-3.583,-3.5278,-3.4726,-3.4198,-3.3596,-3.2541,-3.1813,-3.1336,-3.0708,-3.0206,-2.9829,-2.9779,-2.9779,-2.9779,-2.9779,-2.9679,-2.9478,-2.8448,-2.762,-2.7077,-2.6524,-2.6147,-2.5996,-2.5937,-2.5762,-2.541,-2.5209,-2.4707,-2.4079,-2.3828,-2.3496,-2.3296,-2.3471,-2.3703,-2.3778,-2.4023,-2.4048,-2.3803,-2.3728,-2.3572,-2.3195,-2.3095,-2.312,-2.3095,-2.3095,-2.3095,-2.3095,-2.3095,-2.3095,-2.3045,-2.2619,-2.2246,-2.202,-2.1568,-2.1043,-2.0541,-2.0415,-2.0181,-1.9387,-1.8863,-1.8251,-1.7374,-1.6779,-1.6153,-1.5778,-1.5546,-1.5322,-1.5059,-1.4551,-1.4082,-1.3926,-1.3724,-1.3724,-1.3737,-1.3623,-1.3631,-1.3716,-1.3775,-1.3825,-1.3978,-1.4319,-1.4526,-1.4688,-1.5003,-1.5405,-4.3991,-4.2936,-4.2439,-4.1831,-4.125,-4.0699,-4.0199,-3.9799,-3.9981,-4.0083,-4.0134,-4.0389,-4.0338,-4.0134,-4.0083,-3.9929,-3.9749,-3.9697,-3.9697,-3.9697,-3.9697,-3.9697,-3.9572,-3.8894,-3.809,-3.7236,-3.6656,-3.6405,-3.6405,-3.6405,-3.6081,-3.5483,-3.4956,-3.4449,-3.3847,-3.2792,-3.1938,-3.1386,-3.0884,-3.0357,-2.9905,-2.9779,-2.9779,-2.9779,-2.9779,-2.9779,-2.9729,-2.89,-2.8147,-2.757,-2.6927,-2.6499,-2.6499,-2.6474,-2.6323,-2.6021,-2.5686,-2.5285,-2.4657,-2.423,-2.3979,-2.3828,-2.3904,-2.4104,-2.428,-2.465,-2.46,-2.4381,-2.4242,-2.3929,-2.3454,-2.3268,-2.3163,-2.2994,-2.306,-2.3095,-2.3095,-2.3095,-2.3095,-2.3045,-2.2819,-2.2543,-2.2243,-2.2071,-2.1568,-2.1144,-2.0939,-2.0548,-1.9672,-1.9017,-1.8212,-1.7378,-1.6609,-1.6095,-1.5691,-1.5517,-1.541,-1.5215,-1.4961,-1.4609,-1.4394,-1.4094,-1.3977,-1.4089,-1.4051,-1.409,-1.418,-1.423,-1.4261,-1.4526,-1.464,-1.475,-1.4849,-1.5107,-1.5409,-4.3991,-4.2961,-4.2489,-4.1882,-4.125,-4.0802,-4.0275,-3.9799,-4.0032,-4.0134,-4.0185,-4.0491,-4.044,-4.016,-4.0185,-3.9981,-3.9749,-3.9697,-3.9697,-3.9697,-3.9697,-3.9697,-3.9572,-3.8718,-3.7939,-3.7312,-3.6782,-3.648,-3.6405,-3.6405,-3.6107,-3.5583,-3.5082,-3.4525,-3.3947,-3.2867,-3.2114,-3.1537,-3.0959,-3.0457,-2.9905,-2.9804,-2.9779,-2.9779,-2.9779,-2.9779,-2.9704,-2.9176,-2.8587,-2.8047,-2.7092,-2.6625,-2.6575,-2.6524,-2.6474,-2.6399,-2.5937,-2.5686,-2.536,-2.4732,-2.4356,-2.455,-2.4406,-2.428,-2.4808,-2.5008,-2.5026,-2.4818,-2.4663,-2.4285,-2.3776,-2.3459,-2.3175,-2.2819,-2.2909,-2.3035,-2.3095,-2.3095,-2.3095,-2.3095,-2.307,-2.292,-2.2498,-2.2368,-2.2096,-2.1666,-2.1431,-2.0878,-2.0017,-1.9198,-1.8261,-1.7427,-1.6563,-1.6009,-1.5604,-1.5488,-1.541,-1.5332,-1.5176,-1.5019,-1.4824,-1.4562,-1.4406,-1.45,-1.4476,-1.4557,-1.4599,-1.4613,-1.4553,-1.4586,-1.4703,-1.4846,-1.5017,-1.5273,-1.5362,-4.3991,-4.2986,-4.2836,-4.2208,-4.1326,-4.1125,-4.0551,-3.9799,-4.0185,-4.0338,-4.0491,-4.0896,-4.0821,-4.0415,-4.0389,-4.016,-3.98,-3.9697,-3.9697,-3.9697,-3.9697,-3.9697,-3.9572,-3.8994,-3.8316,-3.7764,-3.7186,-3.6807,-3.643,-3.6405,-3.6329,-3.6132,-3.5508,-3.4981,-3.4449,-3.3746,-3.2943,-3.2064,-3.1436,-3.0909,-3.0407,-2.9955,-2.9779,-2.9779,-2.9779,-2.9779,-2.9729,-2.9227,-2.8637,-2.8122,-2.7469,-2.7102,-2.7027,-2.67,-2.6499,-2.6449,-2.6348,-2.6013,-2.5636,-2.5335,-2.5084,-2.4858,-2.5008,-2.5234,-2.5385,-2.5787,-2.572,-2.5361,-2.5012,-2.459,-2.3822,-2.324,-2.2775,-2.2473,-2.2714,-2.2994,-2.3065,-2.3095,-2.3095,-2.3095,-2.3095,-2.2995,-2.2895,-2.2794,-2.2644,-2.2189,-2.1869,-2.1436,-2.0375,-1.9407,-1.8484,-1.747,-1.6663,-1.6023,-1.5584,-1.5468,-1.541,-1.541,-1.5332,-1.5312,-1.5215,-1.5137,-1.5069,-1.5137,-1.4908,-1.4865,-1.4929,-1.4959,-1.4877,-1.4767,-1.5031,-1.5279,-1.5272,-1.541,-1.541,-4.3966,-4.2986,-4.2986,-4.2333,-4.1326,-4.1275,-4.0727,-3.9926,-4.0134,-4.0338,-4.044,-4.0744,-4.077,-4.0338,-4.0338,-4.0083,-3.9749,-3.9697,-3.9697,-3.9697,-3.9697,-3.9697,-3.9572,-3.912,-3.8567,-3.799,-3.7462,-3.6933,-3.6505,-3.6405,-3.6405,-3.6304,-3.583,-3.5232,-3.47,-3.4148,-3.3345,-3.2315,-3.1662,-3.1135,-3.0633,-3.008,-2.9829,-2.9779,-2.9779,-2.9779,-2.9729,-2.9453,-2.8988,-2.8423,-2.7745,-2.7329,-2.7278,-2.6801,-2.6499,-2.6499,-2.6499,-2.6323,-2.6013,-2.5762,-2.5586,-2.5511,-2.5636,-2.5711,-2.5937,-2.6255,-2.6058,-2.5664,-2.5271,-2.4637,-2.3817,-2.2995,-2.2512,-2.2345,-2.2643,-2.2942,-2.2994,-2.309,-2.3095,-2.3095,-2.3095,-2.3095,-2.3095,-2.3095,-2.2915,-2.2625,-2.2318,-2.1583,-2.0641,-1.9684,-1.8629,-1.7552,-1.6682,-1.6058,-1.5615,-1.5439,-1.541,-1.541,-1.541,-1.541,-1.541,-1.541,-1.5391,-1.5312,-1.5242,-1.5181,-1.517,-1.5198,-1.5172,-1.5222,-1.5496,-1.5507,-1.5439,-1.541,-1.541,-4.4016,-4.3062,-4.3011,-4.2359,-4.1376,-4.125,-4.0701,-3.9874,-3.9981,-4.0134,-4.0185,-4.0415,-4.0389,-4.0083,-4.0134,-3.9981,-3.9697,-3.9697,-3.9697,-3.9697,-3.9697,-3.9697,-3.9647,-3.9295,-3.8743,-3.8165,-3.7563,-3.7036,-3.6681,-3.6505,-3.6405,-3.6329,-3.5881,-3.5332,-3.4856,-3.4324,-3.3445,-3.2591,-3.1888,-3.1411,-3.0909,-3.0357,-3.0005,-2.998,-2.9829,-2.9804,-2.9779,-2.9704,-2.9528,-2.8988,-2.8021,-2.7595,-2.7394,-2.6901,-2.6575,-2.6499,-2.6499,-2.6474,-2.6424,-2.5988,-2.5912,-2.6197,-2.5879,-2.5854,-2.6221,-2.6258,-2.5955,-2.5673,-2.5264,-2.4425,-2.3432,-2.2626,-2.2196,-2.2082,-2.2453,-2.2773,-2.2874,-2.3,-2.3095,-2.3095,-2.3095,-2.3095,-2.3095,-2.309,-2.3005,-2.2675,-2.2378,-2.1667,-2.0756,-1.9817,-1.8637,-1.7423,-1.6708,-1.6069,-1.5713,-1.541,-1.541,-1.541,-1.541,-1.541,-1.541,-1.541,-1.541,-1.5381,-1.5311,-1.5311,-1.5351,-1.5361,-1.5352,-1.54,-1.5449,-1.5439,-1.541,-1.541,-1.541,-4.4242,-4.3589,-4.3162,-4.2333,-4.1376,-4.125,-4.0674,-3.9774,-3.9981,-4.0083,-4.0134,-4.0338,-4.0338,-4.0083,-4.0083,-3.9981,-3.9697,-3.9697,-3.9697,-3.9697,-3.9697,-3.9697,-3.9697,-3.9521,-3.9195,-3.8642,-3.809,-3.7538,-3.7061,-3.6656,-3.6405,-3.638,-3.6182,-3.5906,-3.5282,-3.4751,-3.4223,-3.347,-3.2541,-3.1964,-3.1637,-3.0909,-3.0432,-3.0357,-3.0005,-2.9804,-2.9779,-2.9779,-2.9729,-2.9478,-2.895,-2.8348,-2.7871,-2.7369,-2.6927,-2.6575,-2.6499,-2.6499,-2.6449,-2.6348,-2.6323,-2.6389,-2.6202,-2.6133,-2.6173,-2.591,-2.5571,-2.5218,-2.4695,-2.3731,-2.2498,-2.1955,-2.1712,-2.1665,-2.195,-2.2391,-2.2535,-2.2878,-2.3065,-2.3095,-2.3095,-2.3095,-2.3095,-2.2969,-2.2878,-2.2696,-2.2249,-2.1674,-2.0808,-1.9837,-1.8721,-1.7462,-1.6779,-1.6196,-1.5782,-1.5508,-1.541,-1.541,-1.541,-1.541,-1.541,-1.541,-1.541,-1.541,-1.5391,-1.541,-1.541,-1.541,-1.5391,-1.541,-1.541,-1.541,-1.541,-1.541,-1.541,-4.4292,-4.374,-4.3212,-4.2359,-4.1376,-4.125,-4.0648,-3.9823,-3.9852,-3.9929,-3.9929,-4.0083,-4.0032,-3.9929,-3.9878,-3.9852,-3.9749,-3.9697,-3.9697,-3.9697,-3.9697,-3.9697,-3.9697,-3.9647,-3.9421,-3.8894,-3.8567,-3.799,-3.7287,-3.6933,-3.6681,-3.643,-3.6405,-3.6031,-3.5508,-3.5027,-3.4424,-3.3746,-3.2817,-3.2215,-3.2064,-3.1436,-3.0809,-3.0557,-3.0105,-2.9779,-2.9779,-2.9779,-2.9779,-2.9704,-2.9478,-2.8925,-2.8172,-2.7595,-2.7042,-2.66,-2.6499,-2.6499,-2.6499,-2.6499,-2.6465,-2.6361,-2.6188,-2.6015,-2.584,-2.5465,-2.504,-2.4587,-2.3973,-2.3055,-2.1802,-2.1686,-2.1543,-2.1585,-2.1857,-2.225,-2.248,-2.2813,-2.3035,-2.306,-2.306,-2.303,-2.2969,-2.2818,-2.2519,-2.2273,-2.1753,-2.1195,-2.0462,-1.9512,-1.8741,-1.7711,-1.6954,-1.6331,-1.5909,-1.5605,-1.543,-1.541,-1.541,-1.541,-1.541,-1.541,-1.541,-1.541,-1.541,-1.541,-1.541,-1.541,-1.541,-1.541,-1.541,-1.541,-1.541,-1.541,-1.541,-4.4292,-4.374,-4.3112,-4.2258,-4.1351,-4.1175,-4.0601,-3.9772,-3.9697,-3.9749,-3.9697,-3.9697,-3.9749,-3.9697,-3.9749,-3.9697,-3.9697,-3.9697,-3.9697,-3.9697,-3.9697,-3.9697,-3.9697,-3.9647,-3.9496,-3.9019,-3.8843,-3.8266,-3.7563,-3.7161,-3.6857,-3.6505,-3.6405,-3.6157,-3.5655,-3.5082,-3.465,-3.4048,-3.3169,-3.2516,-3.234,-3.1813,-3.126,-3.0608,-3.0281,-2.9905,-2.9829,-2.9779,-2.9779,-2.9779,-2.9779,-2.9227,-2.8423,-2.772,-2.7092,-2.6575,-2.6499,-2.6499,-2.6499,-2.6465,-2.6361,-2.6179,-2.5875,-2.5641,-2.5335,-2.4838,-2.4371,-2.3863,-2.3202,-2.2365,-2.153,-2.1451,-2.1603,-2.1716,-2.1976,-2.2263,-2.2506,-2.2705,-2.2812,-2.2969,-2.2909,-2.2878,-2.2696,-2.2488,-2.218,-2.1784,-2.1282,-2.0709,-1.9933,-1.9246,-1.8516,-1.7946,-1.7216,-1.6527,-1.6065,-1.5664,-1.5508,-1.5625,-1.5586,-1.5644,-1.5625,-1.5644,-1.5664,-1.5449,-1.541,-1.541,-1.541,-1.541,-1.541,-1.541,-1.541,-1.541,-1.541,-1.541,-1.543,-4.4292,-4.3714,-4.2766,-4.1907,-4.125,-4.0852,-4.03,-3.9772,-3.9697,-3.9697,-3.9697,-3.9697,-3.9697,-3.9697,-3.9697,-3.9697,-3.9697,-3.9697,-3.9697,-3.9697,-3.9697,-3.9697,-3.9697,-3.9697,-3.9622,-3.9446,-3.9145,-3.8542,-3.7864,-3.7412,-3.6912,-3.6508,-3.6358,-3.6257,-3.6081,-3.568,-3.5056,-3.453,-3.3822,-3.3294,-3.2893,-3.229,-3.1612,-3.0794,-3.0532,-3.0231,-2.988,-2.9804,-2.9779,-2.9779,-2.9779,-2.9402,-2.88,-2.8222,-2.7519,-2.6801,-2.6575,-2.6575,-2.6465,-2.6327,-2.6154,-2.591,-2.5465,-2.4981,-2.4564,-2.4082,-2.3607,-2.3075,-2.2365,-2.155,-2.1089,-2.1128,-2.1136,-2.1229,-2.1532,-2.1854,-2.2161,-2.2456,-2.2592,-2.272,-2.272,-2.2604,-2.2334,-2.2025,-2.1596,-2.1155,-2.0645,-2.0161,-1.954,-1.8936,-1.8361,-1.7889,-1.7455,-1.6801,-1.6222,-1.582,-1.5605,-1.5937,-1.6046,-1.6172,-1.6133,-1.6085,-1.5987,-1.5703,-1.5488,-1.541,-1.541,-1.541,-1.541,-1.541,-1.541,-1.541,-1.541,-1.543,-1.5469,-4.3865,-4.3313,-4.2484,-4.1681,-4.0953,-4.0651,-4.0199,-3.9747,-3.9697,-3.9697,-3.9697,-3.9697,-3.9697,-3.9697,-3.9697,-3.9697,-3.9697,-3.9697,-3.9697,-3.9697,-3.9697,-3.9697,-3.9697,-3.9697,-3.9697,-3.957,-3.9268,-3.8591,-3.7867,-3.7567,-3.6894,-3.62,-3.6098,-3.6193,-3.6116,-3.5712,-3.5408,-3.4956,-3.4349,-3.3771,-3.342,-3.2692,-3.1888,-3.1512,-3.0844,-3.0482,-3.0256,-2.988,-2.9804,-2.9779,-2.9779,-2.9453,-2.9013,-2.8624,-2.8047,-2.7143,-2.6866,-2.6706,-2.6402,-2.6119,-2.5851,-2.543,-2.4874,-2.4371,-2.3863,-2.3313,-2.274,-2.2138,-2.1703,-2.1089,-2.078,-2.0935,-2.1161,-2.1428,-2.1652,-2.1958,-2.2284,-2.2518,-2.2597,-2.2548,-2.2445,-2.2266,-2.1932,-2.1502,-2.1028,-2.0516,-2.0031,-1.9573,-1.9077,-1.867,-1.8174,-1.7935,-1.7566,-1.7083,-1.6543,-1.6211,-1.5996,-1.625,-1.6476,-1.6582,-1.6621,-1.6523,-1.6261,-1.5928,-1.5723,-1.5586,-1.541,-1.541,-1.541,-1.541,-1.541,-1.541,-1.541,-1.543,-1.5488,-4.3413,-4.2816,-4.2233,-4.143,-4.0576,-4.04,-4.0099,-3.9747,-3.9697,-3.9697,-3.9697,-3.9697,-3.9697,-3.9697,-3.9697,-3.9697,-3.9697,-3.9697,-3.9697,-3.9697,-3.9697,-3.9697,-3.9697,-3.9645,-3.9594,-3.9517,-3.9156,-3.8635,-3.7792,-3.7494,-3.6776,-3.6084,-3.5908,-3.6028,-3.5951,-3.5865,-3.5683,-3.5207,-3.4625,-3.4048,-3.3545,-3.285,-3.2231,-3.2081,-3.1163,-3.0573,-3.0308,-2.9913,-2.9688,-2.9702,-2.969,-2.9578,-2.9202,-2.9063,-2.8587,-2.7734,-2.7408,-2.6901,-2.6441,-2.584,-2.543,-2.4874,-2.4286,-2.3703,-2.3113,-2.2515,-2.1873,-2.1282,-2.1012,-2.0858,-2.0722,-2.0935,-2.13,-2.1694,-2.2008,-2.2355,-2.2685,-2.2869,-2.2775,-2.2628,-2.2318,-2.198,-2.169,-2.0933,-2.0442,-1.9998,-1.9507,-1.9164,-1.8697,-1.8462,-1.8099,-1.7919,-1.7637,-1.7285,-1.6934,-1.6668,-1.6602,-1.6758,-1.6875,-1.6973,-1.6992,-1.6973,-1.6641,-1.6398,-1.6094,-1.5957,-1.5684,-1.543,-1.541,-1.541,-1.541,-1.541,-1.541,-1.5469,-1.5547,-4.3187,-4.2263,-4.1656,-4.1078,-4.0475,-3.9998,-3.9772,-3.9722,-3.9697,-3.9697,-3.9697,-3.9697,-3.9697,-3.9697,-3.9697,-3.9697,-3.9697,-3.9697,-3.9697,-3.9697,-3.9697,-3.9697,-3.9645,-3.9413,-3.9258,-3.9154,-3.8736,-3.8202,-3.7539,-3.7267,-3.6677,-3.5842,-3.5766,-3.6028,-3.593,-3.6091,-3.6006,-3.5508,-3.4881,-3.4129,-3.3351,-3.2828,-3.235,-3.1861,-3.1141,-3.0515,-3.0137,-2.9737,-2.9482,-2.9496,-2.9702,-2.9754,-2.9704,-2.9679,-2.9238,-2.8438,-2.763,-2.6898,-2.6489,-2.5744,-2.4885,-2.4273,-2.3593,-2.2889,-2.2289,-2.1759,-2.1282,-2.1012,-2.0896,-2.0819,-2.0683,-2.0858,-2.1244,-2.1731,-2.2226,-2.2778,-2.3248,-2.3599,-2.3442,-2.3047,-2.2846,-2.2084,-2.1554,-2.067,-1.9857,-1.9429,-1.8998,-1.8664,-1.8414,-1.8245,-1.811,-1.7964,-1.7852,-1.7519,-1.7383,-1.7116,-1.7116,-1.7266,-1.7305,-1.7363,-1.7402,-1.7383,-1.7285,-1.7012,-1.668,-1.6219,-1.5888,-1.5684,-1.5508,-1.5527,-1.5664,-1.5566,-1.541,-1.5488,-1.5586,-4.2133,-4.1656,-4.105,-4.0498,-4.0049,-3.9772,-3.9697,-3.9697,-3.9697,-3.9697,-3.9697,-3.9697,-3.9697,-3.9697,-3.9697,-3.9697,-3.9697,-3.9697,-3.9697,-3.9697,-3.9697,-3.9594,-3.9413,-3.9154,-3.8893,-3.8449,-3.7954,-3.7374,-3.6964,-3.656,-3.6078,-3.5549,-3.5526,-3.562,-3.586,-3.6168,-3.6232,-3.5784,-3.504,-3.4125,-3.3364,-3.2698,-3.2185,-3.1915,-3.09,-3.0348,-3.0057,-2.9524,-2.9351,-2.938,-2.9663,-2.9702,-2.9599,-2.9535,-2.9269,-2.8723,-2.7808,-2.6953,-2.6166,-2.5368,-2.4549,-2.3601,-2.2889,-2.2176,-2.153,-2.1128,-2.0838,-2.0722,-2.0741,-2.0683,-2.0722,-2.1012,-2.1436,-2.1941,-2.2555,-2.3208,-2.3816,-2.4198,-2.4254,-2.3782,-2.328,-2.2613,-2.1804,-2.0818,-2.0018,-1.9402,-1.898,-1.8623,-1.8367,-1.8178,-1.8076,-1.7988,-1.791,-1.7793,-1.7754,-1.7623,-1.7617,-1.7695,-1.7695,-1.7754,-1.7832,-1.7812,-1.7656,-1.7513,-1.7148,-1.6699,-1.623,-1.6083,-1.6063,-1.6035,-1.5957,-1.5859,-1.5762,-1.5527,-1.5742,-4.11,-4.105,-4.0676,-4.0199,-3.9697,-3.9697,-3.9697,-3.9697,-3.9697,-3.9697,-3.9697,-3.9697,-3.9697,-3.9697,-3.9697,-3.9697,-3.9697,-3.9697,-3.9697,-3.9697,-3.9697,-3.9517,-3.9258,-3.8893,-3.8315,-3.7761,-3.6958,-3.6417,-3.5951,-3.5671,-3.5412,-3.5318,-3.5405,-3.5501,-3.5764,-3.6121,-3.6304,-3.5956,-3.5123,-3.4264,-3.3435,-3.2503,-3.1995,-3.1316,-3.052,-2.9767,-2.981,-2.9189,-2.8855,-2.9223,-2.9443,-2.9482,-2.9365,-2.9184,-2.887,-2.833,-2.7553,-2.6667,-2.5723,-2.4846,-2.4078,-2.3134,-2.2197,-2.1492,-2.1012,-2.0664,-2.0605,-2.0605,-2.0605,-2.0605,-2.0683,-2.1069,-2.1568,-2.2252,-2.3069,-2.3699,-2.4249,-2.4609,-2.4762,-2.4426,-2.3902,-2.3304,-2.2425,-2.1263,-2.031,-1.9481,-1.8961,-1.8568,-1.8344,-1.8208,-1.81,-1.8086,-1.8027,-1.7969,-1.793,-1.7949,-1.8008,-1.8008,-1.8008,-1.8008,-1.7988,-1.7969,-1.7852,-1.7676,-1.7519,-1.7383,-1.7051,-1.6863,-1.6687,-1.6473,-1.6309,-1.6269,-1.6152,-1.5898,-1.5996,-4.0576,-4.0576,-4.0526,-4.0199,-3.9697,-3.9697,-3.9697,-3.9697,-3.9697,-3.9697,-3.9697,-3.9697,-3.9697,-3.9647,-3.9597,-3.9622,-3.9672,-3.9697,-3.9672,-3.9672,-3.9697,-3.9465,-3.905,-3.8449,-3.7708,-3.6911,-3.6031,-3.5292,-3.4885,-3.469,-3.4955,-3.5468,-3.543,-3.5694,-3.5908,-3.6168,-3.6135,-3.5765,-3.5062,-3.4262,-3.3325,-3.2367,-3.1565,-3.0573,-2.9429,-2.8591,-2.876,-2.8292,-2.8275,-2.8791,-2.9052,-2.9131,-2.9013,-2.8697,-2.8275,-2.7626,-2.7134,-2.6156,-2.5187,-2.4408,-2.3573,-2.2724,-2.1816,-2.0992,-2.0722,-2.0644,-2.0605,-2.0605,-2.0605,-2.0605,-2.0722,-2.0992,-2.1606,-2.2327,-2.3187,-2.4049,-2.459,-2.4992,-2.508,-2.4942,-2.4493,-2.3899,-2.3213,-2.209,-2.0849,-1.9948,-1.9222,-1.8819,-1.8552,-1.8355,-1.8257,-1.8184,-1.8144,-1.8105,-1.8047,-1.8066,-1.8125,-1.8066,-1.8008,-1.8008,-1.8008,-1.7969,-1.7949,-1.793,-1.7793,-1.7852,-1.7832,-1.7408,-1.7058,-1.6804,-1.6648,-1.6641,-1.668,-1.6602,-1.6738,-4.0023,-3.9998,-3.9998,-3.9898,-3.9697,-3.9697,-3.9697,-3.9697,-3.9697,-3.9697,-3.9672,-3.9672,-3.9496,-3.927,-3.9195,-3.9195,-3.9195,-3.9195,-3.9396,-3.9622,-3.9645,-3.931,-3.8736,-3.7974,-3.7019,-3.5868,-3.4835,-3.423,-3.3857,-3.3741,-3.4508,-3.5025,-3.5259,-3.5646,-3.5908,-3.6098,-3.5949,-3.5561,-3.4766,-3.3737,-3.2975,-3.1576,-3.0582,-2.9897,-2.8477,-2.8008,-2.8109,-2.7732,-2.7934,-2.8299,-2.8578,-2.8618,-2.8474,-2.8099,-2.747,-2.6753,-2.6321,-2.5587,-2.4829,-2.4131,-2.3463,-2.2085,-2.1232,-2.0702,-2.0644,-2.0605,-2.0605,-2.0605,-2.0605,-2.0605,-2.0644,-2.1069,-2.1645,-2.2327,-2.3165,-2.4154,-2.4838,-2.522,-2.5414,-2.5232,-2.4912,-2.4425,-2.3743,-2.3019,-2.1682,-2.0469,-1.9727,-1.9072,-1.8805,-1.8633,-1.8594,-1.8574,-1.8555,-1.8477,-1.8418,-1.8359,-1.8301,-1.8164,-1.8047,-1.8047,-1.8047,-1.8008,-1.7988,-1.8008,-1.8008,-1.7969,-1.7871,-1.7662,-1.7486,-1.7311,-1.7135,-1.6992,-1.709,-1.7155,-1.7324,-3.9697,-3.9697,-3.9697,-3.9697,-3.9697,-3.9697,-3.9697,-3.9697,-3.9697,-3.9572,-3.9446,-3.9295,-3.8994,-3.8693,-3.8617,-3.8617,-3.8693,-3.8818,-3.912,-3.9371,-3.952,-3.9129,-3.8449,-3.7578,-3.6534,-3.4968,-3.379,-3.32,-3.2669,-3.2911,-3.3475,-3.4163,-3.4795,-3.526,-3.6003,-3.5908,-3.5812,-3.5306,-3.4414,-3.3124,-3.2394,-3.1009,-2.9598,-2.8929,-2.7597,-2.7189,-2.7217,-2.7075,-2.725,-2.7685,-2.7978,-2.8018,-2.7753,-2.7307,-2.6652,-2.5988,-2.5359,-2.4871,-2.4363,-2.3843,-2.3165,-2.1908,-2.1214,-2.0879,-2.0781,-2.0703,-2.0605,-2.0605,-2.0605,-2.0605,-2.0644,-2.1069,-2.1568,-2.2214,-2.3187,-2.4141,-2.4838,-2.532,-2.5473,-2.5519,-2.5087,-2.4483,-2.345,-2.2629,-2.1681,-2.0524,-1.9785,-1.9308,-1.9138,-1.9043,-1.9082,-1.9082,-1.9082,-1.8984,-1.8887,-1.8828,-1.873,-1.8383,-1.8301,-1.811,-1.8071,-1.8086,-1.8027,-1.8008,-1.8008,-1.8008,-1.7949,-1.7832,-1.7871,-1.793,-1.7695,-1.7422,-1.7447,-1.7545,-1.7598,-3.9697,-3.9697,-3.9697,-3.9697,-3.9697,-3.9697,-3.9672,-3.9597,-3.9546,-3.9295,-3.8843,-3.8417,-3.814,-3.804,-3.804,-3.804,-3.8165,-3.8542,-3.8894,-3.8993,-3.9393,-3.9052,-3.8291,-3.7311,-3.6045,-3.456,-3.3262,-3.2209,-3.1457,-3.1869,-3.2406,-3.3128,-3.3939,-3.4823,-3.6168,-3.586,-3.538,-3.4775,-3.3923,-3.2658,-3.1437,-3.0207,-2.894,-2.7873,-2.6884,-2.6472,-2.6396,-2.6367,-2.6552,-2.6967,-2.7167,-2.7185,-2.7103,-2.6404,-2.5737,-2.5062,-2.4529,-2.4077,-2.3604,-2.3182,-2.2639,-2.2038,-2.1465,-2.123,-2.1133,-2.0898,-2.0664,-2.0742,-2.0644,-2.0625,-2.0722,-2.0992,-2.1492,-2.2138,-2.3113,-2.3995,-2.4659,-2.5111,-2.5218,-2.5147,-2.4802,-2.424,-2.3069,-2.2054,-2.134,-2.0487,-1.9809,-1.9487,-1.949,-1.9531,-1.9609,-1.9629,-1.9648,-1.9473,-1.9355,-1.9297,-1.9141,-1.8809,-1.8559,-1.8481,-1.8305,-1.8242,-1.8184,-1.8086,-1.8008,-1.8008,-1.8008,-1.7988,-1.8008,-1.8008,-1.8008,-1.7871,-1.7896,-1.7876,-1.7852,-3.9697,-3.9697,-3.9697,-3.9697,-3.9697,-3.9697,-3.9496,-3.912,-3.8768,-3.8467,-3.8291,-3.804,-3.7764,-3.7563,-3.7462,-3.7462,-3.7563,-3.804,-3.8341,-3.8615,-3.9114,-3.8505,-3.7708,-3.6773,-3.5521,-3.3729,-3.2392,-3.1588,-3.1031,-3.1105,-3.1736,-3.2544,-3.3273,-3.4409,-3.4945,-3.4823,-3.4335,-3.3775,-3.2659,-3.1323,-3.0285,-2.9083,-2.798,-2.7119,-2.6337,-2.5863,-2.576,-2.575,-2.5873,-2.6159,-2.6279,-2.6362,-2.6257,-2.5611,-2.5041,-2.4487,-2.3991,-2.36,-2.3319,-2.3036,-2.284,-2.2324,-2.1934,-2.168,-2.1621,-2.125,-2.1074,-2.0937,-2.084,-2.0762,-2.0644,-2.1012,-2.1474,-2.1949,-2.2815,-2.3703,-2.4394,-2.4611,-2.4742,-2.4443,-2.4095,-2.332,-2.2277,-2.1703,-2.1044,-2.0775,-2.019,-2.0115,-2.0116,-2.0194,-2.0292,-2.0292,-2.0215,-2.0,-1.9844,-1.9746,-1.9531,-1.918,-1.9062,-1.9043,-1.8828,-1.8555,-1.8477,-1.8457,-1.8223,-1.8008,-1.8008,-1.8008,-1.8008,-1.8008,-1.8008,-1.8008,-1.7988,-1.7969,-1.7969,-3.9094,-3.912,-3.912,-3.9069,-3.9043,-3.9218,-3.8942,-3.8341,-3.7841,-3.7566,-3.759,-3.7489,-3.7262,-3.696,-3.6958,-3.6958,-3.696,-3.7365,-3.7842,-3.8114,-3.8506,-3.802,-3.721,-3.6231,-3.5024,-3.3282,-3.2002,-3.1216,-3.0495,-3.0467,-3.0893,-3.1651,-3.2499,-3.2801,-3.3224,-3.3273,-3.3273,-3.2514,-3.1322,-3.0192,-2.9183,-2.8123,-2.7154,-2.6544,-2.5959,-2.5425,-2.5305,-2.5262,-2.5246,-2.536,-2.5464,-2.5591,-2.5401,-2.502,-2.4444,-2.397,-2.3624,-2.3276,-2.3125,-2.3081,-2.293,-2.2734,-2.2344,-2.2148,-2.2031,-2.1699,-2.1523,-2.1367,-2.1133,-2.1074,-2.1075,-2.1411,-2.1822,-2.2327,-2.315,-2.4116,-2.4696,-2.5024,-2.489,-2.4502,-2.3749,-2.2764,-2.1755,-2.1245,-2.076,-2.0702,-2.0663,-2.0664,-2.0605,-2.0605,-2.0605,-2.0586,-2.0566,-2.037,-2.0195,-2.0176,-1.9902,-1.9551,-1.9492,-1.9492,-1.9219,-1.8926,-1.8887,-1.8809,-1.8555,-1.8301,-1.8086,-1.8008,-1.8027,-1.8027,-1.8008,-1.8008,-1.8008,-1.8008,-1.8008,-3.804,-3.8015,-3.7965,-3.7867,-3.7717,-3.8013,-3.7788,-3.7195,-3.685,-3.6725,-3.6723,-3.6468,-3.6413,-3.6433,-3.6408,-3.6386,-3.6488,-3.6721,-3.6973,-3.7342,-3.7448,-3.713,-3.6587,-3.5759,-3.4294,-3.3092,-3.1855,-3.059,-3.0048,-3.0012,-3.0169,-3.0475,-3.0991,-3.1249,-3.1556,-3.1841,-3.1942,-3.12,-3.0189,-2.9161,-2.8266,-2.7301,-2.6634,-2.6071,-2.5579,-2.5145,-2.4894,-2.4816,-2.4766,-2.4867,-2.4978,-2.4935,-2.4786,-2.4401,-2.397,-2.358,-2.3276,-2.3144,-2.3101,-2.3101,-2.3081,-2.2945,-2.2734,-2.2578,-2.2422,-2.2168,-2.1953,-2.1855,-2.1699,-2.1758,-2.184,-2.2209,-2.2554,-2.3276,-2.4107,-2.4809,-2.5486,-2.5624,-2.5448,-2.4902,-2.4024,-2.301,-2.1869,-2.1174,-2.0899,-2.0801,-2.0781,-2.0644,-2.0605,-2.0605,-2.0605,-2.0605,-2.0605,-2.0605,-2.0527,-2.0449,-2.0331,-1.9961,-1.9922,-1.9883,-1.959,-1.9375,-1.9316,-1.918,-1.887,-1.8598,-1.834,-1.8164,-1.8086,-1.8066,-1.8027,-1.8008,-1.8008,-1.8008,-1.8008,-3.7693,-3.7693,-3.7344,-3.7168,-3.6969,-3.6021,-3.5729,-3.5985,-3.5624,-3.543,-3.5624,-3.5573,-3.574,-3.6098,-3.5908,-3.5955,-3.6058,-3.6161,-3.6013,-3.6098,-3.6189,-3.5693,-3.5066,-3.4241,-3.3082,-3.1996,-3.0883,-3.0038,-2.9684,-2.9574,-2.9599,-2.9889,-3.0026,-3.0078,-3.013,-3.037,-3.0349,-3.0036,-2.9054,-2.835,-2.7523,-2.6626,-2.6153,-2.5741,-2.5388,-2.4957,-2.4618,-2.4411,-2.4303,-2.4028,-2.4143,-2.4143,-2.41,-2.3841,-2.3537,-2.3276,-2.3144,-2.3101,-2.3101,-2.3101,-2.3101,-2.3101,-2.2945,-2.2945,-2.2808,-2.2598,-2.2344,-2.2285,-2.2168,-2.2129,-2.2296,-2.2589,-2.3084,-2.3738,-2.4483,-2.5081,-2.5633,-2.5593,-2.5397,-2.4621,-2.3777,-2.2982,-2.1885,-2.1428,-2.1153,-2.0977,-2.084,-2.0723,-2.0605,-2.0605,-2.0605,-2.0605,-2.0605,-2.0605,-2.0605,-2.0546,-2.0507,-2.0449,-2.0351,-2.0254,-2.0137,-1.9941,-1.9805,-1.957,-1.9297,-1.889,-1.852,-1.8457,-1.8437,-1.8144,-1.8066,-1.8027,-1.8008,-1.8047,-1.8027,-3.6579,-3.6456,-3.606,-3.5711,-3.5088,-3.3876,-3.3559,-3.3866,-3.4035,-3.4311,-3.4556,-3.4799,-3.5163,-3.5572,-3.5428,-3.5428,-3.5597,-3.5113,-3.4906,-3.5031,-3.4728,-3.4343,-3.3614,-3.2888,-3.2175,-3.1099,-3.0324,-2.9679,-2.9302,-2.9073,-2.9079,-2.9079,-2.929,-2.9258,-2.9185,-2.9164,-2.9096,-2.8773,-2.8215,-2.76,-2.6931,-2.6241,-2.5859,-2.5596,-2.5293,-2.4863,-2.4434,-2.4185,-2.3905,-2.3616,-2.3731,-2.3754,-2.3711,-2.3493,-2.3319,-2.3144,-2.3101,-2.3101,-2.3101,-2.3101,-2.3101,-2.3101,-2.3101,-2.3081,-2.3023,-2.2828,-2.275,-2.2734,-2.2559,-2.2506,-2.2698,-2.293,-2.3494,-2.4032,-2.4626,-2.5235,-2.5355,-2.5396,-2.4849,-2.4155,-2.3433,-2.2709,-2.2097,-2.1721,-2.1346,-2.1151,-2.0996,-2.082,-2.0703,-2.0605,-2.0605,-2.0605,-2.0605,-2.0605,-2.0605,-2.0605,-2.0586,-2.0546,-2.0527,-2.0507,-2.0546,-2.0429,-2.0137,-1.9902,-1.9687,-1.9336,-1.8929,-1.8906,-1.8828,-1.8555,-1.8418,-1.8535,-1.8457,-1.8184,-1.8125,-3.48,-3.4509,-3.4265,-3.3572,-3.2572,-3.1863,-3.1403,-3.1249,-3.2348,-3.3101,-3.3449,-3.3944,-3.4458,-3.4823,-3.4677,-3.4726,-3.458,-3.4061,-3.365,-3.4042,-3.3168,-3.2647,-3.2437,-3.1984,-3.1148,-3.0654,-3.0053,-2.9183,-2.8843,-2.8657,-2.8495,-2.8281,-2.8388,-2.8514,-2.8514,-2.8377,-2.8325,-2.8028,-2.7606,-2.7089,-2.678,-2.623,-2.5674,-2.5615,-2.5312,-2.491,-2.448,-2.414,-2.3885,-2.3696,-2.358,-2.358,-2.345,-2.3276,-2.3144,-2.3101,-2.3101,-2.3101,-2.3101,-2.3101,-2.3101,-2.3101,-2.3101,-2.3101,-2.3042,-2.3023,-2.2964,-2.2988,-2.2875,-2.3008,-2.3222,-2.3606,-2.4072,-2.4577,-2.5097,-2.5387,-2.5428,-2.5222,-2.4577,-2.3947,-2.34,-2.2748,-2.2565,-2.2207,-2.1853,-2.1502,-2.1132,-2.0977,-2.082,-2.0703,-2.0625,-2.0625,-2.0605,-2.0605,-2.0605,-2.0605,-2.0605,-2.0605,-2.0605,-2.0605,-2.0586,-2.0527,-2.0449,-2.0253,-2.0039,-1.9766,-1.9473,-1.9394,-1.9258,-1.9082,-1.9023,-1.916,-1.8984,-1.8613,-1.8477,-3.2746,-3.2458,-3.195,-3.1409,-3.097,-3.0557,-3.0214,-3.0005,-3.0266,-3.1124,-3.1993,-3.2499,-3.3151,-3.3895,-3.3793,-3.3793,-3.3697,-3.2974,-3.2336,-3.2046,-3.1463,-3.1212,-3.0867,-3.0532,-2.9991,-2.9599,-2.9115,-2.876,-2.8516,-2.8359,-2.8301,-2.8301,-2.8301,-2.8301,-2.8262,-2.8086,-2.7773,-2.7611,-2.7024,-2.6702,-2.6426,-2.6113,-2.5674,-2.5557,-2.5312,-2.4883,-2.4499,-2.4088,-2.3683,-2.333,-2.3251,-2.3232,-2.3188,-2.3144,-2.3101,-2.3101,-2.3101,-2.3101,-2.3101,-2.3101,-2.3101,-2.3101,-2.3101,-2.3101,-2.3101,-2.3101,-2.3144,-2.3188,-2.3276,-2.3493,-2.3797,-2.4229,-2.4658,-2.5126,-2.5485,-2.5527,-2.5527,-2.4935,-2.4294,-2.3867,-2.3374,-2.3079,-2.2914,-2.2695,-2.2402,-2.1931,-2.1405,-2.1152,-2.1016,-2.0859,-2.0664,-2.0644,-2.0605,-2.0605,-2.0605,-2.0605,-2.0605,-2.0605,-2.0605,-2.0605,-2.0605,-2.0566,-2.0527,-2.0527,-2.041,-2.0098,-1.9902,-1.9805,-1.9668,-1.9551,-1.9492,-1.957,-1.9492,-1.918,-1.9082,-3.1278,-3.0912,-3.0292,-2.9947,-2.9715,-2.9504,-2.9343,-2.9185,-2.9079,-2.9481,-3.0422,-3.1249,-3.2167,-3.3001,-3.2946,-3.2873,-3.2828,-3.1964,-3.1424,-3.0861,-3.0265,-2.9946,-2.9547,-2.9319,-2.9226,-2.8931,-2.8598,-2.832,-2.8301,-2.8301,-2.8301,-2.8301,-2.8301,-2.8281,-2.8223,-2.7891,-2.7539,-2.7344,-2.668,-2.6328,-2.6152,-2.583,-2.5674,-2.5605,-2.5449,-2.5019,-2.4551,-2.4121,-2.3686,-2.3296,-2.3144,-2.3144,-2.3144,-2.3101,-2.3101,-2.3101,-2.3101,-2.3101,-2.3101,-2.3101,-2.3101,-2.3101,-2.3101,-2.3101,-2.3101,-2.3101,-2.3101,-2.3144,-2.3363,-2.3557,-2.4143,-2.4615,-2.5041,-2.5506,-2.5633,-2.5675,-2.5338,-2.4828,-2.4487,-2.4209,-2.3737,-2.3347,-2.3138,-2.2988,-2.2695,-2.2402,-2.1875,-2.1465,-2.1289,-2.1173,-2.0918,-2.0801,-2.0879,-2.0722,-2.0605,-2.0605,-2.0605,-2.0605,-2.0605,-2.0605,-2.0605,-2.0605,-2.0605,-2.0586,-2.0566,-2.0488,-2.0273,-2.0156,-2.0156,-2.0136,-2.0038,-1.9941,-1.9862,-1.9783,-1.9783,-2.9921,-2.9458,-2.8867,-2.8635,-2.8634,-2.8528,-2.8476,-2.8423,-2.8265,-2.8318,-2.8785,-3.0139,-3.1229,-3.1854,-3.224,-3.2174,-3.1796,-3.1,-3.0505,-2.9973,-2.9363,-2.9179,-2.8967,-2.8767,-2.87,-2.8647,-2.8408,-2.8301,-2.8301,-2.8301,-2.8301,-2.8301,-2.8281,-2.8262,-2.8105,-2.7773,-2.7415,-2.6934,-2.6445,-2.6094,-2.5849,-2.5674,-2.5674,-2.5674,-2.5615,-2.5206,-2.466,-2.4231,-2.3861,-2.3452,-2.3101,-2.3101,-2.3101,-2.3101,-2.3101,-2.3101,-2.3101,-2.3101,-2.3101,-2.3101,-2.3101,-2.3101,-2.3101,-2.3101,-2.3101,-2.3101,-2.3101,-2.3276,-2.347,-2.3927,-2.4509,-2.5062,-2.5549,-2.5843,-2.5884,-2.5759,-2.5295,-2.4871,-2.47,-2.4529,-2.41,-2.3624,-2.3406,-2.3256,-2.3012,-2.2676,-2.2363,-2.1992,-2.1721,-2.1626,-2.149,-2.1392,-2.1451,-2.1194,-2.0742,-2.0644,-2.0683,-2.0605,-2.0605,-2.0605,-2.0605,-2.0605,-2.0605,-2.0605,-2.0586,-2.0546,-2.0566,-2.0468,-2.0507,-2.0526,-2.041,-2.0273,-2.0312,-2.0273,-2.041,-2.8055,-2.738,-2.7232,-2.7271,-2.7365,-2.7349,-2.7317,-2.7317,-2.7337,-2.742,-2.787,-2.8411,-2.9274,-3.0232,-3.0884,-3.0936,-3.0555,-3.0026,-2.9533,-2.894,-2.8781,-2.8568,-2.8514,-2.8514,-2.8408,-2.8354,-2.8354,-2.8301,-2.8301,-2.8301,-2.8301,-2.8301,-2.8301,-2.8125,-2.7734,-2.7454,-2.6992,-2.6582,-2.6211,-2.5791,-2.5771,-2.5674,-2.5674,-2.5674,-2.5674,-2.5109,-2.4621,-2.4453,-2.3842,-2.3374,-2.3101,-2.3101,-2.3101,-2.3101,-2.3101,-2.3101,-2.3101,-2.3101,-2.3101,-2.3101,-2.3101,-2.3101,-2.3101,-2.3101,-2.3101,-2.3144,-2.3276,-2.3537,-2.3884,-2.4487,-2.5062,-2.5653,-2.6113,-2.6279,-2.6362,-2.6052,-2.5611,-2.5232,-2.4978,-2.4637,-2.4229,-2.3841,-2.3537,-2.3406,-2.3212,-2.2957,-2.2761,-2.247,-2.2482,-2.2264,-2.2087,-2.211,-2.213,-2.1432,-2.086,-2.0801,-2.0781,-2.0703,-2.0605,-2.0605,-2.0605,-2.0605,-2.0605,-2.0605,-2.0605,-2.0586,-2.0605,-2.0664,-2.0683,-2.0682,-2.0624,-2.0566,-2.0605,-2.0644,-2.0644]},{"header":{"parameterUnit":"m.s-1","parameterCategory":1,"la1":31.0,"la2":29.5877,"lo1":-88.7671,"lo2":-86.6584,"dy":0.0162,"dx":0.0185,"nx":115,"ny":88,"refTime":"2023-08-14T06:00:00:Z","depth":0,"parameterNumber":3,"parameterNumberName":"V-component_of_WINDS"},"data":[0.0,0.0,0.0,0.0,0.0,0.0,0.0,0.0,0.0,0.0,0.0,0.0,0.0,0.0,0.0,0.0,0.0,0.0,0.0,0.0,0.0,0.0,0.0,0.0,0.0,0.0,0.0,0.0,0.0,0.0,0.0,0.0,0.0,0.0,0.0,0.0,0.0,0.0,0.0,0.0,0.0,0.0,0.0,0.0,0.0,0.0,0.0,0.0,0.0,0.0,0.0,0.0,0.0,0.0,0.0,0.0,0.0,0.0,0.0,0.0,0.0,0.0,0.0,0.0,0.0,0.0,0.0,0.0,0.0,0.0,0.0,0.0,0.0,0.0,0.0,0.0,0.0,0.0,0.0,0.0,0.0,0.0,0.0,0.0,0.0,0.0,0.0,0.0,0.0,0.0,0.0,0.0,0.0,0.0,0.0,0.0,0.0,0.0,0.0,0.0,0.0,0.0,0.0,0.0,0.0,0.0,0.0,0.0,0.0,0.0,0.0,0.0,0.0,0.0,0.0,0.0,0.0,0.0,0.0,0.0,0.0,0.0,0.0,0.0,0.0,0.0,0.0,0.0,0.0,0.0,0.0,0.0,0.0,0.0,0.0,0.0,0.0,0.0,0.0,0.0,0.0,0.0,0.0,0.0,0.0,0.0,0.0,0.0,0.0,0.0,0.0,0.0,0.0,0.0,0.0,0.0,0.0,0.0,0.0,0.0,0.0,0.0,0.0,0.0,0.0,0.0,0.0,0.0,0.0,0.0,0.0,0.0,0.0,0.0,0.0,0.0,0.0,0.0,0.0,0.0,0.0,0.0,0.0,0.0,0.0,0.0,0.0,0.0,0.0,0.0,0.0,0.0,0.0,0.0,0.0,0.0,0.0,0.0,0.0,0.0,0.0,0.0,0.0,0.0,0.0,0.0,0.0,0.0,0.0,0.0,0.0,0.0,0.0,0.0,0.0,0.0,0.0,0.0,0.0,0.0,0.0,0.0,0.0,0.0,0.0,0.0,0.0,0.0,0.0,0.0,0.0,0.0,0.0,0.0,0.0,0.0,0.0,0.0,0.0,0.0,0.0,0.0,0.0,0.0,0.0,0.0,0.0,0.0,0.0,0.0,0.0,0.0,0.0,0.0,0.0,0.0,0.0,0.0,0.0,0.0,0.0,0.0,0.0,0.0,0.0,0.0,0.0,0.0,0.0,0.0,0.0,0.0,0.0,0.0,0.0,0.0,0.0,0.0,0.0,0.0,0.0,0.0,0.0,0.0,0.0,0.0,0.0,0.0,0.0,0.0,0.0,0.0,0.0,0.0,0.0,0.0,0.0,0.0,0.0,0.0,0.0,0.0,0.0,0.0,0.0,0.0,0.0,0.0,0.0,0.0,0.0,0.0,0.0,0.0,0.0,0.0,0.0,0.0,0.0,0.0,0.0,0.0,0.0,0.0,0.0,0.0,0.0,0.0,0.0,0.0,0.0,0.0,0.0,0.0,0.0,0.0,0.0,0.0,0.0,0.0,0.0,0.0,0.0,0.0,0.0,0.0,0.0,0.0,0.0,0.0,0.0,0.0,0.0,0.0,0.0,0.0,0.0,0.0,0.0,0.0,0.0,0.0,0.0,0.0,0.0,0.0,0.0,0.0,0.0,0.0,0.0,0.0,0.0,0.0,0.0,0.0,0.0,0.0,0.0,0.0,0.0,0.0,0.0,0.0,0.0,0.0,0.0,0.0,0.0,0.0,0.0,0.0,0.0,0.0,0.0,0.0,0.0,0.0,0.0,0.0,0.0,0.0,0.0,0.0,0.0,0.0,0.0,0.0,0.0,0.0,0.0,0.0,0.0,0.0,0.0,0.0,0.0,0.0,0.0,0.0,0.0,0.0,0.0,0.0,0.0,0.0,0.0,0.0,0.0,0.0,0.0,0.0,0.0,0.0,0.0,0.0,0.0,0.0,0.0,0.0,0.0,0.0,0.0,0.0,0.0,0.0,0.0,0.0,0.0,0.0,0.0,0.0,0.0,0.0,0.0,0.0,0.0,0.0,0.0,0.0,0.0,0.0,0.0,0.0,0.0,0.0,0.0,0.0,0.0,0.0,0.0,0.0,0.0,0.0,0.0,0.0,0.0,0.0,0.0,0.0,0.0,0.0,0.0,0.0,0.0,0.0,0.0,0.0,0.0,0.0,0.0,0.0,0.0,0.0,0.0,0.0,0.0,0.0,0.0,0.0,0.0,0.0,0.0,0.0,0.0,0.0,0.0,0.0,0.0,0.0,0.0,0.0,0.0,0.0,0.0,0.0,0.0,0.0,0.0,0.0,0.0,0.0,0.0,0.0,0.0,0.0,0.0,0.0,0.0,0.0,0.0,0.0,0.0,0.0,0.0,0.0,0.0,0.0,0.0,0.0,0.0,0.0,0.0,0.0,0.0,0.0,0.0,0.0,0.0,0.0,0.0,0.0,0.0,0.0,0.0,0.0,0.0,0.0,0.0,0.0,0.0,0.0,0.0,0.0,0.0,0.0,0.0,0.0,0.0,0.0,0.0,0.0,0.0,0.0,0.0,0.0,0.0,0.0,0.0,0.0,0.0,0.0,0.0,0.0,0.0,0.0,0.0,0.0,0.0,0.0,0.0,0.0,0.0,0.0,0.0,0.0,0.0,0.0,0.0,0.0,0.0,0.0,0.0,0.0,0.0,0.0,0.0,0.0,0.0,0.0,0.0,0.0,0.0,0.0,0.0,0.0,0.0,0.0,0.0,0.0,0.0,0.0,0.0,0.0,0.0,0.0,0.0,0.0,0.0,0.0,0.0,0.0,0.0,0.0,0.0,0.0,0.0,0.0,0.0,0.0,0.0,0.0,0.0,0.0,0.0,0.0,0.0,0.0,0.0,0.0,0.0,0.0,0.0,0.0,0.0,0.0,0.0,0.0,0.0,0.0,0.0,0.0,0.0,0.0,0.0,0.0,0.0,0.0,0.0,0.0,0.0,0.0,0.0,0.0,0.0,0.0,0.0,0.0,0.0,0.0,0.0,0.0,0.0,0.0,0.0,0.0,0.0,0.0,0.0,0.0,0.0,0.0,0.0,0.0,0.0,0.0,0.0,0.0,0.0,0.0,0.0,0.0,0.0,0.0,0.0,0.0,0.0,0.0,0.0,0.0,0.0,0.0,0.0,0.0,0.0,0.0,0.0,0.0,0.0,0.0,0.0,0.0,0.0,0.0,0.0,0.0,0.0,0.0,0.0,0.0,0.0,0.0,0.0,0.0,0.0,0.0,0.0,0.0,0.0,0.0,0.0,0.0,0.0,0.0,0.0,0.0,0.0,0.0,0.0,0.0,0.0,0.0,0.0,0.0,0.0,0.0,0.0,0.0,0.0,0.0,0.0,0.0,0.0,0.0,0.0,0.0,0.0,0.0,0.0,0.0,0.0,0.0,0.0,0.0,0.0,0.0,0.0,0.0,0.0,0.0,0.0,0.0,0.0,0.0,0.0,0.0,0.0,0.0,0.0,0.0,0.0,0.0,0.0,0.0,0.0,0.0,0.0,0.0,0.0,0.0,0.0,0.0,0.0,0.0,0.0,0.0,0.0,0.0,0.0,0.0,0.0,0.0,0.0,0.0,0.0,0.0,0.0,0.0,0.0,0.0,0.0,0.0,0.0,0.0,0.0,0.0,0.0,0.0,0.0,0.0,0.0,0.0,0.0,0.0,0.0,0.0,0.0,0.0,0.0,0.0,0.0,0.0,0.0,0.0,0.0,0.0,0.0,0.0,0.0,0.0,0.0,0.0,0.0,0.0,0.0,0.0,0.0,0.0,0.0,0.0,0.0,0.0,0.0,0.0,0.0,0.0,0.0,0.0,0.0,0.0,0.0,0.0,0.0,0.0,0.0,0.0,0.0,0.0,0.0,0.0,0.0,0.0,0.0,0.0,0.0,0.0,0.0,0.0,0.0,0.0,0.0,0.0,0.0,0.0,0.0,0.0,0.0,0.0,0.0,0.0,0.0,0.0,0.0,0.0,0.0,0.0,0.0,0.0,0.0,0.0,0.0,0.0,0.0,0.0,0.0,0.0,0.0,0.0,0.0,0.0,0.0,0.0,0.0,0.0,0.0,0.0,0.0,0.0,0.0,0.0,0.0,0.0,0.0,0.0,0.0,0.0,0.0,0.0,0.0,0.0,0.0,0.0,0.0,0.0,0.0,0.0,0.0,0.0,0.0,0.0,0.0,0.0,0.0,0.0,0.0,0.0,0.0,0.0,0.0,0.0,0.0,0.0,0.0,0.0,0.0,0.0,-0.204,0.0,0.0,0.0,0.0,0.0,0.0,0.0,0.0,0.0,0.0,0.0,0.0,0.0,0.0,0.0,0.0,0.0,0.0,0.0,0.0,0.0,0.0,0.0,0.0,0.0,0.0,0.0,0.0,0.0,0.0,0.0,0.0,0.0,0.0,0.0,0.0,0.0,0.0,0.0,0.0,0.0,0.0,0.0,0.0,0.0,0.0,0.0,0.0,0.0,0.0,0.0,0.0,0.0,0.0,0.0,0.0,0.0,0.0,0.0,0.0,0.0,0.0,0.0,0.0,0.0,0.0,0.0,0.0,0.0,0.0,0.0,0.0,0.0,0.0,0.0,0.0,0.0,0.0,0.0,0.0,0.0,0.0,0.0,0.0,0.0,0.0,0.0,0.0,0.0,0.0,0.0,0.0,0.0,0.0,0.0,0.0,0.0,0.0,0.0,0.0,0.0,0.0,0.0,0.0,0.0,0.0,0.0,0.0,0.0,0.0,-0.2917,-0.2607,-0.2486,-0.2469,-0.2542,0.0,0.0,0.0,0.0,0.0,0.0,0.0,0.0,0.0,0.0,0.0,0.0,0.0,0.0,0.0,0.0,0.0,0.0,0.0,0.0,0.0,0.0,0.0,0.0,0.0,0.0,0.0,0.0,0.0,0.0,0.0,0.0,0.0,0.0,0.0,0.0,0.0,0.0,0.0,0.0,0.0,0.0,0.0,0.0,0.0,0.0,0.0,0.0,0.0,0.0,0.0,0.0,0.0,0.0,0.0,0.0,0.0,0.0,0.0,0.0,0.0,0.0,0.0,0.0,0.0,0.0,0.0,0.0,0.0,0.0,0.0,0.0,0.0,0.0,0.0,0.0,0.0,0.0,0.0,0.0,0.0,0.0,0.0,0.0,0.0,0.0,0.0,0.0,0.0,0.0,0.0,0.0,0.0,0.0,0.0,0.0,0.0,0.0,0.0,0.0,0.0,0.0,0.0,0.0,0.0,0.0,0.0,0.0,0.0,0.0,0.0,0.0,-0.3116,-0.308,-0.3102,0.0,0.0,0.0,0.0,0.0,0.0,0.0,0.0,0.0,0.0,0.0,0.0,0.0,0.0,0.0,0.0,0.0,0.0,0.0,0.0,0.0,0.0,0.0,0.0,0.0,0.0,0.0,0.0,0.0,0.0,0.0,0.0,0.0,0.0,0.0,0.0,0.0,0.0,0.0,0.0,0.0,0.0,0.0,0.0,0.0,0.0,0.0,0.0,0.0,0.0,0.0,0.0,0.0,0.0,0.0,0.0,0.0,0.0,0.0,0.0,0.0,0.0,0.0,0.0,0.0,0.0,0.0,0.0,0.0,0.0,0.0,0.0,0.0,0.0,0.0,0.0,0.0,0.0,0.0,0.0,0.0,0.0,0.0,0.0,0.0,0.0,0.0,0.0,0.0,0.0,0.0,0.0,0.0,0.0,0.0,0.0,0.0,0.0,0.0,0.0,0.0,0.0,0.0,0.0,0.0,0.0,0.0,0.0,0.0,0.0,-0.3819,-0.3742,-0.3763,0.0,-0.3705,0.0,0.0,0.0,0.0,0.0,0.0,0.0,0.0,0.0,0.0,0.0,0.0,0.0,0.0,0.0,0.0,0.0,0.0,0.0,0.0,0.0,0.0,0.0,0.0,0.0,0.0,0.0,0.0,0.0,0.0,0.0,0.0,0.0,0.0,0.0,0.0,0.0,0.0,0.0,0.0,0.0,0.0,0.0,0.0,0.0,0.0,0.0,0.0,0.0,0.0,0.0,0.0,0.0,0.0,0.0,0.0,0.0,0.0,0.0,0.0,0.0,0.0,0.0,0.0,0.0,0.0,0.0,0.0,0.0,0.0,0.0,0.0,0.0,0.0,0.0,0.0,0.0,0.0,0.0,0.0,0.0,0.0,0.0,0.0,0.0,0.0,0.0,0.0,0.0,0.0,0.0,0.0,0.0,0.0,0.0,0.0,0.0,0.0,0.0,0.0,0.0,0.0,0.0,0.0,0.0,0.0,0.0,0.0,0.0,0.0,-0.4474,-0.4442,-0.4322,-0.4223,0.0,0.0,0.0,0.0,0.0,0.0,0.0,0.0,0.0,0.0,0.0,0.0,0.0,0.0,0.0,0.0,0.0,0.0,0.0,0.0,0.0,0.0,0.0,0.0,0.0,0.0,0.0,0.0,0.0,0.0,0.0,0.0,0.0,0.0,0.0,0.0,0.0,0.0,0.0,0.0,0.0,0.0,0.0,0.0,0.0,0.0,0.0,0.0,0.0,0.0,0.0,0.0,0.0,0.0,0.0,0.0,0.0,0.0,0.0,0.0,0.0,0.0,0.0,0.0,0.0,0.0,0.0,0.0,0.0,0.0,0.0,0.0,0.0,0.0,0.0,0.0,0.0,0.0,0.0,0.0,0.0,0.0,0.0,0.0,0.0,0.0,0.0,0.0,0.0,0.0,0.0,0.0,0.0,0.0,0.0,0.0,0.0,0.0,0.0,0.0,0.0,0.0,0.0,0.0,0.0,0.0,0.0,0.0,0.0,0.0,-0.5027,-0.509,-0.5143,-0.4858,-0.4697,-0.4682,0.0,0.0,0.0,0.0,0.0,0.0,0.0,0.0,0.0,0.0,0.0,0.0,0.0,0.0,0.0,0.0,0.0,0.0,0.0,0.0,0.0,0.0,0.0,0.0,0.0,0.0,0.0,0.0,0.0,0.0,0.0,0.0,0.0,0.0,0.0,0.0,0.0,0.0,0.0,0.0,0.0,0.0,0.0,0.0,0.0,0.0,0.0,0.0,0.0,0.0,0.0,0.0,0.0,0.0,0.0,0.0,0.0,0.0,0.0,0.0,0.0,0.0,0.0,0.0,0.0,0.0,0.0,0.0,0.0,0.0,0.0,0.0,0.0,0.0,0.0,0.0,0.0,0.0,0.0,0.0,0.0,0.0,0.0,0.0,0.0,0.0,0.0,0.0,0.0,0.0,0.0,0.0,0.0,0.0,0.0,0.0,0.0,0.0,0.0,0.0,0.0,0.0,0.0,0.0,0.0,0.0,0.0,0.0,-0.5293,-0.5343,-0.5547,-0.5828,-0.5412,-0.5224,0.0,0.0,0.0,0.0,0.0,0.0,0.0,0.0,0.0,0.0,0.0,0.0,0.0,0.0,0.0,0.0,0.0,0.0,0.0,0.0,0.0,0.0,0.0,0.0,0.0,0.0,0.0,0.0,0.0,0.0,0.0,0.0,0.0,0.0,0.0,0.0,0.0,0.0,0.0,0.0,0.0,0.0,0.0,0.0,0.0,0.0,0.0,0.0,0.0,0.0,0.0,0.0,0.0,0.0,0.0,0.0,0.0,0.0,0.0,0.0,0.0,0.0,0.0,0.0,0.0,0.0,0.0,0.0,0.0,0.0,0.0,0.0,0.0,0.0,0.0,0.0,0.0,0.0,0.0,0.0,0.0,0.0,0.0,0.0,0.0,0.0,0.0,0.0,0.0,0.0,0.0,0.0,0.0,0.0,0.0,0.0,0.0,0.0,0.0,0.0,0.0,0.0,0.0,0.0,0.0,0.0,0.0,0.0,0.0,-0.5703,-0.5889,-0.6137,-0.6443,-0.5865,-0.5596,0.0,0.0,0.0,0.0,0.0,0.0,0.0,0.0,0.0,0.0,0.0,0.0,0.0,0.0,0.0,0.0,0.0,0.0,0.0,0.0,0.0,0.0,0.0,0.0,0.0,0.0,0.0,0.0,0.0,0.0,0.0,0.0,0.0,0.0,0.0,0.0,0.0,0.0,0.0,0.0,0.0,0.0,0.0,0.0,0.0,0.0,0.0,0.0,0.0,0.0,0.0,0.0,0.0,0.0,0.0,0.0,0.0,0.0,0.0,0.0,0.0,0.0,0.0,0.0,0.0,0.0,0.0,0.0,0.0,0.0,0.0,0.0,0.0,0.0,0.0,0.0,0.0,0.0,0.0,0.0,0.0,0.0,0.0,0.0,0.0,0.0,0.0,0.0,0.0,0.0,0.0,0.0,0.0,0.0,0.0,0.0,0.0,0.0,0.0,0.0,0.0,0.0,0.0,0.0,0.0,0.0,0.0,0.0,0.0,-0.6183,0.0,-0.6658,-0.6897,-0.6407,-0.6086,0.0,0.0,0.0,0.0,0.0,0.0,0.0,0.0,0.0,0.0,0.0,0.0,0.0,0.0,0.0,0.0,0.0,0.0,0.0,0.0,0.0,0.0,0.0,0.0,0.0,0.0,0.0,0.0,0.0,0.0,0.0,0.0,0.0,0.0,0.0,0.0,0.0,0.0,0.0,0.0,0.0,0.0,0.0,0.0,0.0,0.0,0.0,0.0,0.0,0.0,0.0,0.0,0.0,0.0,0.0,0.0,0.0,0.0,0.0,0.0,0.0,0.0,0.0,0.0,0.0,0.0,0.0,0.0,0.0,0.0,0.0,0.0,0.0,0.0,0.0,0.0,0.0,0.0,0.0,0.0,0.0,0.0,0.0,0.0,0.0,0.0,0.0,0.0,0.0,0.0,0.0,0.0,0.0,0.0,0.0,0.0,0.0,0.0,0.0,0.0,0.0,0.0,0.0,0.0,0.0,0.0,0.0,0.0,-0.6737,-0.6846,-0.6998,-0.7182,-0.7244,-0.7135,-0.6803,0.0,0.0,0.0,0.0,0.0,0.0,0.0,0.0,0.0,0.0,0.0,0.0,0.0,0.0,0.0,0.0,0.0,0.0,0.0,0.0,0.0,0.0,0.0,0.0,0.0,0.0,0.0,0.0,0.0,0.0,0.0,0.0,0.0,0.0,0.0,0.0,0.0,0.0,0.0,0.0,0.0,0.0,0.0,0.0,0.0,0.0,0.0,0.0,0.0,0.0,0.0,0.0,0.0,0.0,0.0,0.0,0.0,0.0,0.0,0.0,0.0,0.0,0.0,0.0,0.0,0.0,0.0,0.0,0.0,0.0,0.0,0.0,0.0,0.0,0.0,0.0,0.0,0.0,0.0,0.0,0.0,0.0,0.0,0.0,0.0,0.0,0.0,0.0,0.0,0.0,0.0,0.0,0.0,0.0,0.0,0.0,0.0,0.0,0.0,0.0,0.0,0.0,0.0,0.0,0.0,0.0,0.0,0.0,0.0,-0.8818,-0.887,-0.904,-0.9221,-0.8637,-0.8074,0.0,0.0,0.0,0.0,0.0,0.0,0.0,0.0,0.0,0.0,0.0,0.0,0.0,0.0,0.0,0.0,0.0,0.0,0.0,0.0,0.0,0.0,0.0,0.0,0.0,0.0,0.0,0.0,0.0,0.0,0.0,0.0,0.0,0.0,0.0,0.0,0.0,0.0,0.0,0.0,0.0,0.0,0.0,0.0,0.0,0.0,0.0,0.0,0.0,0.0,0.0,0.0,0.0,0.0,0.0,0.0,0.0,0.0,0.0,0.0,0.0,0.0,0.0,0.0,0.0,0.0,0.0,0.0,0.0,0.0,0.0,0.0,0.0,0.0,0.0,0.0,0.0,0.0,0.0,0.0,0.0,0.0,0.0,0.0,0.0,0.0,0.0,0.0,0.0,0.0,0.0,0.0,0.0,0.0,0.0,0.0,0.0,0.0,0.0,0.0,0.0,0.0,0.0,0.0,0.0,0.0,0.0,0.0,0.0,-1.2275,-1.1647,-1.1329,-1.1349,-1.0694,-0.9745,-0.8578,0.0,0.0,0.0,0.0,0.0,0.0,0.0,0.0,0.0,0.0,0.0,0.0,0.0,0.0,0.0,0.0,0.0,0.0,0.0,0.0,0.0,0.0,0.0,0.0,0.0,0.0,0.0,0.0,0.0,0.0,0.0,0.0,0.0,0.0,0.0,0.0,0.0,0.0,0.0,0.0,0.0,0.0,0.0,0.0,0.0,0.0,0.0,0.0,0.0,0.0,0.0,0.0,0.0,0.0,0.0,0.0,0.0,0.0,0.0,0.0,0.0,0.0,0.0,0.0,0.0,0.0,0.0,0.0,0.0,0.0,0.0,0.0,0.0,0.0,0.0,0.0,0.0,0.0,0.0,0.0,0.0,0.0,0.0,0.0,0.0,0.0,0.0,0.0,0.0,0.0,0.0,0.0,0.0,0.0,0.0,0.0,0.0,0.0,0.0,0.0,0.0,0.0,0.0,0.0,0.0,0.0,0.0,0.0,-1.6863,-1.5312,-1.4226,-1.3638,-1.3157,-1.1818,0.0,0.0,0.0,0.0,0.0,0.0,0.0,0.0,0.0,0.0,0.0,0.0,0.0,0.0,0.0,0.0,0.0,0.0,0.0,0.0,0.0,0.0,0.0,0.0,0.0,0.0,0.0,0.0,0.0,0.0,0.0,0.0,0.0,0.0,0.0,0.0,0.0,0.0,0.0,0.0,0.0,0.0,0.0,0.0,0.0,0.0,0.0,0.0,0.0,0.0,0.0,0.0,0.0,0.0,0.0,0.0,0.0,0.0,0.0,0.0,0.0,0.0,0.0,0.0,0.0,0.0,0.0,0.0,0.0,0.0,0.0,0.0,0.0,0.0,0.0,0.0,0.0,0.0,0.0,0.0,0.0,0.0,0.0,0.0,0.0,0.0,0.0,0.0,0.0,0.0,0.0,0.0,0.0,0.0,0.0,0.0,0.0,0.0,0.0,0.0,0.0,0.0,0.0,0.0,0.0,0.0,0.0,0.0,0.0,-1.9507,-2.0792,-2.0103,-1.7319,-1.601,-1.4247,0.0,0.0,0.0,0.0,0.0,0.0,0.0,0.0,0.0,0.0,0.0,0.0,0.0,0.0,0.0,0.0,0.0,0.0,0.0,0.0,0.0,0.0,0.0,0.0,0.0,0.0,0.0,0.0,0.0,0.0,0.0,0.0,0.0,0.0,0.0,0.0,0.0,0.0,0.0,0.0,0.0,0.0,0.0,0.0,0.0,0.0,0.0,0.0,0.0,0.0,0.0,0.0,0.0,0.0,0.0,0.0,0.0,0.0,0.0,0.0,0.0,0.0,0.0,0.0,0.0,0.0,0.0,0.0,0.0,0.0,0.0,0.0,0.0,0.0,0.0,0.0,0.0,0.0,0.0,0.0,0.0,0.0,0.0,0.0,0.0,0.0,0.0,0.0,0.0,0.0,0.0,0.0,0.0,0.0,0.0,0.0,0.0,0.0,0.0,0.0,0.0,0.0,0.0,0.0,0.0,0.0,0.0,0.0,-1.9322,-2.1823,-2.3911,-2.3977,-2.1844,-1.951,-1.6836,0.0,0.0,0.0,0.0,0.0,0.0,0.0,0.0,0.0,0.0,0.0,0.0,0.0,0.0,0.0,0.0,0.0,0.0,0.0,0.0,0.0,0.0,0.0,0.0,0.0,0.0,0.0,0.0,0.0,0.0,0.0,0.0,0.0,0.0,0.0,0.0,0.0,0.0,0.0,0.0,0.0,0.0,0.0,0.0,0.0,0.0,0.0,0.0,0.0,0.0,0.0,0.0,0.0,0.0,0.0,0.0,0.0,0.0,0.0,0.0,0.0,0.0,0.0,0.0,0.0,0.0,0.0,0.0,0.0,0.0,0.0,0.0,0.0,0.0,0.0,0.0,0.0,0.0,0.0,0.0,0.0,0.0,0.0,0.0,0.0,0.0,0.0,0.0,0.0,0.0,0.0,0.0,0.0,0.0,0.0,0.0,0.0,0.0,0.0,0.0,0.0,0.0,0.0,0.0,0.0,0.0,0.0,0.0,-2.0874,-2.3772,-2.5569,-2.6461,-2.6302,-2.3016,-1.9364,0.0,0.0,0.0,0.0,0.0,0.0,0.0,0.0,0.0,0.0,0.0,0.0,0.0,0.0,0.0,0.0,0.0,0.0,0.0,0.0,0.0,0.0,0.0,0.0,0.0,0.0,0.0,0.0,0.0,0.0,0.0,0.0,0.0,0.0,0.0,0.0,0.0,0.0,0.0,0.0,0.0,0.0,0.0,0.0,0.0,0.0,0.0,0.0,0.0,0.0,0.0,0.0,0.0,0.0,0.0,0.0,0.0,0.0,0.0,0.0,0.0,0.0,0.0,0.0,0.0,0.0,0.0,0.0,0.0,0.0,0.0,0.0,0.0,0.0,0.0,0.0,0.0,0.0,0.0,0.0,0.0,0.0,0.0,0.0,0.0,0.0,0.0,0.0,0.0,0.0,0.0,0.0,0.0,0.0,0.0,0.0,0.0,0.0,0.0,0.0,0.0,0.0,0.0,0.0,0.0,0.0,0.0,0.0,-2.202,-2.5192,-2.7318,-2.8184,-2.7686,-2.4368,-2.1085,0.0,0.0,0.0,0.0,0.0,0.0,0.0,0.0,0.0,0.0,0.0,0.0,0.0,0.0,0.0,0.0,0.0,0.0,0.0,0.0,0.0,0.0,0.0,0.0,0.0,0.0,0.0,0.0,0.0,0.0,0.0,0.0,0.0,0.0,0.0,0.0,0.0,0.0,0.0,0.0,0.0,0.0,0.0,0.0,0.0,0.0,0.0,0.0,-0.8276,0.0,0.0,0.0,0.0,0.0,0.0,0.0,0.0,0.0,0.0,0.0,0.0,0.0,0.0,0.0,0.0,0.0,0.0,0.0,0.0,0.0,0.0,0.0,0.0,0.0,0.0,0.0,0.0,0.0,0.0,0.0,0.0,0.0,0.0,0.0,0.0,0.0,0.0,0.0,0.0,0.0,0.0,0.0,0.0,0.0,0.0,0.0,0.0,0.0,0.0,0.0,0.0,0.0,0.0,0.0,0.0,0.0,0.0,0.0,-2.3624,-2.6514,-2.8612,-2.9424,-2.883,-2.6343,-2.3277,0.0,0.0,0.0,0.0,0.0,0.0,0.0,0.0,0.0,0.0,0.0,0.0,0.0,0.0,0.0,0.0,0.0,0.0,0.0,0.0,0.0,0.0,0.0,0.0,0.0,0.0,0.0,0.0,0.0,0.0,0.0,0.0,0.0,0.0,0.0,0.0,0.0,0.0,0.0,0.0,0.0,0.0,0.0,0.0,0.0,0.0,0.0,0.0,0.0,0.0,0.0,0.0,0.0,0.0,0.0,0.0,0.0,0.0,0.0,0.0,0.0,0.0,0.0,0.0,0.0,0.0,0.0,0.0,0.0,0.0,0.0,0.0,0.0,0.0,0.0,0.0,0.0,0.0,0.0,0.0,0.0,0.0,0.0,0.0,0.0,0.0,0.0,0.0,0.0,0.0,0.0,0.0,0.0,0.0,0.0,0.0,0.0,0.0,0.0,0.0,0.0,0.0,0.0,0.0,0.0,0.0,0.0,-2.2021,-2.5049,-2.7637,-2.9653,-3.0477,-3.0035,-2.8454,-2.5593,-2.137,0.0,0.0,0.0,0.0,0.0,0.0,0.0,0.0,0.0,0.0,0.0,0.0,0.0,0.0,0.0,0.0,0.0,0.0,0.0,0.0,0.0,0.0,0.0,0.0,0.0,0.0,0.0,0.0,0.0,0.0,0.0,0.0,0.0,0.0,0.0,0.0,0.0,0.0,-0.9793,-0.9894,0.0,0.0,0.0,0.0,0.0,0.0,0.0,0.0,-1.0224,0.0,0.0,0.0,0.0,0.0,0.0,0.0,0.0,0.0,0.0,0.0,0.0,0.0,0.0,0.0,0.0,0.0,0.0,0.0,0.0,0.0,0.0,0.0,0.0,0.0,0.0,0.0,0.0,0.0,0.0,0.0,0.0,0.0,0.0,0.0,0.0,0.0,0.0,0.0,0.0,0.0,0.0,0.0,0.0,0.0,0.0,0.0,0.0,0.0,0.0,0.0,0.0,0.0,0.0,0.0,0.0,-1.9222,-2.253,-2.5474,-2.8065,-3.0549,-3.1619,-3.1116,-3.0055,-2.7591,-2.3652,0.0,0.0,0.0,0.0,0.0,0.0,0.0,0.0,0.0,0.0,0.0,0.0,0.0,0.0,0.0,0.0,0.0,0.0,0.0,0.0,0.0,0.0,0.0,0.0,0.0,0.0,0.0,0.0,0.0,0.0,0.0,0.0,0.0,0.0,0.0,0.0,0.0,0.0,0.0,-1.0983,-1.1265,0.0,0.0,0.0,0.0,0.0,0.0,0.0,0.0,-1.0898,0.0,0.0,0.0,0.0,0.0,0.0,0.0,0.0,0.0,0.0,0.0,0.0,0.0,0.0,0.0,0.0,0.0,0.0,0.0,0.0,0.0,0.0,0.0,0.0,0.0,0.0,0.0,0.0,0.0,0.0,0.0,0.0,0.0,0.0,0.0,0.0,0.0,0.0,0.0,0.0,0.0,0.0,0.0,0.0,0.0,0.0,0.0,0.0,0.0,0.0,0.0,0.0,0.0,0.0,0.0,-1.9718,-2.3575,-2.6664,-2.8839,-3.1562,-3.2642,-3.1968,-3.0456,-2.7969,0.0,0.0,0.0,0.0,0.0,0.0,0.0,0.0,0.0,0.0,0.0,0.0,0.0,0.0,0.0,0.0,0.0,0.0,0.0,0.0,0.0,0.0,0.0,0.0,0.0,0.0,0.0,0.0,0.0,0.0,0.0,0.0,0.0,0.0,0.0,0.0,0.0,0.0,0.0,0.0,-1.1412,-1.168,-1.1665,0.0,0.0,0.0,0.0,0.0,0.0,-1.2864,-1.3023,0.0,0.0,0.0,0.0,0.0,0.0,0.0,0.0,0.0,0.0,0.0,0.0,0.0,0.0,0.0,0.0,0.0,0.0,0.0,0.0,0.0,0.0,0.0,0.0,0.0,0.0,0.0,0.0,0.0,0.0,0.0,0.0,0.0,0.0,0.0,0.0,0.0,0.0,0.0,0.0,0.0,0.0,0.0,0.0,0.0,0.0,0.0,0.0,0.0,0.0,0.0,0.0,0.0,0.0,0.0,-2.0239,-2.4473,-2.7644,-2.962,-3.2331,-3.3412,-3.2643,-3.0656,-2.7991,0.0,0.0,0.0,0.0,0.0,0.0,0.0,0.0,0.0,0.0,0.0,0.0,0.0,0.0,0.0,0.0,0.0,0.0,0.0,0.0,0.0,0.0,0.0,0.0,0.0,0.0,0.0,0.0,0.0,0.0,0.0,0.0,0.0,0.0,0.0,0.0,0.0,0.0,0.0,0.0,0.0,-1.2404,-1.2388,-1.245,0.0,0.0,0.0,0.0,-1.4176,-1.4904,0.0,0.0,0.0,0.0,0.0,0.0,0.0,0.0,0.0,0.0,0.0,0.0,0.0,0.0,0.0,0.0,0.0,0.0,0.0,0.0,0.0,0.0,0.0,0.0,0.0,0.0,0.0,0.0,0.0,0.0,0.0,0.0,0.0,0.0,0.0,0.0,0.0,0.0,0.0,0.0,0.0,0.0,0.0,0.0,0.0,0.0,0.0,0.0,0.0,0.0,0.0,0.0,0.0,0.0,0.0,0.0,-2.1135,-2.4587,-2.7527,-2.9903,-3.2388,-3.3533,-3.3114,-3.1191,-2.8542,0.0,0.0,0.0,0.0,0.0,0.0,0.0,0.0,0.0,0.0,0.0,0.0,0.0,0.0,0.0,0.0,0.0,0.0,0.0,0.0,0.0,0.0,0.0,0.0,0.0,0.0,0.0,0.0,0.0,0.0,0.0,0.0,0.0,0.0,0.0,0.0,0.0,0.0,0.0,0.0,0.0,-1.4436,-1.4358,-1.4875,-1.5245,0.0,0.0,-1.5855,-1.6496,-1.616,0.0,0.0,0.0,0.0,0.0,0.0,0.0,0.0,0.0,0.0,0.0,0.0,0.0,0.0,0.0,0.0,0.0,0.0,0.0,0.0,0.0,0.0,0.0,0.0,0.0,0.0,0.0,0.0,0.0,0.0,0.0,0.0,0.0,0.0,0.0,0.0,0.0,0.0,0.0,0.0,0.0,0.0,0.0,0.0,0.0,0.0,0.0,0.0,0.0,0.0,0.0,0.0,0.0,0.0,0.0,-1.9418,-2.1678,-2.5126,-2.7854,-2.9809,-3.2183,-3.3025,-3.2229,-3.0238,-2.7758,0.0,0.0,0.0,0.0,0.0,0.0,0.0,0.0,0.0,0.0,0.0,0.0,0.0,0.0,0.0,0.0,0.0,0.0,0.0,0.0,0.0,0.0,0.0,0.0,0.0,0.0,0.0,0.0,0.0,0.0,0.0,0.0,0.0,0.0,0.0,0.0,0.0,0.0,0.0,0.0,0.0,0.0,-1.5083,-1.5666,0.0,0.0,0.0,-1.756,-1.7868,0.0,0.0,0.0,0.0,0.0,0.0,0.0,0.0,0.0,0.0,0.0,0.0,0.0,0.0,0.0,0.0,0.0,0.0,0.0,0.0,0.0,0.0,0.0,0.0,0.0,0.0,0.0,0.0,0.0,0.0,0.0,0.0,0.0,0.0,0.0,0.0,0.0,0.0,0.0,0.0,0.0,0.0,0.0,0.0,0.0,0.0,0.0,0.0,0.0,0.0,0.0,0.0,0.0,0.0,0.0,0.0,0.0,-2.2105,-2.5483,-2.8075,-2.9783,-3.187,-3.2526,-3.1482,-2.9488,0.0,0.0,0.0,0.0,0.0,0.0,0.0,0.0,0.0,0.0,0.0,0.0,0.0,0.0,0.0,0.0,0.0,0.0,0.0,0.0,0.0,0.0,0.0,0.0,0.0,0.0,0.0,-1.005,0.0,0.0,0.0,0.0,0.0,0.0,0.0,0.0,0.0,0.0,0.0,0.0,0.0,0.0,-1.5682,-1.5951,-1.6567,-1.7012,0.0,0.0,-1.8988,-1.8979,-1.9378,-1.9327,0.0,0.0,0.0,0.0,0.0,0.0,0.0,0.0,0.0,0.0,0.0,0.0,0.0,0.0,0.0,0.0,0.0,0.0,0.0,0.0,0.0,0.0,0.0,0.0,0.0,0.0,0.0,0.0,0.0,0.0,0.0,0.0,0.0,0.0,0.0,0.0,0.0,0.0,0.0,0.0,0.0,0.0,0.0,0.0,0.0,0.0,0.0,0.0,0.0,0.0,0.0,0.0,0.0,0.0,0.0,-2.2569,-2.5387,-2.7886,-3.0011,-3.1545,-3.208,-3.1511,-2.9459,-2.7144,0.0,0.0,0.0,0.0,0.0,0.0,0.0,0.0,0.0,0.0,0.0,0.0,0.0,0.0,0.0,0.0,0.0,0.0,0.0,0.0,0.0,0.0,0.0,0.0,0.0,0.0,0.0,0.0,0.0,0.0,0.0,0.0,0.0,0.0,0.0,0.0,0.0,0.0,0.0,0.0,0.0,-1.681,-1.7475,-1.8218,-1.8731,0.0,0.0,-1.9992,-2.007,-1.9942,-1.9449,-1.8149,0.0,0.0,0.0,0.0,0.0,0.0,0.0,0.0,0.0,0.0,0.0,0.0,0.0,0.0,0.0,0.0,0.0,0.0,0.0,0.0,0.0,0.0,0.0,0.0,0.0,0.0,0.0,0.0,0.0,0.0,0.0,0.0,0.0,0.0,0.0,0.0,0.0,0.0,0.0,0.0,0.0,0.0,0.0,0.0,0.0,0.0,0.0,0.0,0.0,0.0,0.0,0.0,0.0,-2.1268,-2.2843,-2.5682,-2.7971,-2.9618,-3.1068,-3.1303,-3.0342,-2.876,-2.6648,0.0,0.0,0.0,0.0,0.0,0.0,0.0,0.0,0.0,0.0,0.0,0.0,0.0,0.0,0.0,0.0,0.0,0.0,0.0,0.0,0.0,0.0,0.0,0.0,0.0,0.0,0.0,0.0,-1.3273,-1.3789,-1.3709,0.0,0.0,0.0,0.0,0.0,0.0,0.0,0.0,0.0,0.0,-1.7193,-1.7896,-1.8695,0.0,0.0,-1.9787,-2.0255,-2.0216,-2.0138,-1.9885,-1.9334,-1.7837,0.0,0.0,0.0,0.0,0.0,0.0,0.0,0.0,0.0,0.0,0.0,0.0,0.0,0.0,0.0,0.0,0.0,0.0,0.0,0.0,0.0,0.0,0.0,0.0,0.0,0.0,0.0,0.0,0.0,0.0,0.0,0.0,0.0,0.0,0.0,0.0,0.0,0.0,0.0,0.0,0.0,0.0,0.0,0.0,0.0,0.0,0.0,0.0,0.0,0.0,0.0,0.0,-2.1942,-2.345,-2.612,-2.8118,-2.9456,-3.0795,-3.0911,-2.9651,-2.8304,-2.6422,0.0,0.0,0.0,0.0,0.0,0.0,0.0,0.0,0.0,0.0,0.0,0.0,0.0,0.0,0.0,0.0,0.0,0.0,0.0,0.0,0.0,0.0,0.0,0.0,0.0,0.0,0.0,0.0,-1.3837,-1.4078,-1.3947,0.0,0.0,0.0,0.0,0.0,0.0,0.0,0.0,0.0,0.0,-1.769,-1.8418,-1.9042,-1.9362,-1.9354,-1.994,-2.0293,-1.9972,-2.0079,-2.0021,-1.9537,0.0,0.0,0.0,0.0,0.0,0.0,0.0,0.0,0.0,0.0,0.0,0.0,0.0,0.0,0.0,0.0,0.0,0.0,0.0,0.0,0.0,0.0,0.0,0.0,0.0,0.0,0.0,0.0,0.0,0.0,-1.7478,0.0,0.0,0.0,0.0,0.0,0.0,0.0,0.0,0.0,0.0,0.0,0.0,0.0,0.0,0.0,0.0,0.0,0.0,0.0,0.0,0.0,0.0,-2.2422,-2.4462,-2.6523,-2.8248,-2.9564,-3.0823,-3.0883,-2.9651,-2.8304,-2.6632,-2.4605,0.0,0.0,0.0,0.0,0.0,0.0,0.0,0.0,0.0,0.0,0.0,0.0,0.0,0.0,0.0,0.0,0.0,0.0,0.0,0.0,0.0,0.0,0.0,0.0,0.0,0.0,-1.4144,-1.4078,-1.3921,0.0,0.0,0.0,0.0,0.0,0.0,0.0,0.0,0.0,0.0,-1.7597,-1.8447,-1.9152,-1.9343,-1.9409,-1.9409,-1.994,-2.0146,-1.9434,-1.9768,-1.9624,0.0,0.0,0.0,0.0,0.0,0.0,0.0,0.0,0.0,0.0,0.0,0.0,0.0,0.0,0.0,0.0,0.0,0.0,0.0,0.0,0.0,0.0,0.0,0.0,0.0,0.0,0.0,-2.423,-2.3621,0.0,0.0,0.0,0.0,0.0,0.0,0.0,0.0,0.0,0.0,0.0,-2.853,-2.8583,0.0,0.0,0.0,0.0,0.0,0.0,0.0,0.0,0.0,0.0,0.0,0.0,-2.3555,-2.5176,-2.721,-2.8903,-3.0163,-3.1062,-3.0911,-2.9651,-2.8727,-2.6692,-2.343,0.0,0.0,0.0,0.0,0.0,0.0,0.0,0.0,0.0,0.0,0.0,0.0,0.0,0.0,0.0,0.0,0.0,0.0,0.0,0.0,0.0,0.0,0.0,0.0,0.0,-1.4589,0.0,0.0,0.0,0.0,0.0,0.0,0.0,0.0,0.0,0.0,0.0,-1.6689,-1.7491,-1.7992,-1.853,-1.9229,-1.9343,-1.9362,0.0,0.0,0.0,0.0,0.0,0.0,0.0,0.0,0.0,0.0,0.0,0.0,0.0,0.0,-1.7255,-1.6326,-1.6168,-1.6275,-1.6704,0.0,0.0,0.0,0.0,0.0,0.0,0.0,0.0,0.0,0.0,0.0,0.0,0.0,0.0,0.0,0.0,-2.6817,0.0,0.0,0.0,0.0,0.0,0.0,0.0,0.0,-3.0305,-3.1605,-3.2377,-3.2497,-3.2169,0.0,-3.0464,-2.8319,0.0,0.0,0.0,0.0,0.0,0.0,0.0,0.0,-2.4633,-2.623,-2.7803,-2.9235,-3.0462,-3.1152,-3.0883,-2.9651,-2.8248,-2.6123,-2.3101,-2.1565,-2.0198,0.0,0.0,0.0,0.0,0.0,0.0,0.0,0.0,0.0,0.0,0.0,0.0,0.0,0.0,0.0,0.0,0.0,0.0,0.0,0.0,0.0,0.0,0.0,-1.53,0.0,0.0,0.0,0.0,0.0,0.0,0.0,0.0,0.0,-1.5799,-1.6596,-1.7345,-1.7924,-1.8328,-1.8757,-1.9155,0.0,0.0,0.0,0.0,0.0,0.0,0.0,-1.9459,-1.9893,-1.9885,-2.0011,-2.0479,-2.0235,-1.9962,-1.9962,0.0,0.0,-1.8067,-1.78,-1.7911,-1.8314,-1.8877,-1.9376,-1.961,-2.0196,-2.0685,0.0,0.0,0.0,0.0,0.0,0.0,0.0,0.0,-3.4653,-3.4475,0.0,-3.181,0.0,0.0,0.0,0.0,0.0,-2.8764,0.0,0.0,-3.446,-3.5869,-3.6567,-3.6537,-3.6207,-3.5489,-3.3543,-3.1869,-3.0402,-2.738,0.0,0.0,0.0,0.0,0.0,0.0,-2.5634,-2.7615,-2.8338,-2.9265,-3.0522,-3.1152,-3.0911,-2.9592,-2.7021,-2.5016,-2.3699,-2.3002,-2.1774,-1.9887,-1.975,0.0,0.0,0.0,0.0,0.0,0.0,0.0,0.0,0.0,0.0,0.0,0.0,0.0,0.0,0.0,0.0,0.0,0.0,0.0,0.0,-1.629,0.0,0.0,0.0,0.0,0.0,0.0,0.0,0.0,0.0,0.0,-1.6599,-1.7271,-1.7876,-1.8039,0.0,0.0,0.0,0.0,-1.913,-1.913,-1.9159,-1.915,-1.9104,-1.9575,-2.0009,-2.0157,0.0,0.0,-2.1453,-2.1464,-2.1464,-2.1464,-2.1464,-2.103,-1.9715,-1.9431,-1.9597,-2.0302,-2.0941,-2.1671,-2.23,-2.2853,-2.3348,-4.2237,0.0,0.0,0.0,0.0,-3.6808,-3.7588,-3.8198,-3.8855,-3.8536,-3.7402,-3.6428,0.0,0.0,0.0,0.0,0.0,0.0,-3.3718,-3.5397,-3.7306,-3.8626,-3.926,-3.8811,-3.8212,-3.7524,-3.6058,-3.4412,-3.2647,-3.1689,-2.9505,-2.6219,0.0,0.0,0.0,0.0,-2.7953,-2.8992,-2.9624,-3.0372,-3.1182,-3.1391,-3.0883,-2.9621,-2.6991,-2.5173,-2.4335,-2.3251,-2.2224,-2.1205,-2.1145,0.0,0.0,0.0,0.0,0.0,0.0,0.0,0.0,0.0,0.0,0.0,0.0,0.0,0.0,0.0,0.0,0.0,0.0,0.0,-1.7124,-1.7079,-1.6876,0.0,0.0,0.0,0.0,0.0,0.0,0.0,0.0,0.0,-1.8621,-1.8569,-1.8597,0.0,0.0,-1.9101,-1.9101,-1.9508,-1.9817,-1.9895,0.0,0.0,0.0,-2.0712,-2.1024,-2.1512,-2.2275,-2.2837,-2.2986,-2.2978,-2.2957,-2.2957,-2.2957,-2.2829,-2.2429,-2.1515,-2.1198,-2.1893,-2.2539,-2.3165,-2.3851,-2.4507,-2.4954,-4.8222,-4.317,-4.1424,-4.0612,-4.0583,-4.1436,-4.2138,-4.2663,-4.314,-4.2733,-4.1599,-4.0829,-3.9066,-3.6539,-3.532,0.0,0.0,0.0,-3.6948,-3.8123,-3.9798,-4.0786,-4.1115,-4.0487,-3.9978,-3.9499,-3.7973,-3.6357,-3.4681,-3.4412,-3.2826,-3.0011,0.0,0.0,-2.8423,-2.9026,-2.9535,-2.9953,-3.0582,-3.1092,-3.1481,-3.1002,-3.0402,-2.9592,-2.6991,-2.5412,-2.4993,-2.3729,-2.2763,-2.2113,-2.2104,-2.1625,0.0,0.0,0.0,0.0,0.0,0.0,0.0,0.0,0.0,0.0,0.0,-1.6,0.0,0.0,0.0,0.0,-1.7413,-1.7833,-1.8161,-1.8387,0.0,0.0,0.0,0.0,0.0,0.0,0.0,-1.8198,-1.8827,-1.9462,-2.0096,-1.9929,-1.9797,-1.9914,-1.9934,-1.9953,-1.9992,0.0,-2.0645,-2.0685,-2.0988,-2.1231,-2.1283,-2.1469,-2.1871,-2.259,-2.3155,-2.3545,-2.3588,-2.361,-2.361,-2.361,-2.361,-2.361,-2.361,-2.2888,-2.245,-2.2981,-2.3759,-2.4537,-2.4933,-2.5734,-2.6393,-5.2695,-5.1199,-4.8073,-4.601,-4.4915,-4.6112,-4.6548,-4.6621,-4.7189,-4.6711,-4.5424,-4.4825,-4.312,-4.0606,-3.8751,0.0,-3.8721,-3.9439,-3.9971,-4.0606,-4.1901,-4.244,-4.2351,-4.1722,-4.1354,-4.1302,-3.9379,-3.7853,-3.6656,-3.5968,-3.5011,-3.3694,-3.1779,-3.0522,-2.9953,-3.0462,-3.0731,-3.0761,-3.1271,-3.157,-3.1481,-3.0253,-2.9621,-2.9592,-2.6991,-2.5615,-2.5555,-2.4328,-2.334,-2.2823,-2.2763,-2.2463,-2.1784,0.0,0.0,0.0,0.0,0.0,0.0,0.0,0.0,0.0,0.0,0.0,0.0,0.0,0.0,0.0,-1.9257,0.0,-1.9304,-1.9978,0.0,0.0,0.0,-1.903,-1.9051,-1.9156,-1.9566,-2.0338,0.0,0.0,-2.1137,0.0,-2.1369,-2.1389,-2.1281,-2.1263,-2.1385,-2.1414,-2.1493,-2.1493,-2.1553,-2.1582,-2.1721,-2.2085,-2.2617,-2.3287,-2.3566,-2.361,-2.361,-2.361,-2.361,-2.361,-2.361,-2.361,-2.361,-2.355,-2.361,-2.355,-2.4545,-2.5495,-2.5704,-2.6542,-2.7345,-5.5119,-5.3414,-5.2097,-5.0511,-4.882,-4.9119,-4.9015,-4.8596,-4.879,-4.8057,-4.68,-4.6651,-4.5394,-4.3329,-4.2333,-4.1743,-4.1512,-4.2102,-4.2222,-4.1991,-4.2731,-4.2851,-4.2381,-4.1722,-4.1115,-4.0576,-3.9649,-3.8751,-3.7943,-3.7285,-3.6567,-3.5729,-3.4294,-3.3215,-3.2587,-3.2706,-3.2796,-3.2796,-3.2437,-3.2019,-3.1481,-3.0253,-2.9621,-2.9592,-2.7021,-2.5615,-2.5585,-2.4328,-2.352,-2.34,-2.337,-2.3101,-2.2493,-2.1714,0.0,0.0,0.0,0.0,0.0,0.0,0.0,0.0,0.0,-1.8324,-1.938,0.0,-1.971,0.0,-2.0852,-2.0929,-2.0671,-2.0822,0.0,0.0,-2.0265,-2.0372,-2.0426,-2.0447,-2.0567,-2.0885,-2.1452,-2.1836,-2.1921,-2.2438,-2.284,-2.2926,-2.2026,-2.1364,-2.1385,-2.1807,-2.2123,-2.2236,-2.2664,-2.3012,-2.3016,-2.3187,-2.3336,-2.3537,-2.361,-2.361,-2.361,-2.361,-2.361,-2.361,-2.361,-2.361,-2.361,-2.361,-2.361,-2.364,-2.4276,-2.5173,-2.6123,-2.6626,-2.6986,-5.5957,-5.4192,-5.3803,-5.2665,-5.1079,-5.0764,-5.0481,-5.0122,-4.9823,-4.9134,-4.8117,-4.7249,-4.6262,-4.5155,-4.4157,-4.3569,-4.324,-4.326,-4.308,-4.2821,-4.311,-4.315,-4.2761,-4.1833,-4.1175,-4.0816,-3.9858,-3.905,-3.8392,-3.8033,-3.7375,-3.651,-3.5729,-3.5073,-3.4382,-3.3784,-3.3335,-3.3066,-3.2378,-3.1869,-3.1481,-3.0253,-2.9445,-2.9086,-2.6841,-2.5442,-2.5143,-2.4148,-2.361,-2.361,-2.361,-2.3452,-2.3185,-2.2657,-2.2203,0.0,0.0,0.0,0.0,0.0,0.0,0.0,0.0,0.0,0.0,0.0,-2.1148,0.0,-2.1978,-2.2111,-2.1733,-2.2402,-2.2695,-2.2272,-2.2533,-2.2614,-2.2367,-2.2382,-2.2352,-2.2195,-2.2531,-2.2781,-2.2824,-2.3206,-2.3458,-2.3523,-2.2855,-2.2387,-2.2417,-2.2672,-2.2901,-2.2995,-2.3314,-2.3545,-2.361,-2.361,-2.361,-2.361,-2.361,-2.361,-2.361,-2.361,-2.361,-2.361,-2.361,-2.361,-2.361,-2.361,-2.361,-2.364,-2.3909,-2.4537,-2.5495,-2.5944,-2.6357,-5.5897,-5.4192,-5.4012,-5.3264,-5.2127,-5.1409,-5.1109,-5.105,-5.0435,-4.9823,-4.909,-4.7249,-4.6441,-4.6309,-4.5125,-4.4526,-4.4407,-4.3708,-4.3379,-4.329,-4.329,-4.326,-4.311,-4.2043,-4.1414,-4.1205,-4.0098,-3.917,-3.8542,-3.8422,-3.7823,-3.6746,-3.6567,-3.6207,-3.5609,-3.4292,-3.3305,-3.2647,-3.2049,-3.169,-3.1481,-3.0253,-2.9265,-2.8577,-2.6662,-2.5262,-2.4634,-2.3947,-2.361,-2.361,-2.361,-2.3674,-2.3782,-2.3303,-2.3102,0.0,-2.2847,0.0,0.0,0.0,0.0,0.0,0.0,0.0,0.0,-2.1923,-2.2232,-2.2104,-2.2923,-2.3311,-2.2901,-2.4256,-2.4928,-2.437,-2.4811,-2.4928,-2.4259,-2.4292,-2.4118,-2.3569,-2.3509,-2.3523,-2.3558,-2.361,-2.361,-2.3588,-2.3528,-2.3439,-2.355,-2.3528,-2.3528,-2.361,-2.361,-2.361,-2.361,-2.361,-2.361,-2.361,-2.361,-2.361,-2.361,-2.361,-2.361,-2.361,-2.361,-2.361,-2.361,-2.361,-2.361,-2.361,-2.364,-2.3879,-2.4545,-2.5113,-2.5674,-5.5508,-5.4132,-5.3025,-5.2426,-5.2097,-5.0883,-5.0375,-5.0345,-5.0255,-4.9583,-4.8416,-4.7519,-4.713,-4.707,-4.6292,-4.5633,-4.5095,-4.4436,-4.3798,-4.329,-4.329,-4.306,-4.259,-4.2321,-4.1662,-4.0606,-4.0337,-3.9888,-3.923,-3.8661,-3.8307,-3.8003,-3.7015,-3.6417,-3.6237,0.0,0.0,0.0,-3.3185,-3.2587,-3.1511,-3.0253,-2.9292,-2.8577,-2.6662,0.0,-2.4634,-2.3969,-2.361,-2.361,-2.361,0.0,0.0,0.0,0.0,0.0,0.0,0.0,0.0,0.0,0.0,0.0,-2.3714,-2.3702,-2.3305,-2.3557,-2.3842,-2.4182,-2.4298,-2.4484,-2.4832,-2.5259,-2.5414,-2.5201,-2.536,-2.5252,-2.4581,-2.4514,-2.4291,-2.3678,-2.3588,-2.3588,-2.361,-2.361,-2.361,-2.361,-2.361,-2.361,-2.361,-2.361,-2.361,-2.361,-2.361,-2.361,-2.361,-2.358,-2.352,-2.361,-2.361,-2.355,-2.3541,-2.355,-2.358,-2.358,-2.361,-2.358,-2.361,-2.361,-2.358,-2.358,-2.358,-2.3819,-2.4455,-2.4694,-2.5016,-5.5209,0.0,-5.2606,-5.1828,0.0,-5.0465,-4.9807,-4.9284,-4.9284,-4.8716,-4.7788,-4.7459,-4.7309,-4.7249,-4.6262,-4.5633,-4.5244,-4.4287,-4.3618,-4.329,-4.329,-4.318,-4.2821,-4.256,-4.1871,-4.0876,-4.0546,-4.0068,-3.9439,-3.905,-3.8721,-3.8392,-3.7734,-3.7105,-3.6477,-3.5489,-3.4502,-3.3514,-3.3185,-3.2677,-3.1959,-3.0402,-2.9292,-2.8577,0.0,0.0,0.0,0.0,0.0,0.0,0.0,0.0,0.0,0.0,0.0,-2.4563,-2.4567,-2.4843,-2.5486,-2.5287,-2.5165,-2.5342,-2.5375,-2.5086,-2.4441,-2.4575,-2.4741,-2.4887,-2.5311,-2.5711,-2.5968,-2.6368,-2.6548,-2.6499,-2.6548,-2.6333,-2.5704,-2.5292,-2.4844,-2.4186,-2.3819,-2.361,-2.361,-2.361,-2.361,-2.361,-2.361,-2.361,-2.361,-2.361,-2.361,-2.361,-2.361,-2.3482,-2.3254,-2.3215,-2.3086,-2.2938,-2.2838,-2.2817,-2.2858,-2.2776,-2.2804,-2.3095,-2.3173,-2.3242,-2.352,-2.361,-2.349,-2.3281,-2.337,-2.355,-2.3729,-2.3887,-2.435,-5.493,-5.3144,-5.2456,-5.1439,-5.0196,-5.0046,-4.9314,-4.8117,0.0,0.0,0.0,-4.7309,-4.7309,-4.7219,-4.6022,-4.5484,-4.5394,-4.4107,-4.3469,-4.3469,-4.3349,-4.329,-4.326,-4.2761,-4.2231,-4.1572,-4.0905,-4.0247,-3.9619,-3.9469,-3.914,-3.8601,-3.8452,-3.7734,-3.6537,-3.5938,-3.507,-3.3873,-3.3215,-3.2736,-3.2497,-3.0821,-2.9505,-2.8637,-2.6901,-2.5585,-2.4814,-2.4268,-2.3939,-2.3939,-2.3939,-2.4056,-2.4303,-2.438,-2.4881,-2.5832,-2.6187,-2.6771,-2.777,-2.7316,-2.7068,-2.712,-2.6667,-2.6036,-2.5147,-2.5299,-2.5418,-2.5318,-2.6116,-2.6632,-2.6776,-2.7255,-2.7585,-2.7585,-2.7585,-2.7315,-2.6686,-2.6123,-2.5495,-2.4724,-2.4148,-2.3729,-2.361,-2.361,-2.361,-2.361,-2.361,-2.361,-2.361,-2.361,-2.361,-2.361,-2.3631,-2.3434,-2.2977,-2.2909,-2.2667,-2.2339,-2.2186,-2.2095,-2.2095,-2.1998,-2.2093,-2.2586,-2.2626,-2.2744,-2.3122,-2.3182,-2.3071,-2.2613,-2.2912,-2.3122,-2.2753,-2.3053,-2.3704,-5.4491,-5.3114,-5.2456,-5.1439,-5.0166,-4.9643,-4.8656,-4.7459,-4.7459,-4.7399,-4.7309,-4.7309,-4.7309,-4.7249,-4.6531,-4.613,-4.6082,-4.4796,-4.4167,0.0,-4.3559,-4.329,-4.329,-4.32,-4.2851,-4.2261,-4.1534,-4.0905,-4.0277,-3.9709,-3.9379,-3.923,-3.8691,-3.7764,-3.663,-3.6387,-3.5968,-3.522,-3.4562,-3.3634,-3.2527,-3.166,-3.0374,-2.8667,-2.7794,-2.6746,-2.5501,-2.5352,-2.5292,-2.5315,-2.5345,-2.5415,-2.553,-2.5561,-2.5848,-2.6373,-2.67,-2.7116,-2.7595,-2.7603,-2.7437,-2.7115,-2.6872,-2.6375,-2.5612,-2.5817,-2.6138,-2.6482,-2.6609,-2.6811,-2.7375,-2.7525,-2.7585,-2.7585,-2.7585,-2.7315,-2.6716,-2.6512,-2.5974,-2.4814,-2.4545,-2.4186,-2.3699,-2.361,-2.361,-2.361,-2.361,-2.361,-2.361,-2.361,-2.361,-2.361,-2.3696,-2.351,-2.301,-2.3011,-2.2854,-2.2428,-2.2325,-2.2251,-2.2263,-2.2082,-2.208,-2.2178,-2.2072,-2.2033,-2.2114,-2.2024,-2.2034,-2.1914,-2.2034,-2.2034,-2.2024,-2.2556,-2.323,-5.473,-5.3174,-5.2486,-5.1229,-4.9643,-4.8626,-4.7848,-4.7309,-4.7309,-4.7309,-4.7309,-4.7309,-4.7309,-4.7249,-4.6621,-4.6279,-4.6249,-4.5304,-4.4646,-4.4246,-4.4018,-4.3648,-4.3319,-4.329,-4.3,-4.241,-4.2111,-4.1602,-4.0935,-4.0277,-3.9948,-3.9888,-3.8901,-3.7913,-3.7045,-3.6656,-3.6148,-3.5519,-3.4831,-3.4024,-3.3066,-3.2019,-3.0913,-2.9654,-2.8308,-2.7315,-2.6716,-2.6004,-2.5615,-2.5615,-2.5615,-2.5661,-2.5778,-2.5824,-2.6138,-2.6826,-2.7122,-2.7592,-2.8271,-2.8062,-2.7625,-2.6901,-2.707,-2.6939,-2.6313,-2.6436,-2.66,-2.6796,-2.6999,-2.7285,-2.7555,-2.7585,-2.7585,-2.7585,-2.7585,-2.7465,-2.7165,-2.6782,-2.6213,-2.5292,-2.4814,-2.4335,-2.367,-2.361,-2.361,-2.361,-2.361,-2.361,-2.361,-2.3674,-2.3696,-2.3717,-2.3833,-2.3496,-2.2836,-2.2786,-2.258,-2.1894,-2.1708,-2.1711,-2.176,-2.1621,-2.1615,-2.1768,-2.1676,-2.163,-2.1857,-2.1931,-2.1741,-2.1447,-2.168,-2.1821,-2.205,-2.2788,-2.3629,-5.493,-5.3144,-5.2636,-5.1199,-4.9209,-4.7848,-4.7309,-4.7309,-4.7309,-4.7309,-4.7309,-4.7309,-4.7309,-4.7249,-4.677,-4.6561,-4.6441,-4.5843,-4.5155,-4.4556,-4.4377,-4.3917,-4.3349,-4.329,-4.306,-4.265,-4.25,-4.2141,-4.1602,-4.0935,-4.0546,-4.0307,-3.92,-3.8212,-3.7404,-3.6926,-3.6297,-3.5519,-3.4981,-3.4382,-3.3724,-3.2557,-3.154,-3.0672,-2.9022,-2.7974,-2.7794,-2.6692,-2.6033,-2.6063,-2.6063,-2.6111,-2.6206,-2.6206,-2.6566,-2.7235,-2.751,-2.7961,-2.8662,-2.844,-2.7861,-2.7001,-2.7319,-2.7391,-2.7031,-2.7031,-2.7031,-2.7018,-2.7335,-2.7585,-2.7585,-2.7585,-2.7585,-2.7585,-2.7585,-2.7585,-2.7525,-2.7136,-2.6507,-2.5734,-2.5113,-2.4567,-2.3849,-2.361,-2.361,-2.361,-2.361,-2.361,-2.3653,-2.376,-2.3846,-2.3952,-2.4067,-2.3805,-2.2921,-2.2791,-2.2526,-2.1666,-2.1375,-2.1391,-2.139,-2.1199,-2.1084,-2.1441,-2.1294,-2.1286,-2.1664,-2.1663,-2.1399,-2.1038,-2.1247,-2.1595,-2.1934,-2.2647,-2.3733,-5.4461,-5.3264,-5.3054,-5.1665,-4.9239,-4.7848,-4.7309,-4.7309,-4.7309,-4.7309,-4.7309,-4.7309,-4.7309,-4.7309,-4.7219,-4.7189,-4.713,-4.6531,-4.5843,-4.5185,-4.4586,-4.3917,-4.3379,-4.329,-4.326,-4.315,-4.2671,-4.241,-4.2291,-4.1632,-4.0965,-4.0397,-3.9679,-3.8661,-3.7554,-3.7345,-3.6716,-3.5549,-3.5459,-3.507,-3.4414,-3.3694,-3.2706,-3.1421,-3.0133,-2.9142,-2.8547,-2.7794,-2.7405,-2.7405,-2.7375,-2.7405,-2.74,-2.743,-2.751,-2.772,-2.7874,-2.8107,-2.8405,-2.8422,-2.8203,-2.7936,-2.7758,-2.772,-2.7515,-2.752,-2.752,-2.752,-2.758,-2.7585,-2.7585,-2.7585,-2.7585,-2.7585,-2.7585,-2.7585,-2.7585,-2.7555,-2.7016,-2.5734,-2.5525,-2.5046,-2.3939,-2.364,-2.361,-2.361,-2.361,-2.3653,-2.3739,-2.3867,-2.4109,-2.4338,-2.4441,-2.4273,-2.3796,-2.3496,-2.3054,-2.2524,-2.2042,-2.1744,-2.1632,-2.151,-2.1389,-2.1392,-2.1133,-2.098,-2.0845,-2.0632,-2.064,-2.0767,-2.0829,-2.0887,-2.1375,-2.2038,-2.2811,-5.4401,-5.3163,-5.2336,-5.075,-4.8686,-4.7698,-4.7309,-4.7309,-4.7309,-4.7309,-4.7309,-4.7309,-4.7309,-4.7309,-4.7309,-4.7309,-4.7279,-4.701,-4.6531,-4.5873,-4.5214,-4.4556,-4.3888,-4.3469,-4.329,-4.329,-4.306,-4.291,-4.2761,-4.1893,-4.1055,-4.0397,-3.9738,-3.8931,-3.8003,-3.7614,-3.6956,-3.6118,-3.5699,-3.537,-3.504,-3.4412,-3.3455,-3.2168,-3.1182,-3.0223,-2.9235,-2.8517,-2.8004,-2.7645,-2.7585,-2.7585,-2.7585,-2.7585,-2.761,-2.766,-2.779,-2.794,-2.8168,-2.8168,-2.8094,-2.789,-2.7815,-2.774,-2.761,-2.7585,-2.7585,-2.7585,-2.7585,-2.7585,-2.7585,-2.7585,-2.7585,-2.7585,-2.7585,-2.7585,-2.7585,-2.7585,-2.7195,-2.6303,-2.5854,-2.5262,-2.4388,-2.3849,-2.364,-2.361,-2.361,-2.3674,-2.3782,-2.3952,-2.4224,-2.4594,-2.4886,-2.4786,-2.4356,-2.3917,-2.3506,-2.3007,-2.2367,-2.193,-2.1963,-2.1827,-2.166,-2.1617,-2.1356,-2.1135,-2.1038,-2.0844,-2.0728,-2.0841,-2.1652,-2.2065,-2.1817,-2.2744,-2.3657,-5.4251,-5.2995,-5.1409,-4.9763,-4.8267,-4.7578,-4.7309,-4.7309,-4.7309,-4.7309,-4.7309,-4.7309,-4.7309,-4.7309,-4.7309,-4.7309,-4.7309,-4.7309,-4.695,-4.6322,-4.5813,-4.5125,-4.4317,-4.3838,-4.3469,-4.3319,-4.329,-4.329,-4.314,-4.2013,-4.1115,-4.0606,-3.9828,-3.908,-3.8392,-3.7734,-3.7105,-3.6477,-3.5848,-3.5489,-3.5429,-3.5011,-3.4203,-3.3095,-3.2019,-3.1062,-3.0163,-2.9325,-2.8547,-2.7914,-2.7884,-2.7794,-2.7615,-2.7585,-2.7585,-2.7585,-2.769,-2.779,-2.7896,-2.789,-2.784,-2.7765,-2.774,-2.7715,-2.764,-2.7585,-2.7585,-2.7585,-2.7585,-2.7585,-2.7585,-2.7585,-2.7585,-2.7585,-2.7585,-2.7585,-2.7585,-2.7585,-2.7345,-2.6662,-2.6183,-2.5531,-2.4724,-2.4007,-2.361,-2.361,-2.361,-2.3674,-2.3846,-2.4057,-2.4369,-2.4815,-2.5278,-2.5371,-2.4966,-2.4327,-2.3867,-2.3425,-2.2813,-2.2137,-2.2194,-2.2046,-2.1974,-2.189,-2.1678,-2.151,-2.1356,-2.1214,-2.1103,-2.1392,-2.2069,-2.2731,-2.2227,-2.3437,-2.3915,-5.3832,-5.2815,-5.0421,-4.903,-4.8237,-4.7578,-4.7309,-4.7309,-4.7309,-4.7309,-4.7309,-4.7309,-4.7309,-4.7309,-4.7309,-4.7309,-4.7309,-4.7309,-4.698,-4.6411,-4.6262,-4.5574,-4.4377,-4.4216,-4.3888,-4.3409,-4.3319,-4.329,-4.323,-4.2043,-4.1384,-4.1302,-4.0098,-3.911,-3.8452,-3.7764,-3.7105,-3.6537,-3.5878,-3.5489,-3.5489,-3.5459,-3.507,-3.4262,-3.2587,-3.157,-3.1241,-3.0223,-2.9265,-2.8577,-2.8547,-2.8304,-2.7735,-2.7645,-2.7675,-2.7645,-2.767,-2.7615,-2.764,-2.7665,-2.761,-2.761,-2.764,-2.7585,-2.7585,-2.7585,-2.7585,-2.7585,-2.7585,-2.7585,-2.7585,-2.7585,-2.7585,-2.7585,-2.7585,-2.7585,-2.7585,-2.7585,-2.7285,-2.6806,-2.6482,-2.5854,-2.4754,-2.4007,-2.367,-2.361,-2.361,-2.3696,-2.3961,-2.4255,-2.4605,-2.5013,-2.5489,-2.5899,-2.5793,-2.5061,-2.4428,-2.3951,-2.322,-2.2285,-2.2251,-2.2223,-2.2214,-2.2157,-2.1945,-2.1812,-2.1726,-2.1635,-2.1559,-2.1705,-2.1948,-2.2244,-2.2524,-2.2606,-2.3272,-5.2665,-5.1199,-4.9853,-4.894,-4.8237,-4.7578,-4.7309,-4.7309,-4.7309,-4.7309,-4.7309,-4.7309,-4.7309,-4.7309,-4.7309,-4.7309,-4.7309,-4.7309,-4.716,-4.692,-4.6488,-4.6052,-4.5574,-4.4766,-4.4227,-4.3888,-4.3499,-4.329,-4.32,-4.2432,-4.1811,-4.1332,-4.0487,-3.9709,-3.899,-3.7943,-3.7285,-3.6985,-3.6058,-3.5489,-3.5489,-3.5489,-3.537,-3.51,-3.4023,-3.2796,-3.154,-3.1032,-3.0342,-2.9292,-2.9262,-2.9116,-2.8933,-2.8873,-2.8693,-2.8304,-2.8248,-2.8064,-2.7675,-2.7585,-2.7585,-2.7585,-2.7585,-2.7585,-2.7585,-2.7585,-2.7585,-2.7585,-2.7585,-2.7585,-2.7585,-2.7585,-2.7585,-2.7585,-2.7585,-2.7585,-2.7585,-2.7585,-2.7495,-2.7195,-2.6542,-2.5585,-2.4814,-2.4029,-2.361,-2.361,-2.361,-2.3717,-2.3982,-2.4276,-2.4666,-2.5111,-2.5607,-2.6045,-2.6328,-2.5648,-2.4942,-2.4347,-2.3632,-2.2888,-2.2535,-2.2333,-2.2257,-2.2343,-2.2238,-2.2003,-2.1857,-2.1708,-2.1711,-2.1822,-2.2081,-2.2641,-2.2924,-2.3521,-2.4165,-5.2037,-5.0226,-4.9553,-4.894,-4.8237,-4.7578,-4.7309,-4.7309,-4.7309,-4.7309,-4.7309,-4.7309,-4.7309,-4.7309,-4.7309,-4.7309,-4.7309,-4.7309,-4.7309,-4.7279,-4.683,-4.6488,-4.613,-4.5155,-4.4526,-4.4227,-4.3618,-4.329,-4.323,-4.2671,-4.2081,-4.1422,-4.0726,-4.0068,-3.932,-3.8093,-3.7404,-3.7165,-3.6148,-3.5489,-3.5489,-3.5489,-3.5489,-3.5429,-3.504,-3.4113,-3.2497,-3.2049,-3.1331,-3.0372,-3.0013,-2.9804,-2.9624,-2.9621,-2.9385,-2.8966,-2.8697,-2.8397,-2.7974,-2.7705,-2.7585,-2.7585,-2.7585,-2.7585,-2.7585,-2.7585,-2.7585,-2.7585,-2.7585,-2.7585,-2.7585,-2.7585,-2.7585,-2.7585,-2.7585,-2.7585,-2.7585,-2.7585,-2.7585,-2.7435,-2.6632,-2.5764,-2.5023,-2.4335,-2.3909,-2.367,-2.361,-2.3717,-2.4024,-2.4338,-2.4746,-2.5246,-2.5738,-2.6152,-2.6399,-2.6084,-2.5579,-2.5002,-2.4037,-2.3294,-2.2854,-2.2584,-2.2482,-2.255,-2.2425,-2.2171,-2.1988,-2.1842,-2.1845,-2.1956,-2.2533,-2.313,-2.3846,-2.4763,-2.5178,-5.2037,-5.0301,-4.9553,-4.8955,-4.8327,-4.7668,-4.7339,-4.7309,-4.7266,-4.7266,-4.7266,-4.7266,-4.7222,-4.7266,-4.7266,-4.7266,-4.7309,-4.7309,-4.7309,-4.7279,-4.7249,-4.692,-4.6339,-4.5663,-4.4915,-4.4317,-4.3618,-4.3319,-4.326,-4.2731,-4.2171,-4.1482,-4.0816,-4.0217,-3.9439,-3.8242,-3.7434,-3.7165,-3.6207,-3.5549,-3.5489,-3.5489,-3.5489,-3.5489,-3.5429,-3.507,-3.4414,-3.3185,-3.2168,-3.1481,-3.0851,-3.0223,-2.9861,-2.9774,-2.9681,-2.9562,-2.9026,-2.8697,-2.8487,-2.8004,-2.7705,-2.7615,-2.7615,-2.7735,-2.7735,-2.7764,-2.7764,-2.7735,-2.7705,-2.7645,-2.7615,-2.7585,-2.7585,-2.7585,-2.7585,-2.7585,-2.7585,-2.7585,-2.7585,-2.7495,-2.6901,-2.6333,-2.5674,-2.5023,-2.4425,-2.3909,-2.3729,-2.3799,-2.4088,-2.4369,-2.4855,-2.547,-2.5899,-2.6241,-2.6469,-2.659,-2.6184,-2.5676,-2.456,-2.368,-2.3444,-2.3207,-2.3207,-2.3207,-2.2762,-2.254,-2.24,-2.2267,-2.2185,-2.2363,-2.3024,-2.3755,-2.4524,-2.5312,-2.5765,-5.2276,-5.09,-5.0212,-4.9553,-4.894,-4.8267,-4.7728,-4.7309,-4.7106,-4.7019,-4.7019,-4.6887,-4.6887,-4.7019,-4.7019,-4.7106,-4.7309,-4.7309,-4.7309,-4.7309,-4.7309,-4.7189,-4.689,-4.6322,-4.5394,-4.4377,-4.3658,-4.329,-4.326,-4.312,-4.2701,-4.2043,-4.1384,-4.0756,-4.0038,-3.8781,-3.7913,-3.7345,-3.6596,-3.5998,-3.5549,-3.5489,-3.5489,-3.5489,-3.5489,-3.537,-3.513,-3.3903,-3.2916,-3.2198,-3.154,-3.1092,-3.0913,-3.0911,-3.0702,-3.0283,-3.0043,-2.9445,-2.8697,-2.8397,-2.8064,-2.7824,-2.8034,-2.8248,-2.8338,-2.8693,-2.8723,-2.8368,-2.8278,-2.8154,-2.7705,-2.7585,-2.7615,-2.7585,-2.7585,-2.7585,-2.7585,-2.7585,-2.7585,-2.7525,-2.7016,-2.6512,-2.6243,-2.5704,-2.5023,-2.4425,-2.4276,-2.4319,-2.421,-2.4472,-2.4835,-2.5457,-2.5899,-2.6294,-2.6521,-2.6657,-2.6471,-2.6082,-2.5203,-2.4391,-2.412,-2.3831,-2.3831,-2.3733,-2.3302,-2.3026,-2.2884,-2.2757,-2.2727,-2.3091,-2.3889,-2.4538,-2.5123,-2.5662,-2.6152,-5.2426,-5.1169,-5.0465,-4.9853,-4.9269,-4.861,-4.7908,-4.7326,-4.7019,-4.6931,-4.6887,-4.6668,-4.6712,-4.6887,-4.6931,-4.7062,-4.7266,-4.7309,-4.7309,-4.7309,-4.7309,-4.7309,-4.716,-4.6352,-4.5394,-4.4377,-4.3589,-4.329,-4.329,-4.329,-4.3,-4.2381,-4.1752,-4.1055,-4.0337,-3.908,-3.8063,-3.7404,-3.6806,-3.6178,-3.5639,-3.5489,-3.5489,-3.5489,-3.5489,-3.5489,-3.5429,-3.4442,-3.3544,-3.2856,-3.2019,-3.1511,-3.1511,-3.1481,-3.1301,-3.0943,-3.0612,-3.0133,-2.9385,-2.8876,-2.8577,-2.8397,-2.8487,-2.8727,-2.8936,-2.9442,-2.9382,-2.9056,-2.9019,-2.8771,-2.8201,-2.8101,-2.8037,-2.7771,-2.7665,-2.7585,-2.7585,-2.7585,-2.7585,-2.7525,-2.7255,-2.6926,-2.6566,-2.6303,-2.5704,-2.5143,-2.5009,-2.4927,-2.4732,-2.4896,-2.5298,-2.5643,-2.6008,-2.6329,-2.6572,-2.6674,-2.6691,-2.6353,-2.5913,-2.5304,-2.4932,-2.4474,-2.4271,-2.4342,-2.4093,-2.3979,-2.3835,-2.3624,-2.3559,-2.4175,-2.4607,-2.5041,-2.5526,-2.61,-2.6556,-5.2426,-5.1199,-5.0524,-4.9912,-4.9269,-4.8626,-4.7997,-4.7326,-4.6975,-4.6887,-4.6844,-4.658,-4.6624,-4.6814,-4.6844,-4.7019,-4.7266,-4.7309,-4.7309,-4.7309,-4.7309,-4.7309,-4.716,-4.6142,-4.5214,-4.4466,-4.3738,-4.3379,-4.329,-4.329,-4.303,-4.25,-4.1901,-4.1145,-4.0457,-3.917,-3.8272,-3.7584,-3.6896,-3.6297,-3.5639,-3.5519,-3.5489,-3.5489,-3.5489,-3.5489,-3.54,-3.4771,-3.4144,-3.3425,-3.2287,-3.166,-3.16,-3.154,-3.1481,-3.1391,-3.0911,-3.0612,-3.0223,-2.9475,-2.9026,-2.9322,-2.9086,-2.8936,-2.9564,-2.9804,-2.9891,-2.9708,-2.9786,-2.9592,-2.91,-2.8905,-2.8682,-2.8116,-2.779,-2.7635,-2.7585,-2.7585,-2.7585,-2.7585,-2.7555,-2.7375,-2.6811,-2.6716,-2.6333,-2.5878,-2.5768,-2.5667,-2.5505,-2.5592,-2.5839,-2.6081,-2.6315,-2.6382,-2.6623,-2.6691,-2.6691,-2.6556,-2.6285,-2.6015,-2.5676,-2.5286,-2.5015,-2.5052,-2.4885,-2.4837,-2.4722,-2.4441,-2.434,-2.4639,-2.5023,-2.5393,-2.588,-2.6454,-2.6674,-5.2426,-5.1229,-5.105,-5.0301,-4.9359,-4.912,-4.8327,-4.7326,-4.6844,-4.6712,-4.658,-4.6225,-4.6343,-4.6697,-4.6668,-4.6917,-4.7222,-4.7309,-4.7309,-4.7309,-4.7309,-4.7309,-4.716,-4.6471,-4.5663,-4.5005,-4.4317,-4.3768,-4.3319,-4.329,-4.32,-4.306,-4.241,-4.1782,-4.1055,-4.0217,-3.926,-3.8212,-3.7464,-3.6836,-3.6237,-3.5699,-3.5489,-3.5489,-3.5489,-3.5489,-3.5429,-3.4831,-3.4204,-3.3514,-3.2736,-3.2228,-3.2138,-3.175,-3.1511,-3.1451,-3.1331,-3.1001,-3.0552,-3.0193,-2.9894,-2.9624,-2.9804,-3.0073,-3.0253,-3.0731,-3.0788,-3.0629,-3.0613,-3.0502,-3.0016,-2.9679,-2.915,-2.8443,-2.805,-2.7771,-2.761,-2.7585,-2.7585,-2.7585,-2.7585,-2.7465,-2.7345,-2.7225,-2.7046,-2.6561,-2.6471,-2.6471,-2.6315,-2.6167,-2.6398,-2.6521,-2.6667,-2.6602,-2.659,-2.6657,-2.6691,-2.6691,-2.6556,-2.6522,-2.6353,-2.6218,-2.6166,-2.6218,-2.5628,-2.5426,-2.5344,-2.5144,-2.5193,-2.5258,-2.5646,-2.6135,-2.632,-2.6691,-2.6691,-5.2396,-5.1229,-5.1229,-5.0451,-4.9359,-4.9299,-4.8536,-4.7372,-4.6887,-4.6712,-4.6624,-4.6358,-4.6387,-4.6712,-4.6712,-4.6931,-4.7266,-4.7309,-4.7309,-4.7309,-4.7309,-4.7309,-4.716,-4.6621,-4.5963,-4.5274,-4.4646,-4.3917,-4.3409,-4.329,-4.329,-4.317,-4.2701,-4.2081,-4.1354,-4.0696,-3.9738,-3.8512,-3.7734,-3.7105,-3.6507,-3.5848,-3.5549,-3.5489,-3.5489,-3.5489,-3.5429,-3.51,-3.4623,-3.3873,-3.3066,-3.2497,-3.2437,-3.1869,-3.1511,-3.1511,-3.1511,-3.1301,-3.1001,-3.0702,-3.0492,-3.0402,-3.0552,-3.0642,-3.0911,-3.1359,-3.1471,-3.1341,-3.1558,-3.1463,-3.1109,-3.0654,-2.9942,-2.9186,-2.8658,-2.8268,-2.7771,-2.764,-2.7585,-2.7585,-2.7585,-2.7585,-2.7585,-2.7585,-2.743,-2.7264,-2.7315,-2.7255,-2.7145,-2.703,-2.6916,-2.7027,-2.7023,-2.6991,-2.6708,-2.6674,-2.6691,-2.6691,-2.6691,-2.6691,-2.6691,-2.6691,-2.6657,-2.6522,-2.6202,-2.5966,-2.5882,-2.5865,-2.6016,-2.6168,-2.6506,-2.659,-2.6674,-2.6691,-2.6691,-5.2456,-5.1319,-5.1259,-5.0481,-4.9419,-4.9269,-4.8506,-4.7415,-4.7019,-4.6887,-4.6844,-4.6697,-4.6668,-4.6931,-4.6887,-4.7019,-4.7309,-4.7309,-4.7309,-4.7309,-4.7309,-4.7309,-4.7249,-4.683,-4.6172,-4.5484,-4.4766,-4.4137,-4.3618,-4.3409,-4.329,-4.32,-4.2761,-4.2201,-4.1632,-4.0905,-3.9858,-3.8841,-3.8003,-3.7434,-3.6836,-3.6178,-3.5759,-3.5729,-3.5549,-3.5519,-3.5489,-3.54,-3.519,-3.4623,-3.3395,-3.2886,-3.2647,-3.1989,-3.16,-3.1511,-3.1511,-3.1481,-3.1421,-3.0971,-3.0881,-3.1152,-3.0909,-3.0879,-3.1387,-3.1712,-3.191,-3.1987,-3.241,-3.2413,-3.2177,-3.1794,-3.1046,-3.0116,-2.9595,-2.8953,-2.8122,-2.7715,-2.7585,-2.7585,-2.7585,-2.7585,-2.7585,-2.764,-2.766,-2.7629,-2.782,-2.7983,-2.7987,-2.804,-2.7762,-2.7481,-2.7466,-2.7347,-2.7012,-2.6691,-2.6691,-2.6691,-2.6691,-2.6691,-2.6691,-2.6691,-2.6691,-2.6573,-2.6387,-2.6387,-2.6455,-2.6539,-2.659,-2.6607,-2.6624,-2.6674,-2.6691,-2.6691,-2.6691,-5.2725,-5.1947,-5.1439,-5.0451,-4.9419,-4.9269,-4.858,-4.7296,-4.7019,-4.6931,-4.6887,-4.6712,-4.6712,-4.6931,-4.6931,-4.7019,-4.7309,-4.7309,-4.7309,-4.7309,-4.7309,-4.7309,-4.7309,-4.71,-4.6711,-4.6052,-4.5394,-4.4736,-4.4167,-4.3589,-4.329,-4.326,-4.312,-4.2791,-4.2141,-4.1414,-4.0786,-3.9888,-3.8781,-3.8093,-3.7704,-3.6836,-3.6267,-3.6178,-3.5759,-3.5519,-3.5489,-3.5489,-3.5429,-3.513,-3.4502,-3.3784,-3.3215,-3.2617,-3.2019,-3.16,-3.1511,-3.1511,-3.1451,-3.1331,-3.1301,-3.145,-3.1504,-3.1562,-3.168,-3.1996,-3.2219,-3.2496,-3.2846,-3.3117,-3.312,-3.3014,-3.219,-3.1085,-3.0212,-2.9446,-2.8394,-2.7815,-2.761,-2.7585,-2.7585,-2.7585,-2.7585,-2.774,-2.7815,-2.7965,-2.8222,-2.8568,-2.8772,-2.893,-2.869,-2.8287,-2.7925,-2.7771,-2.7198,-2.686,-2.6691,-2.6691,-2.6691,-2.6691,-2.6691,-2.6691,-2.6691,-2.6691,-2.6657,-2.6691,-2.6691,-2.6691,-2.6657,-2.6691,-2.6691,-2.6691,-2.6691,-2.6691,-2.6691,-5.2785,-5.2127,-5.1498,-5.0481,-4.9419,-4.9269,-4.855,-4.7459,-4.7179,-4.7062,-4.7062,-4.6931,-4.6975,-4.7062,-4.7106,-4.7179,-4.7266,-4.7309,-4.7309,-4.7309,-4.7309,-4.7309,-4.7309,-4.7249,-4.698,-4.6352,-4.5963,-4.5274,-4.4436,-4.3917,-4.3618,-4.3319,-4.329,-4.294,-4.241,-4.1743,-4.1025,-4.0217,-3.911,-3.8392,-3.8212,-3.7464,-3.6716,-3.6417,-3.5878,-3.5489,-3.5489,-3.5489,-3.5489,-3.54,-3.513,-3.4472,-3.3574,-3.2886,-3.2228,-3.163,-3.1511,-3.1511,-3.1511,-3.1511,-3.1539,-3.1626,-3.1769,-3.1912,-3.2053,-3.2302,-3.2633,-3.2926,-3.3377,-3.3781,-3.414,-3.4122,-3.3332,-3.2228,-3.1142,-3.0137,-2.9033,-2.8171,-2.7635,-2.7665,-2.7665,-2.769,-2.774,-2.7865,-2.8057,-2.8253,-2.8606,-2.8973,-2.9496,-2.9619,-2.956,-2.9187,-2.8639,-2.8144,-2.7486,-2.7029,-2.6725,-2.6691,-2.6691,-2.6691,-2.6691,-2.6691,-2.6691,-2.6691,-2.6691,-2.6691,-2.6691,-2.6691,-2.6691,-2.6691,-2.6691,-2.6691,-2.6691,-2.6691,-2.6691,-5.2785,-5.2127,-5.1379,-5.0361,-4.9389,-4.9179,-4.8386,-4.7399,-4.7309,-4.7266,-4.7309,-4.7309,-4.7266,-4.7309,-4.7266,-4.7309,-4.7309,-4.7309,-4.7309,-4.7309,-4.7309,-4.7309,-4.7309,-4.7249,-4.707,-4.6501,-4.6292,-4.5603,-4.4766,-4.4287,-4.3828,-4.3409,-4.329,-4.309,-4.2491,-4.1901,-4.1294,-4.0576,-3.9529,-3.8751,-3.8542,-3.7913,-3.7255,-3.6477,-3.6088,-3.5639,-3.5549,-3.5489,-3.5489,-3.5489,-3.5489,-3.4831,-3.3873,-3.3036,-3.2287,-3.16,-3.1511,-3.1511,-3.1511,-3.1539,-3.1626,-3.1828,-3.2025,-3.2163,-3.2355,-3.2738,-3.3087,-3.3455,-3.3917,-3.4521,-3.5048,-3.5005,-3.4405,-3.3359,-3.22,-3.0997,-2.9799,-2.8608,-2.792,-2.774,-2.779,-2.7815,-2.7965,-2.8082,-2.8326,-2.8583,-2.8958,-2.9371,-2.9903,-3.021,-3.0068,-2.9867,-2.9301,-2.8482,-2.7756,-2.7131,-2.686,-2.7063,-2.6996,-2.7097,-2.7063,-2.7097,-2.7131,-2.6759,-2.6691,-2.6691,-2.6691,-2.6691,-2.6691,-2.6691,-2.6691,-2.6691,-2.6691,-2.6691,-2.6725,-5.2785,-5.2097,-5.0853,-4.9942,-4.9269,-4.8686,-4.8027,-4.7399,-4.7309,-4.7309,-4.7309,-4.7309,-4.7309,-4.7309,-4.7309,-4.7309,-4.7309,-4.7309,-4.7309,-4.7309,-4.7309,-4.7309,-4.7309,-4.7309,-4.7219,-4.701,-4.6651,-4.5933,-4.5125,-4.4586,-4.4088,-4.3509,-4.3329,-4.321,-4.3,-4.2521,-4.1871,-4.1242,-4.0307,-3.9679,-3.92,-3.8482,-3.7674,-3.678,-3.6387,-3.6028,-3.5609,-3.5519,-3.5489,-3.5489,-3.5489,-3.504,-3.4322,-3.3634,-3.2796,-3.1869,-3.16,-3.16,-3.1539,-3.1655,-3.1798,-3.1996,-3.2302,-3.2629,-3.2895,-3.3298,-3.3636,-3.405,-3.4521,-3.5081,-3.536,-3.5337,-3.4831,-3.3809,-3.2686,-3.143,-3.0154,-2.9002,-2.8149,-2.7995,-2.7995,-2.8039,-2.8204,-2.8446,-2.8724,-2.9051,-2.9416,-2.975,-3.0161,-3.0452,-3.0483,-3.0219,-2.993,-2.8955,-2.8027,-2.7402,-2.7029,-2.7604,-2.7722,-2.801,-2.7943,-2.779,-2.7621,-2.7199,-2.6826,-2.6691,-2.6691,-2.6691,-2.6691,-2.6691,-2.6691,-2.6691,-2.6691,-2.6725,-2.6793,-5.2276,-5.1618,-5.0631,-4.9673,-4.8805,-4.8446,-4.7908,-4.7369,-4.7309,-4.7309,-4.7309,-4.7309,-4.7309,-4.7309,-4.7309,-4.7309,-4.7309,-4.7309,-4.7309,-4.7309,-4.7309,-4.7309,-4.7309,-4.7309,-4.7309,-4.7263,-4.7006,-4.6401,-4.553,-4.5169,-4.4459,-4.3816,-4.3596,-4.3518,-4.3328,-4.2749,-4.2291,-4.1752,-4.0935,-4.0247,-3.9828,-3.896,-3.8003,-3.7554,-3.684,-3.6327,-3.6058,-3.5609,-3.5519,-3.5489,-3.5489,-3.51,-3.4653,-3.4113,-3.3425,-3.2347,-3.2018,-3.1898,-3.1745,-3.1826,-3.1994,-3.233,-3.2711,-3.3087,-3.3455,-3.3841,-3.4275,-3.4667,-3.4987,-3.536,-3.5543,-3.5452,-3.5044,-3.4376,-3.3261,-3.2023,-3.0742,-2.9546,-2.8793,-2.8284,-2.8217,-2.8308,-2.8518,-2.8795,-2.9143,-2.9506,-2.9837,-3.014,-3.0456,-3.0616,-3.0777,-3.06,-3.0273,-2.9514,-2.8653,-2.8078,-2.7706,-2.8146,-2.8466,-2.8721,-2.8789,-2.8619,-2.8094,-2.7519,-2.7232,-2.6996,-2.6691,-2.6691,-2.6691,-2.6691,-2.6691,-2.6691,-2.6691,-2.6725,-2.6826,-5.1738,-5.0913,-5.0331,-4.9374,-4.8356,-4.8147,-4.7788,-4.7369,-4.7309,-4.7309,-4.7309,-4.7309,-4.7309,-4.7309,-4.7309,-4.7309,-4.7309,-4.7309,-4.7309,-4.7309,-4.7309,-4.7309,-4.7309,-4.7352,-4.7396,-4.7409,-4.7606,-4.6973,-4.5845,-4.5585,-4.5011,-4.4164,-4.3754,-4.3705,-4.3515,-4.3028,-4.262,-4.2051,-4.1265,-4.0576,-3.9978,-3.9236,-3.8582,-3.8402,-3.7387,-3.676,-3.6523,-3.5887,-3.5617,-3.5554,-3.5462,-3.525,-3.4801,-3.4713,-3.4144,-3.3126,-3.2736,-3.2345,-3.2219,-3.2053,-3.233,-3.2711,-3.3198,-3.3617,-3.4025,-3.4423,-3.4835,-3.5245,-3.5406,-3.5498,-3.5532,-3.5452,-3.5188,-3.4717,-3.3728,-3.2603,-3.1367,-3.0211,-2.915,-2.8768,-2.8565,-2.858,-2.8849,-2.9212,-2.9605,-2.9859,-3.0182,-3.0447,-3.0736,-3.0878,-3.0957,-3.0881,-3.0548,-2.9939,-2.933,-2.8942,-2.8755,-2.9025,-2.9228,-2.9397,-2.9431,-2.9397,-2.8822,-2.8331,-2.7875,-2.7638,-2.7165,-2.6725,-2.6691,-2.6691,-2.6691,-2.6691,-2.6691,-2.6793,-2.6928,-5.1468,-5.0255,-4.9643,-4.8955,-4.8237,-4.7668,-4.7399,-4.7339,-4.7309,-4.7309,-4.7309,-4.7309,-4.7309,-4.7309,-4.7309,-4.7309,-4.7309,-4.7309,-4.7309,-4.7309,-4.7309,-4.7309,-4.7352,-4.7495,-4.7624,-4.7709,-4.8049,-4.7175,-4.6254,-4.6022,-4.5293,-4.4361,-4.397,-4.3705,-4.3684,-4.3298,-4.291,-4.241,-4.1662,-4.0763,-3.9835,-3.9559,-3.9244,-3.8736,-3.8115,-3.7516,-3.6968,-3.6235,-3.5686,-3.5623,-3.5554,-3.5459,-3.54,-3.537,-3.5076,-3.4268,-3.3517,-3.2703,-3.2784,-3.2729,-3.28,-3.3256,-3.3694,-3.4176,-3.457,-3.4906,-3.5245,-3.5406,-3.5475,-3.552,-3.5554,-3.5498,-3.5268,-3.4693,-3.3819,-3.2834,-3.1779,-3.0686,-2.9669,-2.9235,-2.9045,-2.9042,-2.9195,-2.9589,-3.0,-3.0279,-3.0551,-3.0757,-3.0952,-3.1052,-3.1131,-3.1035,-3.092,-3.0345,-3.0108,-2.9721,-2.9721,-2.9905,-2.9973,-3.0074,-3.0142,-3.0108,-2.9939,-2.9465,-2.889,-2.8163,-2.7588,-2.7165,-2.686,-2.6894,-2.7131,-2.6962,-2.6691,-2.6826,-2.6996,-5.0212,-4.9643,-4.903,-4.8371,-4.7728,-4.7399,-4.7309,-4.7309,-4.7309,-4.7309,-4.7309,-4.7309,-4.7309,-4.7309,-4.7309,-4.7309,-4.7309,-4.7309,-4.7309,-4.7309,-4.7309,-4.7396,-4.7495,-4.7709,-4.7922,-4.8229,-4.847,-4.8378,-4.7311,-4.6585,-4.5971,-4.5094,-4.4364,-4.3988,-4.3793,-4.3488,-4.318,-4.274,-4.2038,-4.1122,-4.0383,-4.002,-3.9833,-3.9499,-3.876,-3.8152,-3.7534,-3.6459,-3.5844,-3.572,-3.5587,-3.5554,-3.5589,-3.5591,-3.5507,-3.5549,-3.4881,-3.4113,-3.349,-3.3512,-3.3634,-3.3784,-3.4176,-3.4643,-3.5048,-3.5337,-3.5464,-3.5532,-3.5566,-3.5554,-3.5532,-3.5406,-3.5152,-3.4607,-3.3835,-3.2914,-3.204,-3.1111,-3.022,-2.9898,-2.9597,-2.967,-2.9738,-3.0009,-3.0315,-3.0528,-3.0746,-3.0918,-3.1026,-3.1092,-3.1151,-3.1157,-3.1021,-3.0818,-3.0751,-3.0601,-3.0514,-3.0649,-3.0649,-3.0751,-3.0886,-3.0852,-3.0581,-3.0258,-2.9702,-2.8924,-2.8112,-2.7927,-2.7893,-2.7774,-2.7638,-2.7469,-2.73,-2.6894,-2.7266,-4.909,-4.903,-4.8476,-4.7908,-4.7309,-4.7309,-4.7309,-4.7309,-4.7309,-4.7309,-4.7309,-4.7309,-4.7309,-4.7309,-4.7309,-4.7309,-4.7309,-4.7309,-4.7309,-4.7309,-4.7309,-4.7409,-4.7624,-4.7922,-4.8385,-4.8769,-4.9381,-4.9102,-4.8475,-4.7661,-4.678,-4.582,-4.4611,-4.4134,-4.3871,-4.3527,-4.317,-4.2851,-4.2325,-4.1565,-4.0831,-4.068,-4.0585,-4.0173,-3.9506,-3.8705,-3.8327,-3.7026,-3.6195,-3.5847,-3.5718,-3.5686,-3.5782,-3.5879,-3.6133,-3.6261,-3.6071,-3.5712,-3.5002,-3.4673,-3.4547,-3.4623,-3.4676,-3.5071,-3.5406,-3.5611,-3.56,-3.56,-3.56,-3.56,-3.5554,-3.5327,-3.5024,-3.4594,-3.396,-3.2996,-3.2106,-3.1286,-3.0715,-3.0434,-3.0252,-3.037,-3.0445,-3.0509,-3.0684,-3.0802,-3.0941,-3.1133,-3.122,-3.13,-3.1272,-3.1326,-3.1224,-3.1123,-3.1055,-3.1089,-3.119,-3.119,-3.119,-3.119,-3.1157,-3.1123,-3.092,-3.0615,-3.0345,-3.0108,-2.9533,-2.9281,-2.8976,-2.8604,-2.8247,-2.818,-2.7977,-2.7537,-2.7706,-4.8356,-4.8356,-4.8297,-4.7908,-4.7309,-4.7309,-4.7309,-4.7309,-4.7309,-4.7309,-4.7309,-4.7309,-4.7309,-4.7249,-4.7189,-4.7219,-4.7279,-4.7309,-4.7279,-4.7279,-4.7309,-4.7452,-4.7794,-4.8229,-4.8811,-4.9318,-4.9821,-4.9821,-4.9247,-4.8187,-4.7025,-4.5704,-4.4641,-4.4079,-4.3754,-4.3488,-4.3159,-4.2908,-4.2628,-4.2122,-4.1523,-4.1335,-4.151,-4.1035,-4.0228,-3.9534,-3.9314,-3.7716,-3.66,-3.6196,-3.6037,-3.5973,-3.6068,-3.632,-3.66,-3.6995,-3.7261,-3.7096,-3.6819,-3.5932,-3.5363,-3.5498,-3.5514,-3.5373,-3.5532,-3.5577,-3.56,-3.56,-3.56,-3.56,-3.5532,-3.5373,-3.5001,-3.4546,-3.3975,-3.3177,-3.2338,-3.1631,-3.111,-3.087,-3.093,-3.1145,-3.1514,-3.1694,-3.1499,-3.1616,-3.1834,-3.2029,-3.1732,-3.1712,-3.1543,-3.1495,-3.1427,-3.136,-3.1258,-3.1292,-3.1393,-3.1292,-3.119,-3.119,-3.119,-3.1123,-3.1089,-3.1055,-3.0818,-3.092,-3.0886,-3.0228,-2.9619,-2.9179,-2.8908,-2.8822,-2.889,-2.8755,-2.8991,-4.7698,-4.7668,-4.7668,-4.7549,-4.7309,-4.7309,-4.7309,-4.7309,-4.7309,-4.7309,-4.7279,-4.7279,-4.707,-4.68,-4.6711,-4.6711,-4.6711,-4.6711,-4.695,-4.7219,-4.7352,-4.7581,-4.8049,-4.8604,-4.9237,-4.9938,-5.0332,-5.0273,-4.996,-4.8524,-4.7063,-4.5749,-4.4726,-4.4118,-4.3754,-4.3596,-4.3416,-4.3331,-4.3221,-4.2892,-4.2397,-4.2382,-4.2384,-4.1722,-4.0765,-4.0092,-3.959,-3.8082,-3.7154,-3.6631,-3.6414,-3.6383,-3.6445,-3.6785,-3.7208,-3.7679,-3.803,-3.8293,-3.8324,-3.7426,-3.6741,-3.6128,-3.5866,-3.5588,-3.5667,-3.56,-3.56,-3.56,-3.56,-3.56,-3.5577,-3.5327,-3.4977,-3.4546,-3.3942,-3.3245,-3.259,-3.1848,-3.1594,-3.1439,-3.1743,-3.212,-3.253,-3.2951,-3.268,-3.2442,-3.267,-3.2786,-3.2489,-3.2273,-3.2205,-3.2171,-3.2138,-3.2002,-3.1901,-3.1799,-3.1698,-3.1461,-3.1258,-3.1258,-3.1258,-3.119,-3.1157,-3.119,-3.119,-3.1123,-3.0954,-3.0668,-3.0364,-3.0059,-2.9754,-2.9431,-2.96,-2.9788,-3.0006,-4.7309,-4.7309,-4.7309,-4.7309,-4.7309,-4.7309,-4.7309,-4.7309,-4.7309,-4.716,-4.701,-4.683,-4.6471,-4.6112,-4.6022,-4.6022,-4.6112,-4.6262,-4.6621,-4.692,-4.7203,-4.7679,-4.8229,-4.8862,-4.9599,-5.0524,-5.057,-5.0399,-5.0186,-4.8336,-4.7039,-4.5959,-4.5039,-4.4327,-4.3675,-4.3754,-4.3832,-4.399,-4.4148,-4.3858,-4.3282,-4.3472,-4.3267,-4.2588,-4.1694,-4.0981,-4.0256,-3.9028,-3.7852,-3.7244,-3.6877,-3.6846,-3.6997,-3.7328,-3.7799,-3.8258,-3.8678,-3.904,-3.9083,-3.8624,-3.7803,-3.71,-3.6375,-3.6073,-3.5904,-3.5769,-3.56,-3.56,-3.56,-3.56,-3.5577,-3.5327,-3.5024,-3.4618,-3.3975,-3.3303,-3.2738,-3.2118,-3.2096,-3.201,-3.24,-3.2712,-3.3412,-3.3786,-3.3707,-3.3328,-3.3091,-3.3191,-3.3064,-3.2983,-3.3051,-3.3051,-3.3051,-3.2882,-3.2713,-3.2611,-3.2442,-3.1921,-3.1698,-3.1447,-3.1379,-3.1326,-3.1224,-3.119,-3.119,-3.119,-3.1089,-3.0886,-3.0954,-3.1055,-3.0649,-3.0176,-3.0296,-3.0465,-3.048,-4.7309,-4.7309,-4.7309,-4.7309,-4.7309,-4.7309,-4.7279,-4.7189,-4.713,-4.683,-4.6292,-4.5783,-4.5454,-4.5334,-4.5334,-4.5334,-4.5484,-4.5933,-4.6352,-4.6574,-4.7156,-4.7691,-4.8355,-4.9066,-4.9955,-5.0758,-5.0732,-5.0436,-5.0219,-4.8609,-4.7262,-4.6231,-4.5346,-4.4572,-4.3488,-4.3793,-4.4181,-4.461,-4.5017,-4.4642,-4.4175,-4.4365,-4.4037,-4.3333,-4.2712,-4.1956,-4.0939,-3.9931,-3.8724,-3.7719,-3.7478,-3.7417,-3.7476,-3.7972,-3.8427,-3.8871,-3.9255,-3.958,-3.9773,-3.916,-3.8529,-3.7884,-3.7178,-3.6772,-3.6603,-3.6197,-3.5791,-3.5926,-3.5667,-3.5633,-3.5532,-3.5373,-3.5071,-3.4667,-3.4025,-3.3408,-3.2873,-3.2578,-3.2496,-3.2551,-3.2765,-3.3135,-3.396,-3.4535,-3.4569,-3.4264,-3.3713,-3.3584,-3.3672,-3.3829,-3.3964,-3.3998,-3.4032,-3.3728,-3.3525,-3.3423,-3.3152,-3.2577,-3.2226,-3.209,-3.1785,-3.1596,-3.1495,-3.1326,-3.119,-3.119,-3.119,-3.1157,-3.119,-3.119,-3.119,-3.0954,-3.1075,-3.1041,-3.092,-4.7309,-4.7309,-4.7309,-4.7309,-4.7309,-4.7309,-4.707,-4.6621,-4.6202,-4.5843,-4.5633,-4.5334,-4.5005,-4.4766,-4.4646,-4.4646,-4.4766,-4.5334,-4.5795,-4.6533,-4.7134,-4.8084,-4.8811,-4.947,-5.0377,-5.108,-5.0968,-5.0551,-5.0391,-4.8824,-4.7385,-4.6262,-4.5692,-4.4843,-4.4427,-4.4572,-4.4949,-4.5128,-4.5366,-4.5257,-4.4689,-4.4784,-4.4561,-4.3717,-4.3189,-4.2517,-4.1526,-4.0517,-3.9369,-3.833,-3.8059,-3.8001,-3.8026,-3.8511,-3.8931,-3.9282,-3.9633,-3.9866,-3.9986,-3.9699,-3.9361,-3.8667,-3.799,-3.755,-3.7449,-3.6806,-3.6502,-3.6265,-3.6005,-3.587,-3.5577,-3.5406,-3.5128,-3.4787,-3.4226,-3.3617,-3.3118,-3.2958,-3.2908,-3.3033,-3.324,-3.3931,-3.4717,-3.4987,-3.5023,-3.5093,-3.4621,-3.4665,-3.4754,-3.489,-3.5059,-3.5059,-3.5013,-3.4641,-3.437,-3.4201,-3.3829,-3.322,-3.3017,-3.2983,-3.2611,-3.2138,-3.2002,-3.1968,-3.1562,-3.119,-3.119,-3.119,-3.119,-3.119,-3.119,-3.119,-3.1157,-3.1123,-3.1123,-4.6591,-4.6621,-4.6621,-4.6664,-4.6736,-4.6946,-4.6719,-4.61,-4.5398,-4.5068,-4.4997,-4.4777,-4.4407,-4.4047,-4.3947,-4.3947,-4.4047,-4.4728,-4.55,-4.6339,-4.7129,-4.812,-4.9044,-4.9868,-5.0723,-5.1372,-5.1214,-5.0691,-5.0627,-4.8995,-4.78,-4.6925,-4.6198,-4.5985,-4.5728,-4.5692,-4.5692,-4.5901,-4.611,-4.5832,-4.537,-4.5116,-4.4749,-4.4068,-4.3417,-4.2735,-4.1805,-4.0823,-3.982,-3.9051,-3.8655,-3.8572,-3.865,-3.8898,-3.9309,-3.9599,-3.9807,-4.0011,-4.0054,-4.0079,-3.9715,-3.9377,-3.87,-3.8362,-3.8159,-3.7584,-3.728,-3.7009,-3.6603,-3.6502,-3.632,-3.6078,-3.5785,-3.5472,-3.4894,-3.4281,-3.3914,-3.3818,-3.3869,-3.3958,-3.4394,-3.5054,-3.5414,-3.5358,-3.5419,-3.5498,-3.5521,-3.5611,-3.56,-3.56,-3.56,-3.5566,-3.5532,-3.5194,-3.4979,-3.4945,-3.4472,-3.3863,-3.3761,-3.3761,-3.3288,-3.278,-3.2713,-3.2577,-3.2138,-3.1698,-3.1326,-3.119,-3.1224,-3.1224,-3.119,-3.119,-3.119,-3.119,-3.119,-4.5334,-4.5304,-4.5346,-4.553,-4.5755,-4.6422,-4.6353,-4.5829,-4.5002,-4.465,-4.4549,-4.3848,-4.3588,-4.3419,-4.3389,-4.3459,-4.3678,-4.4349,-4.5153,-4.6011,-4.7079,-4.8171,-4.9219,-5.0016,-5.0843,-5.1448,-5.1352,-5.066,-5.0757,-4.9458,-4.8398,-4.7836,-4.727,-4.71,-4.6894,-4.6655,-4.6585,-4.6804,-4.6487,-4.6218,-4.5901,-4.5436,-4.4879,-4.4259,-4.3642,-4.2901,-4.2051,-4.1097,-4.012,-3.9412,-3.8925,-3.8952,-3.9094,-3.9335,-3.9599,-3.9833,-4.0011,-4.0087,-4.0113,-4.0113,-4.0079,-3.9842,-3.9377,-3.9106,-3.8836,-3.8396,-3.8024,-3.7855,-3.7584,-3.7686,-3.7638,-3.733,-3.6986,-3.6536,-3.5993,-3.5513,-3.5078,-3.5026,-3.5106,-3.54,-3.5954,-3.6381,-3.6396,-3.6308,-3.5926,-3.5847,-3.5814,-3.5577,-3.56,-3.56,-3.56,-3.56,-3.56,-3.56,-3.5464,-3.5329,-3.5126,-3.4573,-3.4506,-3.4438,-3.3931,-3.3558,-3.3457,-3.322,-3.2767,-3.2293,-3.1765,-3.1461,-3.1326,-3.1292,-3.1224,-3.119,-3.119,-3.119,-3.119,-4.5522,-4.5522,-4.5808,-4.6001,-4.6062,-4.6313,-4.6144,-4.5646,-4.4886,-4.4541,-4.4386,-4.4126,-4.384,-4.3596,-4.3754,-4.3714,-4.4034,-4.4555,-4.5275,-4.6203,-4.7269,-4.8568,-4.9502,-5.0171,-5.0943,-5.108,-5.0894,-5.049,-5.0019,-4.922,-4.8658,-4.8066,-4.7935,-4.7902,-4.7869,-4.7671,-4.7638,-4.7375,-4.6837,-4.6491,-4.6032,-4.5428,-4.4845,-4.4361,-4.3753,-4.301,-4.2213,-4.1338,-4.0447,-3.9792,-3.9494,-3.9494,-3.952,-3.9677,-3.9858,-4.0011,-4.0087,-4.0113,-4.0113,-4.0113,-4.0113,-4.0113,-3.9842,-3.9842,-3.9605,-3.914,-3.87,-3.8599,-3.8396,-3.8328,-3.8231,-3.7968,-3.7669,-3.7261,-3.6728,-3.6323,-3.5935,-3.5963,-3.6102,-3.6589,-3.7143,-3.7319,-3.734,-3.6928,-3.6546,-3.6332,-3.6096,-3.5802,-3.56,-3.56,-3.56,-3.56,-3.56,-3.56,-3.56,-3.5498,-3.543,-3.5329,-3.516,-3.5081,-3.4878,-3.4539,-3.4303,-3.3897,-3.3423,-3.2801,-3.2158,-3.1968,-3.1935,-3.1427,-3.1292,-3.1224,-3.119,-3.1258,-3.1224,-4.5172,-4.5221,-4.5537,-4.5811,-4.6143,-4.6413,-4.6402,-4.6082,-4.5372,-4.4918,-4.473,-4.4541,-4.4305,-4.4026,-4.4143,-4.4143,-4.4057,-4.4841,-4.5594,-4.6382,-4.758,-4.8482,-4.9369,-5.0043,-5.0505,-5.0625,-5.0592,-5.0385,-4.9746,-4.911,-4.8515,-4.8515,-4.8388,-4.8453,-4.8452,-4.8418,-4.8186,-4.7651,-4.7074,-4.6623,-4.6064,-4.5336,-4.479,-4.4445,-4.3809,-4.3064,-4.232,-4.1471,-4.0684,-3.9993,-3.9789,-3.9729,-3.9755,-3.9884,-3.9986,-4.0087,-4.0113,-4.0113,-4.0113,-4.0113,-4.0113,-4.0113,-4.0113,-4.0079,-3.9977,-3.9639,-3.9503,-3.9377,-3.9073,-3.8787,-3.863,-3.8447,-3.8151,-3.7814,-3.7383,-3.6975,-3.6892,-3.6865,-3.7189,-3.7643,-3.7959,-3.817,-3.7986,-3.7527,-3.7066,-3.6728,-3.6366,-3.6062,-3.5769,-3.56,-3.56,-3.56,-3.56,-3.56,-3.56,-3.56,-3.5566,-3.5498,-3.5464,-3.543,-3.5498,-3.5295,-3.4878,-3.4472,-3.41,-3.3491,-3.2869,-3.2747,-3.2611,-3.2138,-3.1901,-3.2104,-3.1968,-3.1495,-3.1393,-4.4342,-4.4569,-4.4756,-4.5473,-4.6195,-4.6687,-4.6997,-4.71,-4.6304,-4.5769,-4.5515,-4.5147,-4.4805,-4.4572,-4.4685,-4.4648,-4.4761,-4.5303,-4.5998,-4.6534,-4.759,-4.8515,-4.9124,-4.9606,-5.009,-5.0393,-5.039,-5.0042,-4.9833,-4.9263,-4.8861,-4.8984,-4.8923,-4.8894,-4.8894,-4.8658,-4.8326,-4.7821,-4.6982,-4.6334,-4.6152,-4.5432,-4.4581,-4.4479,-4.3842,-4.3037,-4.2293,-4.1497,-4.065,-4.0127,-3.9833,-3.9833,-3.991,-4.0011,-4.0087,-4.0113,-4.0113,-4.0113,-4.0113,-4.0113,-4.0113,-4.0113,-4.0113,-4.0113,-4.0011,-3.9977,-3.9876,-3.9817,-3.9521,-3.9354,-3.9228,-3.8998,-3.8712,-3.8393,-3.8008,-3.7815,-3.7788,-3.7926,-3.8301,-3.8698,-3.8848,-3.9007,-3.8888,-3.8464,-3.7946,-3.7337,-3.6694,-3.6332,-3.6062,-3.5769,-3.5633,-3.5633,-3.56,-3.56,-3.56,-3.56,-3.56,-3.56,-3.56,-3.56,-3.5566,-3.5464,-3.5329,-3.4991,-3.4709,-3.4235,-3.3728,-3.3592,-3.3355,-3.3051,-3.2949,-3.3186,-3.2882,-3.2239,-3.2002,-4.3653,-4.3965,-4.5104,-4.6239,-4.7237,-4.7505,-4.777,-4.7902,-4.7737,-4.7135,-4.655,-4.6198,-4.5733,-4.5184,-4.5358,-4.5358,-4.5332,-4.5909,-4.6503,-4.7176,-4.7988,-4.8524,-4.9159,-4.946,-4.979,-4.9751,-4.9675,-4.9565,-4.939,-4.912,-4.9018,-4.9018,-4.9018,-4.9018,-4.8951,-4.8646,-4.8105,-4.7703,-4.6688,-4.6017,-4.5771,-4.5229,-4.4581,-4.4378,-4.3842,-4.3098,-4.2327,-4.1617,-4.0814,-4.0206,-4.0071,-4.0037,-4.0062,-4.0087,-4.0113,-4.0113,-4.0113,-4.0113,-4.0113,-4.0113,-4.0113,-4.0113,-4.0113,-4.0113,-4.0113,-4.0113,-4.0087,-4.0062,-4.0011,-3.9884,-3.9703,-3.9441,-3.9175,-3.8876,-3.8595,-3.8567,-3.8567,-3.8952,-3.9355,-3.9525,-3.9682,-3.9674,-3.9589,-3.9309,-3.8802,-3.8082,-3.7168,-3.6637,-3.64,-3.6129,-3.5701,-3.5667,-3.56,-3.56,-3.56,-3.56,-3.56,-3.56,-3.56,-3.56,-3.56,-3.5532,-3.5464,-3.5464,-3.5261,-3.481,-3.4472,-3.4303,-3.4066,-3.3863,-3.3761,-3.3897,-3.3761,-3.322,-3.3051,-4.3952,-4.4353,-4.5766,-4.6782,-4.7438,-4.8029,-4.8356,-4.8452,-4.8515,-4.8226,-4.7638,-4.71,-4.6477,-4.5841,-4.5977,-4.5981,-4.5917,-4.6617,-4.703,-4.7635,-4.82,-4.8628,-4.9054,-4.9281,-4.9246,-4.9239,-4.9162,-4.9052,-4.9018,-4.9018,-4.9018,-4.9018,-4.9018,-4.8984,-4.8883,-4.8308,-4.7699,-4.7361,-4.621,-4.5602,-4.5297,-4.4852,-4.4581,-4.435,-4.4079,-4.3335,-4.2523,-4.1779,-4.1128,-4.0451,-4.0087,-4.0087,-4.0087,-4.0113,-4.0113,-4.0113,-4.0113,-4.0113,-4.0113,-4.0113,-4.0113,-4.0113,-4.0113,-4.0113,-4.0113,-4.0113,-4.0113,-4.0087,-3.9961,-3.9892,-3.9494,-3.9202,-3.8931,-3.8628,-3.8544,-3.8516,-3.8738,-3.9067,-3.9282,-3.9408,-3.9603,-3.9834,-3.9775,-3.9817,-3.9309,-3.8802,-3.7889,-3.7178,-3.6874,-3.658,-3.614,-3.5847,-3.5892,-3.5712,-3.56,-3.56,-3.56,-3.56,-3.56,-3.56,-3.56,-3.56,-3.56,-3.5566,-3.5532,-3.5397,-3.5115,-3.4912,-3.4912,-3.4788,-3.4619,-3.4539,-3.4315,-3.418,-3.418,-4.4464,-4.5145,-4.631,-4.6958,-4.7187,-4.8071,-4.8464,-4.8495,-4.8588,-4.8557,-4.8145,-4.7309,-4.6738,-4.6456,-4.6474,-4.6378,-4.659,-4.7171,-4.7539,-4.7968,-4.8389,-4.8683,-4.881,-4.8837,-4.8967,-4.8998,-4.8956,-4.9018,-4.9018,-4.9018,-4.9018,-4.9018,-4.8984,-4.8951,-4.868,-4.8105,-4.7365,-4.665,-4.5805,-4.5196,-4.4886,-4.4581,-4.4581,-4.4581,-4.4479,-4.3768,-4.2821,-4.2076,-4.1433,-4.0722,-4.0113,-4.0113,-4.0113,-4.0113,-4.0113,-4.0113,-4.0113,-4.0113,-4.0113,-4.0113,-4.0113,-4.0113,-4.0113,-4.0113,-4.0113,-4.0113,-4.0113,-4.0011,-3.9943,-3.9625,-3.9222,-3.8871,-3.86,-3.8403,-3.8375,-3.846,-3.8766,-3.904,-3.9148,-3.9255,-3.952,-3.9807,-3.9935,-3.9978,-3.9758,-3.9276,-3.8734,-3.8091,-3.7527,-3.7175,-3.6757,-3.6498,-3.6417,-3.6161,-3.5746,-3.5667,-3.5645,-3.56,-3.56,-3.56,-3.56,-3.56,-3.56,-3.56,-3.5566,-3.5498,-3.5532,-3.5363,-3.543,-3.5374,-3.5261,-3.5025,-3.5092,-3.5025,-3.5261,-4.4144,-4.5343,-4.566,-4.6182,-4.6806,-4.7132,-4.7196,-4.7196,-4.7229,-4.7136,-4.6962,-4.6591,-4.6285,-4.6553,-4.7106,-4.7073,-4.6715,-4.7473,-4.8194,-4.8644,-4.8738,-4.8863,-4.8894,-4.8894,-4.8956,-4.8987,-4.8987,-4.9018,-4.9018,-4.9018,-4.9018,-4.9018,-4.9018,-4.8714,-4.8037,-4.7432,-4.6752,-4.6041,-4.5399,-4.4784,-4.475,-4.4581,-4.4581,-4.4581,-4.4581,-4.3599,-4.2753,-4.2354,-4.1399,-4.0587,-4.0113,-4.0113,-4.0113,-4.0113,-4.0113,-4.0113,-4.0113,-4.0113,-4.0113,-4.0113,-4.0113,-4.0113,-4.0113,-4.0113,-4.0113,-4.0087,-4.0011,-3.9858,-3.9651,-3.9282,-3.8871,-3.8483,-3.8173,-3.8059,-3.8001,-3.8262,-3.8511,-3.8761,-3.8925,-3.9142,-3.9441,-3.9677,-3.9858,-3.9935,-4.0003,-3.9564,-3.9226,-3.8627,-3.8167,-3.7797,-3.7403,-3.7071,-3.6831,-3.6384,-3.5858,-3.5757,-3.5723,-3.5678,-3.56,-3.56,-3.56,-3.56,-3.56,-3.56,-3.56,-3.5566,-3.56,-3.5611,-3.5554,-3.5464,-3.5543,-3.5532,-3.56,-3.5577,-3.5577]}]]